[[{"header":{"parameterUnit":"m.s-1","parameterCategory":1,"la1":30.6,"la2":29.2853,"lo1":-89.7004,"lo2":-87.6739,"dy":0.0162,"dx":0.0183,"nx":112,"ny":82,"refTime":"2024-07-19T06:00:00:Z","depth":0,"parameterNumber":2,"parameterNumberName":"U-component_of_WINDS"},"data":[0.0,0.0,0.0,0.0,0.0,0.0,0.0,0.0,0.0,0.0,0.0,0.0,0.0,0.0,0.0,0.0,0.0,0.0,0.0,0.0,0.0,0.0,0.0,0.0,0.0,0.0,0.0,0.0,0.0,0.0,0.0,0.0,0.0,0.0,0.0,0.0,0.0,0.0,0.0,0.0,0.0,0.0,0.0,0.0,0.0,0.0,0.0,0.0,0.0,0.0,0.0,0.0,0.0,0.0,0.0,0.0,0.0,0.0,0.0,0.0,0.0,0.0,0.0,0.0,0.0,0.0,0.0,0.0,0.0,0.0,0.0,0.0,0.0,0.0,0.0,0.0,0.0,0.0,0.0,0.0,0.0,0.0,0.0,0.0,0.0,0.0,0.0,0.0,0.0,0.0,-1.5048,-1.6999,-1.9121,-2.0346,-2.0235,-2.0079,-1.8653,-1.5517,0.0,0.0,0.0,0.0,0.0,0.0,0.0,0.0,0.0,0.0,0.0,0.0,0.0,0.0,0.0,0.0,0.0,0.0,0.0,0.0,0.0,0.0,0.0,0.0,0.0,0.0,0.0,0.0,0.0,0.0,0.0,0.0,0.0,0.0,0.0,0.0,0.0,0.0,0.0,0.0,0.0,0.0,0.0,0.0,0.0,0.0,0.0,0.0,0.0,0.0,0.0,0.0,0.0,0.0,0.0,0.0,0.0,0.0,0.0,0.0,0.0,0.0,0.0,0.0,0.0,0.0,0.0,0.0,0.0,0.0,0.0,0.0,0.0,0.0,0.0,0.0,0.0,0.0,0.0,0.0,0.0,0.0,0.0,0.0,0.0,0.0,0.0,0.0,0.0,0.0,0.0,0.0,0.0,0.0,0.0,0.0,0.0,0.0,0.0,0.0,0.0,0.0,0.0,0.0,-1.6401,-1.9567,-2.0201,-2.0366,-2.0294,-2.0107,-1.8809,-1.6045,0.0,0.0,0.0,0.0,0.0,0.0,0.0,0.0,0.0,0.0,0.0,0.0,0.0,0.0,0.0,0.0,0.0,0.0,0.0,0.0,0.0,0.0,0.0,0.0,0.0,0.0,0.0,0.0,0.0,0.0,0.0,0.0,0.0,0.0,0.0,0.0,0.0,0.0,0.0,0.0,0.0,0.0,0.0,0.0,0.0,0.0,0.0,0.0,0.0,0.0,0.0,0.0,0.0,0.0,0.0,0.0,0.0,0.0,0.0,0.0,0.0,0.0,0.0,0.0,0.0,0.0,0.0,0.0,0.0,0.0,0.0,0.0,0.0,0.0,0.0,0.0,0.0,0.0,0.0,0.0,0.0,0.0,0.0,0.0,0.0,0.0,0.0,0.0,0.0,0.0,0.0,0.0,0.0,0.0,0.0,0.0,0.0,0.0,0.0,0.0,0.0,0.0,0.0,-1.5285,-1.7214,-2.0229,-2.0432,-2.0342,-2.0347,-2.0139,-1.8798,-1.6011,-1.4567,0.0,0.0,0.0,0.0,0.0,0.0,0.0,0.0,0.0,0.0,0.0,0.0,0.0,0.0,0.0,0.0,0.0,0.0,0.0,0.0,0.0,0.0,0.0,0.0,0.0,0.0,0.0,0.0,0.0,0.0,0.0,0.0,0.0,0.0,0.0,0.0,0.0,0.0,0.0,0.0,0.0,0.0,0.0,0.0,0.0,0.0,0.0,0.0,0.0,0.0,0.0,0.0,0.0,0.0,0.0,0.0,0.0,0.0,0.0,0.0,0.0,0.0,0.0,0.0,0.0,0.0,0.0,0.0,0.0,0.0,0.0,0.0,0.0,0.0,0.0,0.0,0.0,0.0,0.0,0.0,0.0,0.0,0.0,0.0,0.0,0.0,0.0,0.0,0.0,0.0,0.0,0.0,0.0,0.0,0.0,0.0,0.0,0.0,0.0,0.0,0.0,0.0,-1.6678,-1.7835,-2.031,-2.0418,-2.0316,-2.0366,-1.9761,-1.8298,-1.5718,-1.4293,0.0,0.0,0.0,0.0,0.0,0.0,0.0,0.0,0.0,0.0,0.0,0.0,0.0,0.0,0.0,0.0,0.0,0.0,0.0,0.0,0.0,0.0,0.0,0.0,0.0,0.0,0.0,0.0,0.0,0.0,0.0,0.0,0.0,0.0,0.0,0.0,0.0,0.0,0.0,0.0,0.0,0.0,0.0,0.0,0.0,0.0,0.0,0.0,0.0,0.0,0.0,0.0,0.0,0.0,0.0,0.0,0.0,0.0,0.0,0.0,0.0,0.0,0.0,0.0,0.0,0.0,0.0,0.0,0.0,0.0,0.0,0.0,0.0,0.0,0.0,0.0,0.0,0.0,0.0,0.0,0.0,0.0,0.0,0.0,0.0,0.0,0.0,0.0,0.0,0.0,0.0,0.0,0.0,0.0,0.0,0.0,0.0,0.0,0.0,0.0,0.0,0.0,-1.6788,-1.8434,-2.0315,-2.0374,-2.0294,-2.0319,-1.862,-1.6885,-1.5245,-1.3079,0.0,0.0,0.0,0.0,0.0,0.0,0.0,0.0,0.0,0.0,0.0,0.0,0.0,0.0,0.0,0.0,0.0,0.0,0.0,0.0,0.0,0.0,0.0,0.0,0.0,0.0,0.0,0.0,0.0,0.0,0.0,0.0,0.0,0.0,0.0,0.0,0.0,0.0,0.0,0.0,0.0,0.0,0.0,0.0,0.0,0.0,0.0,0.0,0.0,0.0,0.0,0.0,0.0,0.0,0.0,0.0,0.0,0.0,0.0,0.0,0.0,0.0,0.0,0.0,0.0,0.0,0.0,0.0,0.0,0.0,0.0,0.0,0.0,0.0,0.0,0.0,0.0,0.0,0.0,0.0,0.0,0.0,0.0,0.0,0.0,0.0,0.0,0.0,0.0,0.0,0.0,0.0,0.0,0.0,0.0,0.0,0.0,0.0,0.0,0.0,0.0,0.0,-1.6791,-1.8519,-2.0367,-2.0395,-2.033,-2.0352,-1.958,-1.7776,-1.4664,0.0,0.0,0.0,0.0,0.0,0.0,0.0,0.0,0.0,0.0,0.0,0.0,0.0,0.0,0.0,0.0,0.0,0.0,0.0,0.0,0.0,0.0,0.0,0.0,0.0,0.0,0.0,0.0,0.0,0.0,0.0,0.0,0.0,0.0,0.0,0.0,0.0,0.0,0.0,0.0,0.0,0.0,0.0,0.0,0.0,0.0,0.0,0.0,0.0,0.0,0.0,0.0,0.0,0.0,0.0,0.0,0.0,0.0,0.0,0.0,0.0,0.0,0.0,0.0,0.0,0.0,0.0,0.0,0.0,0.0,0.0,0.0,0.0,0.0,0.0,0.0,0.0,0.0,0.0,0.0,0.0,0.0,0.0,0.0,0.0,0.0,0.0,0.0,0.0,0.0,0.0,0.0,0.0,0.0,0.0,0.0,0.0,0.0,0.0,0.0,0.0,0.0,-1.52,-1.7051,-1.8826,-2.043,-2.0425,-2.0322,-2.0387,-1.9458,-1.7498,-1.4298,0.0,0.0,0.0,0.0,0.0,0.0,0.0,0.0,0.0,0.0,0.0,0.0,0.0,0.0,0.0,0.0,0.0,0.0,0.0,0.0,0.0,0.0,0.0,0.0,0.0,0.0,0.0,0.0,0.0,0.0,0.0,0.0,0.0,0.0,0.0,0.0,0.0,0.0,0.0,0.0,0.0,0.0,0.0,0.0,0.0,0.0,0.0,0.0,0.0,0.0,0.0,0.0,0.0,0.0,0.0,0.0,0.0,0.0,0.0,0.0,0.0,0.0,0.0,0.0,0.0,0.0,0.0,0.0,0.0,0.0,0.0,0.0,0.0,0.0,0.0,0.0,0.0,0.0,0.0,0.0,0.0,0.0,0.0,0.0,0.0,0.0,0.0,0.0,0.0,0.0,0.0,0.0,0.0,0.0,0.0,0.0,0.0,0.0,0.0,0.0,0.0,0.0,-1.5277,-1.7561,-1.9505,-2.0488,-2.0425,-2.0322,-2.0406,-1.7844,-1.5629,0.0,0.0,0.0,0.0,0.0,0.0,0.0,0.0,0.0,0.0,0.0,0.0,0.0,0.0,0.0,0.0,0.0,0.0,0.0,0.0,0.0,0.0,0.0,0.0,0.0,0.0,0.0,0.0,0.0,0.0,0.0,0.0,0.0,0.0,0.0,0.0,0.0,0.0,0.0,0.0,0.0,0.0,0.0,0.0,0.0,0.0,0.0,0.0,0.0,0.0,0.0,0.0,0.0,0.0,0.0,0.0,0.0,0.0,0.0,0.0,0.0,0.0,0.0,0.0,0.0,0.0,0.0,0.0,0.0,0.0,0.0,0.0,0.0,0.0,0.0,0.0,0.0,0.0,0.0,0.0,0.0,0.0,0.0,0.0,0.0,0.0,0.0,0.0,0.0,0.0,0.0,0.0,0.0,0.0,0.0,0.0,0.0,0.0,0.0,0.0,0.0,0.0,0.0,-1.5355,-1.8065,-2.0108,-2.0547,-2.051,-2.0444,-2.0475,-1.9159,-1.7234,-1.468,0.0,0.0,0.0,0.0,0.0,0.0,0.0,0.0,0.0,0.0,0.0,0.0,0.0,0.0,0.0,0.0,0.0,0.0,0.0,0.0,0.0,0.0,0.0,0.0,0.0,0.0,0.0,0.0,0.0,0.0,0.0,0.0,0.0,0.0,0.0,0.0,0.0,0.0,0.0,0.0,0.0,0.0,0.0,0.0,0.0,0.0,0.0,0.0,0.0,0.0,0.0,0.0,0.0,0.0,0.0,0.0,0.0,0.0,0.0,0.0,0.0,0.0,0.0,0.0,0.0,0.0,0.0,0.0,0.0,0.0,0.0,0.0,0.0,0.0,0.0,0.0,0.0,0.0,0.0,0.0,0.0,0.0,0.0,0.0,0.0,0.0,0.0,0.0,0.0,0.0,0.0,0.0,0.0,0.0,0.0,0.0,0.0,0.0,0.0,0.0,0.0,0.0,-1.5343,-1.8247,-2.0369,-2.0542,-2.0507,-2.0479,-2.0508,-1.9697,-1.8049,-1.5382,0.0,0.0,0.0,0.0,0.0,0.0,0.0,0.0,0.0,0.0,0.0,0.0,0.0,0.0,0.0,0.0,0.0,0.0,0.0,0.0,0.0,0.0,0.0,0.0,0.0,0.0,0.0,0.0,0.0,0.0,0.0,0.0,0.0,0.0,0.0,0.0,0.0,0.0,0.0,0.0,0.0,0.0,0.0,0.0,0.0,0.0,0.0,0.0,0.0,0.0,0.0,0.0,0.0,0.0,0.0,0.0,0.0,0.0,0.0,0.0,0.0,0.0,0.0,0.0,0.0,0.0,0.0,0.0,0.0,0.0,0.0,0.0,0.0,0.0,0.0,0.0,0.0,0.0,0.0,0.0,0.0,0.0,0.0,0.0,0.0,0.0,0.0,0.0,0.0,0.0,0.0,0.0,0.0,0.0,0.0,0.0,0.0,0.0,0.0,0.0,0.0,0.0,-1.5521,-1.8392,-2.0497,-2.0711,-2.0679,-2.0644,-2.0614,-1.9829,-1.8438,-1.6329,0.0,0.0,0.0,0.0,0.0,0.0,0.0,0.0,0.0,0.0,0.0,0.0,0.0,0.0,0.0,0.0,0.0,0.0,0.0,0.0,0.0,0.0,0.0,0.0,0.0,0.0,0.0,0.0,0.0,0.0,0.0,0.0,0.0,0.0,0.0,0.0,0.0,0.0,0.0,0.0,0.0,0.0,0.0,0.0,0.0,0.0,0.0,0.0,0.0,0.0,0.0,0.0,0.0,0.0,0.0,0.0,0.0,0.0,0.0,0.0,0.7559,0.5894,0.0,0.0,0.0,0.0,0.0,0.0,0.0,0.0,0.0,0.0,0.0,0.0,0.0,0.0,0.0,0.0,0.0,0.0,0.0,0.0,0.0,0.0,0.0,0.0,0.0,0.0,0.0,0.0,0.0,0.0,0.0,0.0,0.0,0.0,0.0,0.0,0.0,0.0,0.0,0.0,-1.7151,-1.9667,-2.1621,-2.2371,-2.2503,-2.225,-2.157,-2.0762,-1.9526,-1.7696,-1.5653,0.0,0.0,0.0,0.0,0.0,0.0,0.0,0.0,0.0,0.0,0.0,0.0,0.0,0.0,0.0,0.0,0.0,0.0,0.0,0.0,0.0,0.0,0.0,0.0,0.0,0.0,0.0,0.0,0.0,0.0,0.0,0.0,0.0,0.0,0.0,0.0,0.0,0.0,0.0,0.0,0.0,0.0,0.0,0.0,0.0,0.0,0.0,0.0,0.0,0.0,0.0,0.0,0.0,0.0,0.0,0.0,0.0,0.0,0.0,0.9279,0.6756,0.0,0.0,0.0,0.0,0.0,0.0,0.0,0.0,0.0,0.0,0.0,0.0,0.0,0.0,0.0,0.0,0.0,0.0,0.0,0.0,0.0,0.0,0.0,0.0,0.0,0.0,0.0,0.0,0.0,0.0,0.0,0.0,0.0,0.0,0.0,0.0,0.0,0.0,0.0,0.0,-1.7622,-2.0017,-2.192,-2.2902,-2.3038,-2.2896,-2.251,-2.1717,-2.0644,-1.9296,-1.7362,0.0,0.0,0.0,0.0,0.0,0.0,0.0,0.0,0.0,0.0,0.0,0.0,0.0,0.0,0.0,0.0,0.0,0.0,0.0,0.0,0.0,0.0,0.0,0.0,0.0,0.0,0.0,0.0,0.0,0.0,0.0,0.0,0.0,0.0,0.0,0.0,0.0,0.0,0.0,0.0,0.0,0.0,0.0,0.0,0.0,0.0,0.0,0.0,0.0,0.0,0.0,0.0,0.0,1.5245,1.6333,1.658,1.6271,1.5959,1.5446,1.1233,0.8138,0.5918,0.3469,0.0,0.0,0.0,0.0,0.0,0.0,0.0,0.0,0.0,0.0,0.0,0.0,0.0,0.0,0.0,0.0,0.0,0.0,0.0,0.0,0.0,0.0,-1.2984,-1.3745,-1.6847,-1.8735,-1.5527,0.0,0.0,0.0,0.0,0.0,0.0,0.0,0.0,0.0,0.0,0.0,-1.8222,-2.0488,-2.2303,-2.3295,-2.3439,-2.3439,-2.3379,-2.2734,-2.1874,-2.0783,-1.9241,-1.7569,0.0,0.0,0.0,0.0,0.0,0.0,0.0,0.0,0.0,0.0,0.0,0.0,0.0,0.0,0.0,0.0,0.0,0.0,0.0,0.0,0.0,0.0,0.0,0.0,0.0,0.0,0.0,0.0,0.0,0.0,0.0,0.0,0.8832,0.9015,0.0,0.0,0.0,0.0,0.0,0.0,0.0,0.0,0.0,0.0,0.0,0.0,0.0,0.5524,0.7254,1.1846,1.4472,1.517,1.6331,1.7191,1.7804,1.8655,1.8078,1.6232,1.3698,0.0,0.7575,0.4761,0.0,0.0,0.0,0.0,0.0,0.0,0.0,0.0,0.0,0.0,0.0,0.0,0.0,0.0,0.0,0.0,0.0,0.0,0.0,0.0,0.0,0.0,-1.3275,-1.5555,-1.7939,-1.971,-1.9835,-1.8477,-1.6965,-1.5974,-1.5242,-1.4442,0.0,0.0,0.0,0.0,0.0,0.0,-2.0837,-2.2588,-2.3945,-2.4895,-2.5145,-2.4926,-2.4141,-2.4062,-2.3377,-2.1721,-2.0758,-1.9431,-1.762,-1.5937,0.0,0.0,0.0,0.0,0.0,0.0,0.0,0.0,0.0,0.0,0.0,0.0,0.0,0.0,0.0,0.0,0.0,0.0,0.0,0.0,0.0,0.0,0.0,0.0,0.0,0.0,0.0,0.0,0.0,0.8406,0.9673,0.9683,1.0545,1.0854,0.0,0.0,0.0,0.0,0.0,0.0,0.0,0.0,0.0,0.119,0.3572,0.5967,0.8291,1.5684,1.8695,1.7311,1.9192,1.9987,1.9788,1.9662,1.9394,1.8863,1.5898,1.3479,1.1288,0.6586,0.3716,0.2359,0.0,0.0,0.0,0.0,0.3027,0.1527,-0.1242,-0.2884,-0.3877,-0.4546,0.0,0.0,0.0,0.0,0.0,0.0,0.0,-0.656,-1.1178,-1.3107,-1.4297,-1.5835,-1.8295,-2.0628,-2.1917,-2.1354,-2.0145,-1.8615,-1.8285,-1.7552,-1.5272,-1.5397,0.0,0.0,0.0,-1.987,-2.2081,-2.3364,-2.44,-2.5255,-2.5471,-2.539,-2.5014,-2.4581,-2.4022,-2.3306,-2.2471,-2.1202,-1.9433,-1.8144,-1.6434,0.0,0.0,0.0,0.0,0.0,0.0,0.0,0.0,0.0,0.0,0.0,0.0,0.0,0.0,0.0,0.0,0.0,0.0,0.0,0.0,0.0,0.0,0.0,0.0,0.0,0.0,0.0,0.0,0.9574,1.0658,1.0233,1.1596,1.2305,0.0,0.0,0.0,0.0,0.0,0.0,0.0881,0.1037,0.1641,0.2788,0.4623,0.7317,1.0884,1.856,2.1399,1.9473,2.1286,2.1711,2.0874,1.9999,1.9954,2.0402,1.7541,1.5687,1.4248,0.8728,0.5506,0.4084,0.4902,0.571,0.6337,0.5494,0.4491,0.3207,0.0862,0.006,-0.0028,-0.0729,0.0382,0.2308,0.3981,0.0,0.0,0.0,0.0,-0.8917,-1.2019,-1.347,-1.4516,-1.5919,-1.8579,-2.1251,-2.2844,-2.3339,-2.2945,-2.1191,-2.1071,-2.0376,-1.7608,-1.7849,0.0,-1.86,-1.9918,-2.1451,-2.3002,-2.3946,-2.4702,-2.532,-2.5487,-2.5542,-2.5603,-2.5015,-2.4564,-2.4401,-2.3796,-2.2742,-2.1232,-2.0254,-1.8656,-1.6266,0.0,0.0,0.0,0.0,0.0,0.0,0.0,0.0,0.0,0.0,0.0,0.0,0.0,0.0,0.0,0.0,0.0,0.0,0.0,0.0,0.0,0.0,0.0,0.0,0.0,0.0,0.0,0.0,0.0,1.1133,1.3627,0.0,0.0,0.0,0.0,0.9429,0.9337,0.6301,-0.0938,0.0264,0.2272,0.4697,0.6765,1.0704,1.6637,1.8695,2.0294,2.1439,2.1273,2.0828,2.0147,1.9758,1.9512,1.9346,1.8392,1.7021,1.5153,1.1195,0.8153,0.6011,0.6687,0.6901,0.6586,0.4908,0.4161,0.3627,0.108,0.061,0.1234,0.1949,0.3312,0.4619,0.4084,0.1537,0.0,0.0,-1.0096,-0.8774,-1.566,-1.497,-1.3173,-1.6163,-1.9016,-2.1423,-2.2645,-2.3873,-2.4442,-2.3586,-2.2917,-2.2133,-2.0941,0.0,-2.1235,-2.1385,-2.201,-2.2861,-2.3898,-2.4682,-2.5207,-2.5378,-2.5527,-2.5603,-2.5601,-2.5562,-2.5209,-2.4459,-2.4353,-2.3924,-2.3011,-2.2076,-2.076,-1.9036,-1.7223,0.0,0.0,0.0,0.0,0.0,0.0,0.0,0.0,0.0,0.0,0.0,0.0,0.0,0.0,0.0,0.0,0.0,0.0,0.0,0.0,0.0,0.0,0.0,0.0,0.0,0.0,0.0,0.0,1.4901,1.6974,0.0,1.7304,1.5633,1.3443,1.0633,0.807,0.5927,0.4303,0.6426,0.887,1.1391,1.4633,1.6801,1.7661,2.0533,2.1927,2.1922,2.2033,2.1407,2.0183,1.9132,1.909,1.9906,1.922,1.8411,1.7367,1.4841,1.1417,0.7759,0.7568,0.7441,0.7224,0.6162,0.6266,0.7104,0.7665,0.9481,1.1796,1.3099,1.3202,1.2436,1.0416,0.7946,0.4915,0.0506,-0.1888,-0.3945,-0.7647,-1.046,-1.2847,-1.5085,-1.8296,-2.1271,-2.2764,-2.3859,-2.4523,-2.4512,-2.4242,-2.3724,-2.2773,-2.3137,-2.3466,-2.3133,-2.3862,-2.4594,-2.4941,-2.5279,-2.5464,-2.5464,-2.5542,-2.5601,-2.5601,-2.5558,-2.5449,-2.5252,-2.5156,-2.4762,-2.3962,-2.298,-2.1636,-1.988,-1.8074,-1.5845,0.0,0.0,0.0,0.0,0.0,0.0,0.0,0.0,0.0,0.0,0.0,0.0,0.0,0.0,0.0,0.0,0.0,0.0,0.0,0.0,0.0,0.0,0.0,0.0,0.0,1.4659,1.6363,1.7289,1.9377,2.0463,1.9772,1.8251,1.674,1.5383,1.1952,1.0385,1.1499,1.2424,1.3931,1.6205,1.9139,2.0174,1.9129,2.1995,2.319,2.2586,2.2355,2.1622,2.0483,1.8655,1.8602,1.995,1.9443,1.7619,1.4842,1.2903,0.8612,0.3643,0.7059,0.8208,0.7982,0.7738,0.8578,1.0205,1.293,1.5901,1.8724,2.0241,1.7578,1.3325,1.1045,0.8326,0.4487,-0.2941,-0.3583,-0.3178,-0.8086,-1.1436,-1.4078,-1.5949,-1.8912,-2.1658,-2.2782,-2.3817,-2.4561,-2.4644,-2.4846,-2.4784,-2.4113,-2.4533,-2.4831,-2.4469,-2.5007,-2.5463,-2.5508,-2.5558,-2.559,-2.5543,-2.5545,-2.5579,-2.5602,-2.5527,-2.5503,-2.5634,-2.5551,-2.5297,-2.482,-2.3864,-2.2636,-2.1103,-1.8562,-1.6295,-1.432,0.0,0.0,0.0,0.0,0.0,0.0,0.0,0.0,0.0,0.0,0.0,0.0,0.0,0.0,0.0,0.0,0.0,0.0,0.0,0.0,0.0,0.0,0.0,1.535,1.6739,1.7825,1.8122,2.0722,2.2571,2.2769,2.3294,2.3638,2.3641,2.1453,1.9984,1.9705,1.747,1.6969,1.859,1.9664,2.0561,2.1355,2.2966,2.3717,2.3621,2.2255,2.1376,2.0909,1.8408,1.7991,1.9225,1.8785,1.4326,0.7231,0.5052,-0.0356,-0.6189,0.4789,0.863,0.8092,0.889,1.0203,1.208,1.5719,1.8491,2.0617,2.1864,1.5285,0.6589,0.5176,0.1925,-0.4756,-2.1507,-1.5553,-0.6659,-1.7495,-1.8189,-1.6605,-1.8785,-2.1021,-2.2685,-2.278,-2.3902,-2.4723,-2.4204,-2.4823,-2.5357,-2.5045,-2.515,-2.5302,-2.5388,-2.5394,0.0,-2.5508,-2.5561,-2.5603,-2.5601,-2.5543,-2.5525,-2.5581,-2.5459,-2.5402,-2.5469,-2.5459,-2.5507,-2.5576,-2.4687,-2.3731,-2.2763,-1.8884,-1.6522,-1.5808,0.0,0.0,0.0,0.0,0.0,0.0,0.0,0.0,0.0,0.0,0.0,0.0,0.0,0.0,0.0,0.0,0.0,0.0,0.0,0.0,0.0,1.6357,1.7033,1.7417,1.9218,2.0819,2.1661,2.3437,2.455,2.4452,2.4451,2.3954,2.2719,2.1064,1.9805,1.9075,1.9152,1.9337,1.9547,2.134,2.2459,2.2894,2.2976,2.3568,2.4604,2.3944,2.2709,2.0955,1.9407,1.8684,1.8304,1.3482,0.7209,0.0375,-0.0676,-0.3393,-0.6744,-0.5505,-0.5296,-0.5619,-0.5166,-0.1869,0.2888,0.6609,0.9483,1.1374,1.0605,0.7336,0.3424,0.1721,0.1314,0.0375,-0.4715,-0.3792,-0.2445,-0.7708,-1.2195,-1.6022,-1.8535,-2.1776,-2.4423,-2.4968,-2.5889,-2.6603,-2.6605,-2.6463,-2.6033,-2.5037,-2.4901,-2.5005,-2.5217,-2.5415,-2.5564,-2.5634,-2.566,-2.5659,-2.5603,-2.559,-2.5492,-2.5315,-2.505,-2.486,-2.4793,-2.4681,-2.4748,-2.5008,-2.4302,-2.3163,-2.1594,-1.962,-1.7777,0.0,0.0,0.0,0.0,0.0,0.0,0.0,0.0,0.0,0.0,0.0,0.0,0.0,0.0,0.0,0.0,0.0,0.0,0.0,0.0,0.0,0.0,1.1404,1.369,1.5518,1.9114,2.2089,2.3534,2.4717,2.5191,2.4687,2.455,2.3603,2.1441,2.0336,1.9358,1.8343,1.9395,2.0237,2.0751,2.2688,2.3866,2.4176,2.359,2.3354,2.3488,2.2448,2.0833,1.8735,1.7701,1.5959,1.3408,0.645,-0.009,-0.6321,-1.1043,-1.3914,-1.4966,0.0,0.0,0.0,0.0,-0.4178,0.0484,0.2698,0.4151,0.5004,0.4941,-0.0365,-0.6494,-0.5109,-0.3735,-0.3815,-0.9372,-0.8139,-0.6538,-1.2621,-1.6979,-2.013,-2.154,-2.3852,-2.5811,-2.6066,-2.6748,-2.7216,-2.6935,-2.6833,0.0,-2.5466,-2.5219,-2.5297,-2.5609,-2.5593,-2.5567,-2.5607,-2.5636,-2.5634,-2.5561,-2.5539,-2.5424,-2.5186,-2.4862,0.0,0.0,0.0,-2.4318,-2.4368,-2.4031,0.0,0.0,0.0,0.0,0.0,-1.6292,0.0,0.0,-1.276,-1.2037,0.0,0.0,0.0,0.0,0.0,0.0,0.0,0.0,0.0,0.0,0.0,0.0,0.0,0.0,0.0,0.0,0.2888,0.7388,1.1286,1.6678,2.1235,2.4029,2.4932,2.4969,2.4063,2.3845,2.2718,2.013,1.9348,1.8502,1.7373,1.8546,0.0,0.0,0.0,2.4606,2.5095,2.413,2.2996,2.1721,1.9807,1.7581,1.5081,1.4262,1.1256,0.626,-0.093,-0.7263,-1.316,-2.2515,-2.6747,-2.631,-1.5945,-1.1388,-1.0166,-0.608,-0.2382,0.0644,0.1022,0.0,0.0,0.175,-0.7598,-1.8495,-1.3539,-1.159,-1.3437,-2.4762,-2.0718,-1.5126,-2.4527,-2.6544,-2.6056,-2.5803,-2.6445,-2.7016,-2.6676,-2.7107,-2.7326,-2.6495,-2.6767,-2.6964,-2.65,-2.6045,-2.586,-2.6222,-2.5917,-2.561,-2.5522,-2.5658,-2.5684,-2.5508,-2.5421,0.0,-2.5071,-2.4701,-2.4401,-2.4186,-2.4204,-2.4091,-2.3878,-2.3942,-2.345,-2.2241,-2.1274,-2.0699,-2.056,-1.8738,-1.7695,-1.7325,-1.4276,-1.3358,0.0,0.0,0.0,0.0,0.0,0.0,0.0,0.0,0.0,0.0,0.0,0.0,0.0,0.0,0.0,-0.2187,0.0488,0.412,0.8323,1.0919,1.5288,2.3145,2.4528,2.4571,2.3909,2.2613,2.1208,1.9628,1.7981,1.6537,1.5415,1.6994,1.8785,2.0563,2.2075,2.3562,2.5187,2.2238,2.1787,2.3777,2.1629,0.0,1.1554,1.1104,0.7444,0.1103,-0.489,-1.277,-2.1461,-2.3951,-2.6246,-2.7912,-2.522,-2.2846,-2.0439,-1.6399,-1.2491,-0.893,-0.6695,-0.6082,-0.6543,-0.8,-1.2954,-1.8385,-1.8882,-1.9014,0.0,-2.2995,-2.1171,-1.9076,-2.2762,-2.4364,-2.5169,-2.5853,-2.7267,-2.8431,-2.8402,-2.8851,-2.9203,-2.9072,-2.8707,-2.8532,-2.8914,-2.7288,-2.6018,-2.6181,-2.6415,-2.631,-2.5665,-2.6203,-2.6337,-2.5506,-2.5266,-2.5079,-2.4872,-2.415,-2.3619,-2.3432,-2.3554,-2.3823,-2.4197,-2.4467,-2.4094,-2.2933,-2.2592,-2.1744,-2.0355,-1.961,-1.8796,-1.7912,-1.6425,-1.5593,0.0,0.0,0.0,0.0,0.0,0.0,0.0,0.0,0.0,0.0,0.0,-0.2009,-0.2677,0.0,-0.4658,-0.9383,-0.3764,0.1553,0.2556,0.7709,1.415,2.1566,2.1999,2.137,2.0588,1.9937,1.9071,1.7966,1.5903,1.4562,1.4405,1.4795,1.6067,1.8408,1.9516,2.0912,2.2583,1.9814,1.9071,2.0382,1.7752,1.3176,0.6913,0.4821,0.1074,-0.4187,-1.1047,-1.7341,-2.2776,-2.5297,-2.7098,-2.8005,-2.5539,-2.3434,-2.1532,-1.9321,-1.5749,-1.1621,-0.9174,-0.8315,-0.882,-1.1553,-1.4773,-1.8085,-2.0809,-2.2373,-2.3432,-2.4447,-2.4506,-2.4451,-2.5299,-2.6072,-2.6799,-2.7445,-2.8343,-2.9098,-2.926,-2.9525,-2.9688,-2.9498,-2.9362,-2.9326,-2.9432,-2.8375,-2.7512,-2.7561,-2.7524,-2.7324,-2.6856,-2.721,-2.7279,-2.6715,-2.6436,-2.606,-2.5456,-2.3959,-2.2946,-2.2669,-2.2821,-2.3195,-2.3786,-2.4271,-2.4174,-2.3327,-2.2816,-2.1909,-2.0661,-1.9721,-1.8977,-1.8458,-1.7394,-1.6599,0.0,0.0,0.0,0.0,0.0,0.0,0.0,0.3879,0.3384,0.7,0.3856,-0.0257,-0.2578,-0.4204,-0.7353,-1.4074,-0.7733,-0.2639,-0.4578,0.3414,1.1321,1.6387,1.8071,1.8534,1.7776,1.7593,1.7152,1.6235,1.4657,1.3606,1.3297,1.2273,1.2663,1.4849,1.6126,1.7468,1.8838,1.7076,1.5659,1.4515,1.1524,0.704,0.1232,-0.2455,-0.5848,-0.9186,-1.7032,-2.1169,-2.2625,-2.6184,-2.7247,-2.6294,-2.2791,-1.978,-1.74,-1.7689,-1.4728,-1.034,-0.8415,-0.8115,-0.9086,-1.2025,-1.4814,-1.7642,-2.0926,-2.3349,-2.5273,-2.6172,-2.7496,-2.8526,-2.8187,-2.8308,-2.8585,-2.899,-2.9136,-2.9269,-2.9568,-2.9702,-2.9671,-2.9289,-2.9572,-2.9794,-2.9505,-2.9385,-2.9234,-2.8975,-2.8649,-2.8349,-2.8061,-2.8217,-2.8249,-2.7922,-2.7638,-2.6995,-2.587,-2.4073,-2.2811,-2.2316,-2.2496,-2.2868,-2.3508,-2.4087,-2.42,-2.3858,-2.2935,-2.214,-2.1407,-2.0098,-1.9382,-1.9267,-1.8249,-1.7463,0.7877,0.848,0.9431,1.049,0.9751,0.854,0.0,0.5254,0.3101,0.3493,0.1606,-0.1303,-0.5209,-0.6607,-0.6939,-0.6178,-0.9096,-1.1718,-1.2467,-0.6292,-0.0524,0.2585,1.2585,1.9313,1.9471,1.7709,1.6221,1.5425,1.639,1.5223,1.1023,0.975,0.8915,0.8431,1.1579,1.3708,1.4639,1.4167,1.1783,0.7687,0.494,0.0269,-0.5994,-0.8989,-1.1234,-1.3289,-2.0315,-2.4069,-2.5343,-2.5936,-2.4265,-2.1312,-2.0983,-1.5881,-0.8995,-1.1639,-0.9858,-0.5891,-0.4822,-0.5944,-0.825,-1.0731,-1.3801,-1.7073,-1.9668,-2.2379,-2.4732,-2.5363,-2.6751,-2.7964,-2.781,-2.7946,-2.8294,-2.8874,-2.8937,-2.8953,-2.9336,-2.957,-2.9712,-2.9641,-2.9923,-3.019,-3.0327,-3.0432,-3.0178,-2.9226,-2.9238,-2.9045,-2.8193,-2.8771,-2.8916,-2.7999,-2.7494,-2.66,-2.5059,-2.4701,-2.4079,-2.2967,-2.3144,-2.3608,-2.4348,-2.4535,-2.4812,-2.5075,-2.4028,-2.326,-2.2879,-2.1889,-2.1123,-2.0647,-1.9922,-1.9046,0.8776,0.8736,0.8736,0.9323,0.8963,0.8312,0.7583,0.5893,0.5523,0.9185,0.5937,0.2426,0.2434,0.2993,0.1698,-0.3578,-0.3206,-0.3545,-0.7287,-0.5663,-0.3682,-0.2658,0.4626,0.9735,1.0087,1.0418,1.0781,1.1131,1.0091,0.9427,0.9397,0.7193,0.6493,0.786,0.9386,1.0539,1.1441,1.106,0.8417,0.3533,0.049,-0.3299,-0.7794,-1.2491,-1.5879,-1.83,-2.1904,-2.3936,-2.4716,-2.4112,-2.2311,-1.9795,-1.827,-1.3019,-0.6409,-0.7298,-0.5957,-0.3556,-0.1926,-0.3836,-0.7287,-0.9732,-1.2705,-1.5974,-1.9276,-2.2103,-2.4318,-2.5077,-2.6057,-2.6845,-2.6745,-2.7042,-2.7627,-2.8543,-2.8847,-2.9025,-2.943,-2.9613,-2.9696,-2.9696,-3.0107,-3.0463,-3.0547,-3.0635,-3.0547,-3.0096,-3.0193,-3.0146,-2.9679,-2.9893,-2.9796,-2.9022,-2.8148,-2.703,-2.5627,-2.4645,-2.3687,-2.265,-2.2697,-2.2978,-2.3506,-2.4099,-2.433,-2.4201,-2.3816,-2.3266,-2.2635,-2.2017,-2.1385,-2.0793,-2.0174,-1.9619,0.8037,0.788,0.762,0.7742,0.8276,0.8616,0.8201,0.8395,1.0037,1.5094,1.2164,0.922,1.0864,1.1807,0.942,0.0418,0.2779,0.3998,-0.0858,-0.2181,-0.2753,-0.3121,0.037,0.2711,0.2312,0.2868,0.3606,0.4426,0.3302,0.4113,0.785,0.5859,0.5557,0.7695,0.7686,0.7999,0.8709,0.8399,0.585,0.094,-0.2614,-0.5669,-0.8316,-1.3826,-1.7622,-1.9866,-2.1643,-2.2321,-2.2071,-2.1358,-1.989,-1.778,-1.5409,-1.0603,-0.4651,-0.2392,-0.0979,-0.0152,0.0152,-0.1817,-0.5058,-0.7988,-1.1243,-1.4647,-1.8614,-2.1572,-2.3708,-2.4919,-2.5705,-2.6145,-2.6161,-2.6427,-2.7047,-2.8373,-2.887,-2.9253,-2.9817,-3.0165,-3.0393,-3.0393,-3.0887,-3.1312,-3.1276,-3.1151,-3.1042,-3.1028,-3.0923,-3.0801,-3.0693,-3.0569,-3.0298,-2.9763,-2.8764,-2.7575,-2.6199,-2.4944,-2.3745,-2.2716,-2.2638,-2.2825,-2.3254,-2.3905,-2.4146,-2.3923,-2.3851,-2.3506,-2.2871,-2.2269,-2.1735,-2.1212,-2.0501,-2.0205,0.4652,0.5311,0.6041,0.6213,0.7929,0.9811,1.0781,1.3819,1.695,1.8628,1.9409,1.9269,1.7476,1.5986,1.3271,0.8005,0.6627,0.5551,0.3561,0.2684,0.1948,0.1168,0.2495,0.2548,0.0197,-0.3049,-0.5033,-0.5014,-0.1797,0.1961,0.6139,0.6283,0.6291,0.6375,0.62,0.6191,0.643,0.6379,0.4253,-0.0,-0.4223,-0.7078,-0.8704,-1.2777,-1.5169,-1.614,-1.9126,-1.9296,-1.7491,-1.7579,-1.6251,-1.3977,-1.2702,-0.8493,-0.2415,0.3682,0.5996,0.5436,0.1403,-0.0078,-0.0848,-0.5028,-0.9102,-1.3138,-1.7484,-2.0507,-2.2885,-2.4844,-2.5819,-2.6347,-2.6462,-2.6417,-2.6761,-2.8375,-2.9053,-2.9562,-3.0568,-3.1483,-3.2109,-3.2109,-3.2671,-3.3087,-3.2954,-3.2382,-3.1948,-3.1876,-3.1207,-3.0689,-3.0605,-3.0374,-3.0088,-2.9729,-2.9145,-2.8106,-2.6432,-2.5946,-2.5104,-2.3649,-2.3578,-2.3819,-2.4327,-2.4368,-2.4634,-2.5141,-2.4634,-2.4368,-2.4327,-2.3186,-2.2637,-2.2591,-2.1363,-2.1073,0.3609,0.4599,0.5853,0.7412,0.9357,1.154,1.4098,1.7149,1.9784,2.0919,2.1113,2.0696,1.9414,1.6851,1.3904,1.0922,0.8911,0.6793,0.4072,0.3504,0.307,0.2441,0.3124,0.3639,0.3579,0.241,0.184,0.2354,-0.0204,0.1319,0.847,0.722,0.5679,0.4236,0.4079,0.3471,0.2097,0.3517,0.233,-0.1458,-0.4691,-0.7895,-1.0892,-1.2246,-1.3646,-1.5163,-1.6864,-1.648,-1.4734,-1.4825,-1.3214,-1.0582,-0.8832,-0.6136,-0.2644,0.0857,0.3002,0.4166,0.4184,0.2347,-0.0467,-0.3233,-0.7198,-1.1657,-1.5819,-1.9008,-2.1602,-2.3395,-2.4008,-2.4429,-2.5494,-2.635,-2.7288,-2.8838,-2.9935,-3.0698,-3.1053,-3.1685,-3.2185,-3.2185,-3.2748,-3.3165,-3.3012,-3.2883,-3.2758,-3.2652,-3.1529,-3.0679,-3.0606,-3.0516,-3.0258,-2.9744,-2.9089,-2.8164,-2.6933,-2.5957,-2.5057,-2.4184,-2.3794,-2.3681,-2.3879,-2.4184,-2.4127,-2.3563,-2.3719,-2.3404,-2.2593,-2.2211,-2.1819,-2.1417,-2.0993,-2.0683,0.2952,0.4302,0.6299,0.865,1.0816,1.326,1.6558,1.942,2.1696,2.2797,2.2617,2.1994,2.1171,1.8124,1.5229,1.3746,1.1296,0.8845,0.6511,0.5837,0.5402,0.4775,0.4714,0.4945,0.5446,0.5962,0.6301,0.6275,0.3968,0.4427,0.8612,0.7246,0.4939,0.2097,0.202,0.0621,-0.2254,-0.0934,-0.1402,-0.3589,-0.544,-0.7555,-0.9988,-1.1095,-1.1899,-1.2487,-1.4577,-1.4474,-1.285,-1.3188,-1.1934,-0.9545,-0.7219,-0.5571,-0.4223,-0.2798,-0.0,0.3435,0.5556,0.2542,-0.238,-0.2914,-0.6627,-1.1503,-1.4714,-1.777,-2.0534,-2.2543,-2.3078,-2.3471,-2.5007,-2.6126,-2.733,-2.9173,-3.0548,-3.1538,-3.2031,-3.2613,-3.3129,-3.3222,-3.3708,-3.4047,-3.3927,-3.3719,-3.344,-3.3064,-3.2201,-3.1569,-3.1469,-3.1417,-3.1062,-3.0253,-2.9556,-2.8583,-2.7235,-2.6217,-2.5309,-2.4471,-2.4074,-2.3794,-2.3595,-2.3721,-2.3463,-2.2694,-2.2817,-2.2457,-2.1697,-2.1472,-2.1051,-2.0421,-2.0169,-1.9825,0.2724,0.462,0.736,0.9935,1.2414,1.4959,1.8112,2.0683,2.2807,2.417,2.3969,2.3345,2.2693,1.9808,1.7223,1.6327,1.3743,1.1547,1.0588,0.9519,0.8601,0.8016,0.6999,0.614,0.5679,0.7281,0.778,0.639,0.9779,1.0353,0.6776,0.6377,0.4384,0.0312,0.0078,-0.2027,-0.6295,-0.6298,-0.6298,-0.6295,-0.6089,-0.6089,-0.6366,-0.9322,-0.9821,-0.8546,-1.2413,-1.3208,-1.1816,-1.2726,-1.2238,-1.0648,-0.7947,-0.6815,-0.6754,-0.6479,-0.2434,0.3103,0.5199,0.057,-0.5981,-0.3982,-0.7438,-1.2661,-1.4213,-1.6842,-1.9836,-2.2396,-2.3125,-2.3531,-2.5148,-2.598,-2.7045,-2.9513,-3.0879,-3.2036,-3.3285,-3.4167,-3.4793,-3.5016,-3.54,-3.5651,-3.5527,-3.4812,-3.4019,-3.3237,-3.3239,-3.3247,-3.3034,-3.2895,-3.2359,-3.1197,-3.0528,-2.9384,-2.7422,-2.6853,-2.6019,-2.4645,-2.4539,-2.4265,-2.3699,-2.3111,-2.2795,-2.2749,-2.2091,-2.1732,-2.1657,-2.1046,-2.0385,-1.9658,-1.9028,-1.8679,0.5233,0.741,1.0245,1.2689,1.4716,1.6849,1.9829,2.1674,2.3002,2.3754,2.3272,2.2352,2.1214,2.0049,1.8252,1.5141,1.4414,1.315,1.0026,0.933,0.8672,0.7315,0.638,0.5902,0.5877,0.7339,0.7733,0.6397,0.8612,1.0234,1.0691,0.7876,0.5096,0.2418,0.0779,-0.2027,-0.6295,-0.6312,-0.6312,-0.6295,-0.3102,-0.3289,-0.6381,-0.8404,-0.9656,-1.0258,-1.1756,-1.2122,-1.1823,-1.2857,-1.2608,-1.1488,-1.0754,-0.9409,-0.7823,-0.7005,-0.4471,-0.12,0.0853,-0.2109,-0.6798,-0.6019,-0.9687,-1.45,-1.4728,-1.7558,-2.1124,-2.3356,-2.4002,-2.4486,-2.6754,-2.7777,-2.8735,-3.0734,-3.202,-3.288,-3.3219,-3.4037,-3.4714,-3.4774,-3.5224,-3.5566,-3.565,-3.5379,-3.5097,-3.4892,-3.4981,-3.4554,-3.317,-3.3053,-3.2783,-3.1973,-3.1497,-3.0729,-2.9513,-2.8714,-2.7781,-2.6611,-2.6208,-2.5705,-2.5091,-2.4393,-2.3814,-2.3384,-2.2596,-2.1812,-2.0939,-2.0573,-2.0055,-1.9461,-1.9057,-1.8836,0.7727,0.9807,1.2512,1.4628,1.6353,1.8149,2.0413,2.1738,2.2504,2.257,2.2112,2.1387,2.0332,1.9361,1.7969,1.5552,1.4531,1.3204,1.0966,0.9989,0.8959,0.7604,0.7277,0.6857,0.6051,0.7686,0.8328,0.7291,0.8253,0.905,0.9565,0.7529,0.5344,0.3202,0.0468,-0.2187,-0.4859,-0.5827,-0.6342,-0.6479,-0.3953,-0.4082,-0.6538,-0.755,-0.9461,-1.2146,-1.2917,-1.3919,-1.4907,-1.5489,-1.5403,-1.4741,-1.3787,-1.2369,-1.0533,-0.7934,-0.6046,-0.4378,-0.114,-0.1045,-0.2927,-0.5917,-0.9471,-1.2863,-1.4238,-1.7807,-2.1927,-2.4227,-2.5581,-2.6885,-2.9046,-3.0228,-3.1207,-3.2502,-3.3382,-3.3899,-3.3858,-3.42,-3.4578,-3.4909,-3.5254,-3.554,-3.5677,-3.559,-3.5493,-3.5493,-3.5621,-3.5315,-3.4277,-3.423,-3.3887,-3.2843,-3.2522,-3.1802,-3.032,-2.9735,-2.8827,-2.7403,-2.7042,-2.6479,-2.5646,-2.4936,-2.4284,-2.3602,-2.2844,-2.1828,-2.0496,-2.0268,-1.9657,-1.8697,-1.8501,-1.8187,1.021,1.1985,1.4381,1.6098,1.7655,1.9066,2.0433,2.1278,2.1661,2.1244,2.0689,2.0064,1.9378,1.8017,1.678,1.5948,1.4032,1.252,1.2173,1.0751,0.9493,0.8539,0.8917,0.8456,0.6428,0.8059,0.8946,0.809,0.7769,0.7459,0.7095,0.656,0.5445,0.3616,0.0079,-0.2134,-0.2679,-0.5148,-0.6507,-0.6722,-0.6491,-0.6401,-0.6347,-0.7503,-1.0141,-1.3994,-1.5358,-1.7192,-1.9178,-1.903,-1.8952,-1.8549,-1.6314,-1.4641,-1.3037,-0.8909,-0.7197,-0.6505,-0.2051,0.1518,0.2936,-0.394,-0.7396,-0.9577,-1.3144,-1.7714,-2.2269,-2.5088,-2.7566,-2.9868,-3.1707,-3.2965,-3.3904,-3.4604,-3.4936,-3.5039,-3.4849,-3.4476,-3.4421,-3.5148,-3.5388,-3.5506,-3.5655,-3.5591,-3.5515,-3.5507,-3.5601,-3.5665,-3.5603,-3.5664,-3.5156,-3.3731,-3.3582,-3.2769,-3.0766,-3.0548,-2.9729,-2.7891,-2.7734,-2.7198,-2.6042,-2.5379,-2.4676,-2.3837,-2.3192,-2.2039,-2.0449,-2.0346,-1.9508,-1.807,-1.7885,-1.7322,1.2867,1.4049,1.5719,1.7809,1.9133,2.0075,2.0794,2.1063,0.0,2.0987,1.9154,1.7308,1.6398,1.5856,1.4854,1.2624,1.2628,1.2343,1.0723,1.047,1.0217,0.9696,0.9936,0.9463,0.7639,0.8595,0.8539,0.6766,0.5042,0.6126,1.1039,0.8095,0.6146,0.5776,0.1812,-0.0415,-0.0496,-0.4826,-0.6867,-0.6715,-0.6844,-0.5952,-0.4396,-1.1177,-1.4738,-1.5674,-1.8303,-2.0158,-2.1333,-2.0468,-1.9606,-1.8549,-1.6451,-1.3754,-1.0945,-0.9222,-0.794,-0.6726,-0.3929,0.116,0.5662,0.0445,-0.4015,-0.8174,-1.2584,-1.7532,-2.241,-2.6133,-2.9123,-3.1792,-3.4085,-3.5046,-3.5615,-3.6576,-3.6666,-3.6318,-3.5539,-3.475,-3.4395,-3.5072,-3.5232,-3.5334,-3.5581,-3.5601,-3.5562,-3.5501,-3.5574,-3.5605,-3.5596,-3.5664,-3.5398,-3.4642,-3.451,-3.3989,-3.278,-3.2303,-3.1568,-3.0353,-2.9972,-2.9258,-2.8076,-2.7308,-2.6337,-2.508,-2.4372,-2.334,-2.1927,-2.1,-2.0183,-1.943,-1.8445,-1.7475,1.0926,1.3795,1.7113,1.846,1.9806,2.0603,1.9914,0.0,0.0,1.868,1.7431,1.6098,1.4492,1.324,0.0,1.2356,1.1797,1.1149,1.0523,1.065,1.0607,0.9973,1.0802,1.0433,0.7999,0.9244,0.9549,0.8002,0.5885,0.6056,0.9057,0.53,0.3028,0.2988,0.3183,0.2186,-0.0,-0.3528,-0.6437,-0.8759,-0.8398,-0.8402,-0.903,-1.4601,-1.8275,-2.0375,-2.0353,-2.0954,-2.1891,-2.1635,-2.0771,-1.9519,-1.8478,-1.5738,-1.206,-0.9965,-0.9125,-0.8448,-0.5359,-0.1425,0.1962,0.0446,-0.2647,-0.6751,-1.1858,-1.7579,-2.3365,-2.8433,-3.2221,-3.5148,-3.7007,-3.7783,-3.8099,-3.8178,-3.7253,-3.6125,-3.5276,-3.5072,-3.5095,-3.5173,-3.5538,-3.5788,-3.563,-3.5604,-3.5577,-3.5515,-3.555,-3.562,-3.565,-3.5642,-3.5473,-3.5053,-3.4812,-3.436,-3.3497,-3.2867,-3.2039,-3.0976,-3.0517,-2.9892,-2.9012,-2.8306,-2.7324,-2.5901,-2.5204,-2.3948,-2.2067,-2.1112,-2.0211,-1.9479,-1.8496,-1.7501,0.7773,1.2683,1.8149,1.8869,2.02,2.0773,1.8566,1.8923,0.0,1.6696,1.5347,1.3622,1.0432,0.9319,0.9491,0.0,1.0703,1.0082,1.047,1.0739,1.0685,0.9978,1.135,1.1117,0.8141,0.9746,1.0504,0.9394,0.6542,0.4893,0.4974,0.177,-0.0507,-0.1526,0.2722,0.3071,-0.0767,-0.3143,-0.6508,-1.0776,-1.0329,-1.1472,-1.4042,-1.7236,-2.0308,-2.3144,-2.183,-2.0948,-2.042,-2.0148,-1.902,-1.7374,-1.6905,-1.4698,-1.1602,-0.8978,-0.8769,-0.9442,-0.6352,-0.4273,-0.2748,-0.177,-0.3001,-0.6094,-1.2737,-1.8708,-2.45,-3.0709,-3.5122,-3.8201,-3.9395,-4.0011,-4.001,-3.8797,-3.6995,-3.5375,-3.4638,-3.5075,-3.5575,-3.5479,-3.6078,-3.6515,-3.6166,-3.6145,-3.6162,-3.6054,-3.6086,-3.6144,-3.6234,-3.6168,-3.6031,-3.5765,-3.5127,-3.4427,-3.3788,-3.3076,-3.2263,-3.1281,-3.0864,-3.026,-2.9451,-2.8966,-2.7951,-2.639,-2.5727,-2.4399,-2.2421,-2.1164,-2.0268,-1.9562,-1.8462,-1.7501,0.5405,1.1476,1.8134,1.9485,2.0687,2.0652,1.7124,0.0,1.8548,1.6895,1.2583,0.717,0.0732,0.2826,0.5806,0.6643,0.0,1.0066,0.9802,1.0275,1.0471,0.9961,1.135,1.1184,0.8238,0.9834,1.0529,0.9279,0.3824,0.0607,0.059,0.0172,-0.1995,-0.6273,-0.1855,-0.0624,-0.3284,-0.5579,-0.8313,-1.1499,-1.2757,-1.3981,-1.5279,-1.8491,-1.964,-1.9204,-2.2632,-2.0854,-1.5459,-1.3067,-1.0442,-0.769,-0.5712,-0.5208,-0.5375,-0.3634,-0.4907,-0.7371,-0.7009,-0.588,-0.4667,-0.5854,-0.5776,-0.7128,-1.725,-2.2151,-2.5517,-3.1936,-3.6413,-3.9471,-4.0139,-4.0518,-4.0111,-3.7523,-3.569,-3.4384,-3.3887,-3.4245,-3.496,-3.6062,-3.6844,-3.7411,-3.773,-3.7936,-3.7986,-3.7795,-3.7772,-3.7848,-3.8047,-3.7906,-3.7725,-3.7577,-3.5823,-3.4551,-3.4176,-3.3533,-3.2903,-3.24,-3.1915,-3.0982,-2.9451,-2.9361,-2.8434,-2.6534,-2.5783,-2.4951,-2.4047,-2.1768,-2.059,-2.0462,-1.8787,-1.7501,0.2542,1.0473,1.8663,2.0763,2.1931,2.1848,1.9148,1.6723,1.4068,1.0425,0.6514,0.1739,-0.4896,-0.3256,-0.0,0.2595,0.6003,0.8433,0.8733,0.9532,0.9929,0.9708,1.0461,1.0198,0.8173,0.8896,0.9623,1.0052,-0.1497,-0.9643,-1.2227,-0.9951,-0.8074,-0.7111,-0.6637,-0.5507,-0.3638,-0.8661,-1.218,-1.423,-1.5271,-1.7012,-1.9313,-1.9966,-2.0013,-1.9478,-1.8386,-1.4565,-0.8999,-0.6658,-0.445,-0.2161,0.1469,0.2734,0.2127,-0.0089,-0.2403,-0.4814,-0.854,-0.9506,-0.9441,-1.1333,-1.2542,-1.4111,-1.9035,-2.2839,-2.6952,-3.3898,-3.7691,-3.983,-4.0424,-3.8999,-3.6858,-3.4498,-3.2888,-3.2045,-3.2514,-3.3757,-3.5136,-3.6399,-3.7404,-3.807,-3.8116,-3.8222,-3.8254,-3.8144,-3.8147,-3.82,-3.8296,-3.8196,-3.8049,-3.782,-3.6814,-3.5832,-3.5043,-3.4338,-3.3535,-3.2553,-3.2057,-3.1232,-2.9978,-2.9585,-2.845,-2.6433,-2.5741,-2.4781,-2.3603,-2.1592,-2.059,-2.0537,-1.9053,-1.7802,-0.2823,0.51,1.3183,1.4712,1.5657,1.5571,1.3261,1.0638,0.7221,0.2057,-0.0082,-0.2588,-0.7722,-0.7248,-0.4559,0.0,0.39,0.6733,0.7954,0.8927,0.9449,0.9384,0.9771,0.9647,0.8548,0.9032,0.9679,1.0205,-0.2296,-1.1696,-1.5634,-1.4287,-1.2068,-0.9152,-1.0043,-0.8982,-0.5733,-1.1112,-1.4537,-1.5794,-1.7632,-1.9716,-2.1912,-2.1161,-2.0225,-1.9034,-1.475,-0.9114,-0.2708,-0.1357,0.1111,0.4279,0.6346,0.6275,0.4559,0.1247,-0.1866,-0.5147,-0.9908,-1.2251,-1.3328,-1.561,-1.7769,-1.9885,-2.1707,-2.4538,-2.8471,-3.4775,-3.7988,-3.9565,-3.954,-3.6917,-3.3772,-3.1547,-3.0443,-3.0144,-3.1006,-3.3193,-3.5356,-3.6783,-3.7978,-3.8739,-3.8762,-3.8818,-3.8887,-3.8926,-3.8987,-3.9026,-3.9091,-3.9003,-3.8805,-3.845,-3.8059,-3.7299,-3.5975,-3.5302,-3.4452,-3.3259,-3.2862,-3.2072,-3.0686,-3.0242,-2.9024,-2.6913,-2.6091,-2.5118,-2.3895,-2.1823,-2.0882,-2.0962,-1.9203,-1.7788,-1.1455,-0.6201,-0.0505,-0.1344,-0.09,-0.1008,-0.3891,-0.2423,-0.2019,-0.7529,-0.6726,-0.562,-0.7575,-0.8495,-0.6916,-0.0632,0.2745,0.5334,0.7588,0.8555,0.9024,0.9029,0.9647,0.9973,0.9549,1.0877,1.1163,0.9648,0.3502,-0.1561,-0.4656,-0.9329,-1.2469,-1.3815,-1.1728,-1.0567,-1.0519,-1.2741,-1.4496,-1.5658,-1.9822,-2.1922,-2.2027,-2.1912,-2.0177,-1.691,-1.3188,-0.6014,0.2985,0.2527,0.6747,1.3084,0.8798,0.4192,0.0089,-0.0,-0.3993,-0.9639,-1.1089,-1.3283,-1.5708,-1.7935,-2.0091,-2.2548,-2.6139,-2.8152,-3.0017,-3.4177,-3.7103,-3.8649,-3.7128,-3.4512,-3.1612,-2.9119,-2.8647,-2.8962,-2.9531,-3.2507,-3.5599,-3.7255,-3.8507,-3.9445,-3.9979,-4.0141,-4.0287,-4.0623,-4.066,-4.0742,-4.0957,-4.08,-4.0468,-3.9947,-3.9698,-3.8804,-3.6845,-3.6445,-3.5866,-3.4836,-3.4765,-3.3766,-3.1581,-3.1502,-3.0468,-2.8297,-2.7059,-2.6222,-2.588,-2.2752,-2.1487,-2.1956,-1.9054,-1.736,-0.8843,-0.4981,-0.1433,0.1495,0.1957,0.154,0.0945,-0.149,-0.3975,-0.5259,-0.7377,-0.8953,-0.887,-0.7664,-0.5326,-0.1217,0.3491,0.0,0.7399,0.8783,0.9418,0.855,0.809,0.7816,0.7854,0.8329,0.8367,0.7919,0.1412,-0.4295,-0.8492,-1.0154,-1.151,-1.279,-1.1348,-1.0564,-1.0611,-1.2838,-1.4885,-1.6629,-1.8731,-2.014,-2.0834,-1.9344,-1.7321,-1.4821,-1.1196,-0.4823,0.2902,0.0605,0.3718,0.9415,0.3393,0.0176,-0.1494,-0.3828,-0.6509,-0.9913,-1.673,-1.8877,-1.913,-2.2094,-2.3921,-2.5334,-2.6823,-2.8203,-3.0247,-3.4864,-3.6928,-3.7212,-3.5062,-3.2904,-3.0514,-2.7678,-2.7391,-2.8206,-2.9726,-3.2636,-3.5604,-3.7721,-3.8701,-3.9317,-3.9811,-4.0068,-4.0234,-4.035,-4.0667,-4.0897,-4.0876,-4.0812,-4.063,-4.0268,-3.9872,-3.8952,-3.7377,-3.718,-3.6448,-3.4889,-3.437,-3.3332,-3.155,-3.0519,-2.9193,-2.7547,-2.6584,-2.5748,-2.5167,-2.2889,-2.0994,-1.9406,-1.6996,-1.5469,0.0,-0.8537,-0.7371,-0.5442,-0.5199,-0.5328,-0.4824,-0.6999,-0.8574,-0.6733,-0.8281,-0.9403,-0.7403,-0.5779,-0.3676,-0.0339,0.3936,0.701,0.7475,0.8462,0.8815,0.7966,0.8128,0.7477,0.5583,0.804,0.8966,0.7227,0.0443,-0.5298,-0.9035,-0.9744,-1.0265,-1.095,-1.0351,-1.0269,-1.1047,-1.2535,-1.4421,-1.6605,-1.8065,-1.8982,-1.9341,-1.7993,-1.6495,-1.4873,-1.1771,-0.6383,0.0,-0.3191,-0.0683,0.4477,-0.136,-0.5211,-0.7733,-0.9895,-1.1086,-1.2428,-1.9004,-2.1261,-2.1607,-2.4376,-2.609,-2.7271,-2.8278,-2.9108,-3.051,-3.4442,-3.5604,-3.5201,-3.3386,-3.1477,-2.932,-2.688,-2.7038,-2.8249,-2.9952,-3.2934,-3.5937,-3.7848,-3.8438,-3.8785,-3.9212,-3.9407,-3.9624,-3.9902,-4.0374,-4.0747,-4.0867,-4.0805,-4.0665,-4.0424,-4.0038,-3.9322,-3.8192,-3.7851,-3.7105,-3.5794,-3.4883,-3.3621,-3.1861,-3.0616,-2.9189,-2.7455,-2.6667,-2.5794,-2.4878,-2.2562,-2.0232,-1.7874,-1.5637,-1.42,0.0,-1.5131,-1.6357,-1.8807,-1.8967,-1.8372,-1.7805,-1.6564,0.0,-1.0945,-0.922,-0.731,-0.3756,-0.308,-0.185,0.1649,0.4141,0.6131,0.7563,0.7601,0.7485,0.7504,0.8862,0.7946,0.3023,0.8806,1.0992,0.6671,-0.0,-0.4872,-0.7122,-0.8273,-0.8894,-0.8995,-0.8995,-0.9951,-1.1763,-1.1958,-1.3309,-1.5771,-1.7616,-1.8215,-1.7668,-1.7495,-1.7125,-1.6483,-1.4257,-1.0202,-0.5258,-0.8291,-0.6314,-0.1775,-0.6065,-1.1696,-1.7274,-1.736,-1.7125,-1.6988,-1.9129,-2.1233,-2.3449,-2.551,-2.7138,-2.8571,-3.0255,-3.0541,-3.0754,-3.3053,-3.3335,-3.2756,-3.2044,-3.0308,-2.8288,-2.6768,-2.7563,-2.9003,-3.0152,-3.3419,-3.6462,-3.7666,-3.7893,-3.8011,-3.8308,-3.8334,-3.8571,-3.9309,-3.9809,-4.032,-4.0875,-4.079,-4.0595,-4.0432,-4.0216,-3.9797,-3.9115,-3.8363,-3.7702,-3.7155,-3.595,-3.4345,-3.2307,-3.1498,-2.9943,-2.7657,-2.7,-2.6051,-2.4791,-2.1803,-1.9349,-1.7253,-1.4975,-1.3243,-0.9055,0.0,-1.365,-1.4663,-1.4956,-1.472,0.0,-1.2612,-1.1531,0.0,0.0,-0.4481,-0.1857,-0.0224,0.1128,0.2379,0.4462,0.6102,0.6676,0.7274,0.7802,0.8276,0.4838,0.2011,0.079,0.0619,0.0089,-0.098,-0.4279,-0.7054,-0.8832,-0.8903,-0.9121,-0.9696,-1.0332,-1.078,-1.1222,-1.1206,-1.2867,-1.6357,-1.5762,-1.5977,-1.6824,-1.6045,-1.556,-1.537,-1.4854,-1.2756,-1.0052,-1.304,-1.2705,-1.059,-1.4806,-1.7702,-1.9614,-2.1393,-2.1879,-2.205,-2.4161,-2.5721,-2.7151,-2.9135,-2.9834,-2.9948,-3.0352,-3.0057,-2.9901,-3.1159,-3.1456,-3.1235,-3.0632,-3.0042,-2.9313,-2.7709,-2.9039,-3.0804,-3.135,-3.3884,-3.6462,-3.7666,-3.7893,-3.7928,-3.7993,-3.7899,-3.7986,-3.8571,-3.9006,-3.9547,-4.0287,-4.0337,-4.0395,-4.0614,-4.0079,-3.9477,-3.8928,-3.8508,-3.7747,-3.6439,-3.4647,-3.3026,-3.1611,-2.9624,-2.7906,-2.6642,-2.5071,-2.3731,-2.2702,-2.1131,-1.9349,-1.7253,-1.4102,-1.2118,-0.6634,-0.9649,-1.2478,-1.3284,-1.3482,-1.3182,-1.1974,0.0,0.0,0.0,0.0,-0.2143,0.0822,0.216,0.3068,0.3869,0.5039,0.6023,0.663,0.7474,0.7114,0.4794,0.1829,-0.089,-0.3032,-0.4467,-0.5191,-0.5191,-0.7068,-0.8621,-0.9687,-1.0333,-1.1004,-1.1489,-1.2574,-1.3081,-1.2991,-1.2305,-1.3231,-1.5821,-1.5055,-1.5219,-1.6034,-1.4767,-1.5028,-1.6176,-1.4969,-1.4922,-1.5864,-1.7815,-1.8602,-1.8896,-2.2118,-2.3358,-2.3536,-2.4725,-2.4925,-2.4823,-2.6864,-2.8518,-3.0007,-3.1309,-3.13,-3.0731,-3.0731,-3.0241,-2.9718,-3.0324,-3.0317,-3.0173,-3.0227,-3.0015,-2.9512,-2.8704,-2.9513,-3.0833,-3.1932,-3.3764,-3.5735,-3.7659,-3.788,-3.7835,-3.8143,-3.8111,-3.8213,-3.8653,-3.935,-3.9989,-4.063,-4.1017,-4.1349,-4.1591,-4.1208,-4.0519,-3.947,-3.8513,-3.7164,-3.5307,-3.2905,-3.0926,-2.9547,-2.7499,-2.5677,-2.4294,-2.2826,-2.1576,-2.0564,-1.9109,-1.7851,-1.6672,-1.3349,-1.1488,-0.5383,-0.8448,-1.1497,-1.2474,-1.2534,-1.2047,-1.0876,0.0,0.0,0.0,0.0,0.0,0.0,0.3912,0.0,0.5265,0.5258,0.535,0.5901,0.6538,0.5178,0.0172,-0.1054,-0.3025,-0.7088,-0.7535,-0.762,-0.762,-0.8958,-0.993,-1.0372,-1.2026,-1.3188,-1.3627,-1.5,-1.5672,-1.5545,-1.443,-1.4372,-1.5451,-1.5404,-1.5261,-1.5173,-1.4216,-1.4984,-1.7016,-1.521,-1.6919,-2.1096,-2.2188,-2.3949,-2.6237,-2.8058,-2.8511,-2.8149,-2.811,-2.7495,-2.7113,-2.9011,-3.0855,-3.2372,-3.2821,-3.2294,-3.1389,-3.1254,-3.0558,-2.9833,-3.0038,-2.9771,-2.95,-3.0214,-2.9925,-2.9381,-2.9381,-2.9443,-2.9965,-3.1637,-3.2844,-3.435,-3.6936,-3.7351,-3.752,-3.8287,-3.8474,-3.8599,-3.8977,-3.9894,-4.0685,-4.1146,-4.1879,-4.2423,-4.2584,-4.2366,-4.1537,-3.9823,-3.8053,-3.5984,-3.3478,-3.0902,-2.8706,-2.6815,-2.5129,-2.3447,-2.1759,-2.0644,-1.9585,-1.8674,-1.7004,-1.6078,-1.582,-1.271,-1.1206,-0.5396,-0.7175,-0.8451,-0.8658,-0.8818,-0.8594,-0.7284,0.0,0.0,0.0,0.0,0.0,0.0,0.4204,0.4521,0.4913,0.3845,0.2427,0.0984,0.0788,0.0491,-0.0257,-0.4903,-0.8288,-0.9024,-0.9689,-1.0101,-1.0101,-1.0534,-1.1274,-1.228,-1.2843,-1.3719,-1.5015,-1.6309,-1.7091,-1.7294,-1.6723,-1.6806,-1.7265,-1.6963,-1.5879,-1.4201,-1.4981,-1.5095,-1.4543,-1.6351,-1.9126,-2.2519,-2.4801,-2.7767,-3.1121,-3.1828,-3.2419,-3.2723,-3.199,-3.1685,-3.1816,-3.36,-3.4412,-3.4667,-3.4756,-3.3693,-3.2249,-3.1462,-3.0558,-2.9767,-2.982,-2.9454,-2.9033,-2.9442,-2.9521,-2.9381,-2.9381,-2.9267,-2.9138,-2.9346,-3.0429,-3.181,-3.3643,-3.5191,-3.6522,-3.752,-3.7865,-3.815,-3.8616,-3.9276,-3.9965,-4.0708,-4.1349,-4.1833,-4.2082,-4.1418,-4.0136,-3.7994,-3.6302,-3.3702,-2.9838,-2.8851,-2.705,-2.4172,-2.2442,-2.1342,-2.1036,-1.9383,-1.8489,-1.8311,-1.7085,-1.5965,-1.479,-1.2428,-1.0734,-0.3926,-0.5381,-0.6526,-0.6188,-0.747,-0.8338,-0.666,0.0,0.0,0.0,0.0,0.0,0.0,0.4487,0.4198,0.3232,0.1697,-0.0376,-0.3394,-0.5081,-0.5843,-0.5313,-0.8487,-1.0609,-1.013,-1.094,-1.1423,-1.1423,-1.2924,-1.4182,-1.4878,-1.5828,-1.6808,-1.7613,-1.8154,-1.8862,-1.967,-1.9454,-1.883,-1.7692,-1.752,-1.6593,-1.4949,-1.4854,-1.5222,-1.5967,-1.7101,-2.0369,-2.5249,-2.7588,-3.0821,-3.449,-3.526,-3.513,-3.4442,-3.3596,-3.3542,-3.4153,-3.5401,-3.5904,-3.5761,-3.4771,-3.3611,-3.2321,-3.0908,-3.0139,-2.9792,-2.9792,-2.9603,-2.9403,-2.9576,-2.9648,-2.9648,-2.9648,-2.8798,-2.825,-2.9043,-2.9431,-3.0378,-3.2903,-3.4932,-3.6644,-3.8013,-3.874,-3.9154,-3.9392,-3.9881,-4.0528,-4.1202,-4.1969,-4.2514,-4.263,-4.1886,-4.0381,-3.777,-3.534,-3.204,-2.7708,-2.6248,-2.4332,-2.1699,-2.0852,-1.952,-1.7528,-1.67,-1.5655,-1.4397,-1.4016,-1.3549,-1.2905,-1.1507,-1.0596,-0.2242,-0.333,-0.4352,-0.4073,0.0,-0.8085,-0.5752,-0.5404,0.0,0.0,0.0,0.0,0.0,0.4775,0.3893,0.1421,-0.0517,-0.3005,-0.6606,-0.9072,-1.0323,-0.9781,-1.1039,-1.1807,-1.1466,-1.2354,-1.3084,-1.3413,-1.5602,-1.6969,-1.7077,-1.8767,-1.9778,-1.9892,-2.0433,-2.1141,-2.2036,-2.2406,-2.1167,-1.8503,-1.8234,-1.7304,-1.571,-1.5121,-1.5853,-1.7702,-1.8616,-2.2412,-2.8096,-3.0387,-3.358,-3.7089,-3.7799,-3.7006,-3.5461,-3.472,-3.5031,-3.5904,-3.649,-3.6674,-3.6276,-3.4427,-3.3128,-3.196,-3.0279,-2.9792,-2.9792,-2.9792,-2.9792,-2.9792,-2.9792,-2.9792,-2.9792,-2.9792,-2.8619,-2.7819,-2.8926,-2.9049,-2.9744,-3.2595,-3.4936,-3.6955,-3.8603,-3.9558,-4.007,-4.007,-4.0577,-4.1133,-4.1707,-4.2569,-4.3066,-4.3066,-4.2039,-3.9926,-3.6374,-3.326,-2.9882,-2.6151,-2.4132,-2.2215,-2.012,-1.9495,-1.7858,-1.4777,-1.421,-1.3066,-1.1336,-1.1502,-1.1492,-1.122,-1.0032,-0.9011,-0.0866,-0.1005,-0.1136,-0.1836,-0.44,0.0,-0.285,-0.3413,0.0,-0.4455,0.0,0.0,0.4347,0.5145,0.4121,0.0367,-0.2617,-0.5308,-0.7939,-0.9474,-1.0452,-1.0504,-1.1563,-1.2662,-1.3646,-1.4754,-1.5846,-1.683,-1.822,-1.8754,-1.8296,-2.0507,-2.1551,-2.1033,-2.313,-2.426,-2.4345,-2.5565,-2.4395,-2.1025,-1.9943,-1.808,-1.5732,-1.6908,-1.7402,-1.7682,-2.1987,-2.6223,-3.0328,-3.3163,-3.6117,-3.8728,-3.8783,-3.7873,-3.6461,-3.64,-3.6888,-3.7616,-3.7674,-3.7109,-3.6153,-3.4398,-3.2638,-3.1106,-3.0139,-2.9792,-2.9792,-2.9792,-2.9792,-2.9792,-2.9792,-2.9792,-2.9792,-2.9792,-2.8912,-2.8036,-2.8152,-2.8844,-2.9997,-3.1842,-3.444,-3.6955,-3.8603,-3.9558,-4.007,-4.007,-4.0577,-4.1133,-4.1707,-4.2324,-4.2732,-4.2732,-4.0761,-3.7193,-3.1664,-2.8635,-2.636,-2.5009,-2.3402,-2.1824,-2.0045,-1.8113,-1.6487,-1.5081,-1.3104,-1.1991,-1.1803,-1.1818,-1.1458,-1.0609,-0.7648,-0.4365,0.0268,0.06,0.0674,0.0496,0.0194,0.0,0.0,-0.1012,-0.1346,-0.1302,0.1374,0.3974,0.4744,0.3177,0.1045,-0.1235,-0.4876,-0.8213,-1.015,-1.1723,-1.2925,-1.3587,-1.4719,-1.5584,-1.5996,-1.759,-1.8779,-1.9191,-2.1978,-2.3608,-2.3409,-2.4694,-2.5341,-2.5109,-2.524,-2.5822,-2.7101,-2.7112,-2.7079,-2.7018,-2.4041,-2.1808,-2.0162,-2.066,-2.1549,-2.2928,-2.5902,-2.9598,-3.376,-3.606,-3.8253,-4.0001,-3.8712,-3.7847,-3.7338,-3.7338,-3.7515,-3.7879,-3.8302,-3.7562,-3.6122,-3.4398,-3.2638,-3.1044,-3.0075,-2.9792,-2.9792,-2.9792,-2.9275,-2.8937,-2.9624,-2.9792,-2.9792,-2.9792,-2.8937,-2.8231,-2.8802,-2.9656,-3.0771,-3.261,-3.5178,-3.7492,-3.8712,-3.9139,-3.9368,-3.9368,-3.9543,-3.9884,-4.047,-4.1171,-4.1411,-4.0965,-3.7238,-3.3229,-2.9302,-2.6816,-2.4596,-2.2775,-2.2048,-2.0801,-1.854,-1.6938,-1.4784,-1.198,-1.1118,-1.0288,-0.9509,-0.9509,-0.9327,-0.8858,-0.4386,-0.1494,0.0869,0.137,0.146,0.1679,0.0,0.0,0.1227,0.1506,0.2192,0.2348,0.4246,0.5309,0.3591,0.1247,-0.1114,-0.3389,-0.7569,-1.1101,-1.259,-1.4083,-1.5292,-1.6052,-1.7082,-1.8,-1.8664,-2.0417,-2.1871,-2.2461,-2.5791,-2.769,-2.7485,-2.8797,-2.9516,-2.9374,-2.8862,-2.9218,-3.0561,-3.0059,-3.0527,-3.1832,-2.9189,-2.6701,-2.4655,-2.4655,-2.5822,-2.7888,-3.0046,-3.3086,-3.6594,-3.8208,-3.9412,-4.0101,-3.8437,-3.7632,-3.7456,-3.769,-3.7632,-3.7515,-3.8302,-3.743,-3.5702,-3.3975,-3.2595,-3.1389,-3.0139,-2.9998,-3.0216,-2.9856,-2.8937,-2.8347,-2.9534,-2.9534,-2.9275,-2.9275,-2.9147,-2.9294,-3.0175,-3.1275,-3.2638,-3.4416,-3.6482,-3.8179,-3.8767,-3.8908,-3.8799,-3.858,-3.8525,-3.8859,-3.9716,-4.0246,-3.9914,-3.8175,-3.4179,-3.0225,-2.6655,-2.503,-2.3201,-2.0836,-2.0395,-1.9165,-1.6979,-1.5779,-1.3527,-1.0096,-0.9608,-0.8924,-0.8048,-0.8048,-0.7962,-0.7885,-0.3407,0.01,0.0784,0.1305,0.1219,0.0,0.0,0.0,0.2458,0.4043,0.5563,0.6193,0.6026,0.4538,0.0386,-0.0451,-0.1924,-0.622,-1.0721,-1.4009,-1.5287,-1.6541,-1.7365,-1.7401,-1.8285,-1.9599,-2.1574,-2.3299,-2.5087,-2.6973,-2.9378,-3.0502,-2.9938,-3.2606,-3.3891,-3.3345,-3.4336,-3.4906,-3.497,-3.497,-3.497,-3.4955,-3.497,-3.2738,-2.8686,-2.8686,-2.9719,-3.1623,-3.4407,-3.6708,-3.8487,-3.9429,-3.9443,-3.8854,-3.8092,-3.7338,-3.6737,-3.7515,-3.7263,-3.6722,-3.7515,-3.6628,-3.4916,-3.3185,-3.2593,-3.2249,-3.0355,-3.0482,-3.1044,-3.0075,-2.9015,-2.8347,-2.9456,-2.8937,-2.8096,-2.8084,-2.9705,-3.1422,-3.2173,-3.3835,-3.5639,-3.7181,-3.8251,-3.8908,-3.8908,-3.8854,-3.8619,-3.7863,-3.7748,-3.8253,-3.9615,-3.9767,-3.8294,-3.4515,-3.2013,-2.8553,-2.3458,-2.2978,-2.1938,-1.967,-1.8319,-1.7095,-1.5725,-1.4456,-1.2555,-0.9998,-0.8726,-0.7952,-0.7972,-0.7972,-0.7989,-0.7918,-0.5236,0.03,-0.2456,-0.205,0.0,-0.3101,0.0,0.0,0.0,0.0414,0.0,0.0,0.621,0.3984,-0.3183,-0.6076,-0.8121,-1.0784,-1.2561,-1.4858,-1.8171,-1.9091,-2.0217,-2.2296,-2.3277,-2.4201,-2.5358,-2.7292,-2.8581,-2.8816,-3.1459,-3.2829,-3.2344,-3.4589,-3.5837,-3.5711,-3.651,-3.7393,-3.833,-3.7801,-3.7997,-3.8923,-3.8385,-3.6315,-3.3064,-3.3064,-3.3912,-3.5566,-3.699,-3.8738,-4.0607,-4.1049,-4.0565,-3.9443,-3.827,-3.7338,-3.66,-3.6843,-3.6783,-3.66,-3.6843,-3.6214,-3.4996,-3.3969,-3.3171,-3.2536,-3.1974,-3.1462,-3.1106,-3.0833,-2.9512,-2.8176,-2.8518,-2.8347,-2.8481,-2.9935,-3.0719,-3.1775,-3.3879,-3.5244,-3.652,-3.8172,-3.8696,-3.8696,-3.8035,-3.7042,-3.5983,-3.5145,-3.5558,-3.6582,-3.8165,-3.7292,-3.5599,-3.2997,-2.9525,-2.6231,-2.3219,-2.1505,-1.9926,-1.8319,-1.787,-1.6706,-1.4456,-1.3154,-1.1244,-0.8627,-0.8237,-0.8041,-0.8048,-0.7965,-0.7056,-0.5135,-0.4321,-0.1705,-0.5987,-0.6436,0.0,-0.8105,-0.9044,-0.9627,-0.9246,0.0,0.0,0.3258,0.4438,0.2689,-0.4871,-0.9125,-1.211,-1.4066,-1.5061,-1.7073,-2.1291,-2.2071,-2.3037,-2.5435,-2.6608,-2.7656,-2.8796,-3.0843,-3.208,-3.1911,-3.4099,-3.5086,-3.4303,-3.6405,-3.7481,-3.7209,-3.8389,-3.9408,-4.0246,-3.998,-4.0268,-4.1059,-4.0626,-3.9429,-3.7647,-3.7295,-3.7867,-3.9041,-3.9562,-4.0464,-4.1573,-4.1208,-4.0212,-3.89,-3.7758,-3.6874,-3.6228,-3.6492,-3.6384,-3.6228,-3.6492,-3.6026,-3.518,-3.4283,-3.3891,-3.3616,-3.282,-3.2464,-3.2177,-3.1389,-2.9999,-2.8682,-2.8743,-2.8426,-2.8548,-3.0139,-3.1127,-3.2409,-3.472,-3.5889,-3.6839,-3.8213,-3.8181,-3.7467,-3.615,-3.4857,-3.3696,-3.2807,-3.3797,-3.516,-3.6552,-3.4783,-3.2569,-3.0395,-2.6997,-2.3774,-2.1123,-1.9563,-1.8226,-1.7037,-1.6943,-1.5772,-1.3149,-1.2318,-1.0681,-0.8038,-0.8038,-0.8045,-0.7952,-0.7965,-0.6645,-0.4016,-0.4016,-0.2909,-0.9638,0.0,0.0,-1.3472,-1.4956,0.0,-1.4554,-1.052,-0.5808,-0.1297,0.1142,0.0605,-0.5561,-1.05,-1.429,-1.6294,-1.7961,-2.0399,-2.4574,-2.5122,-2.5756,-2.7357,-2.8828,-3.0309,-3.1768,-3.3925,-3.5266,-3.5457,-3.6672,-3.6864,-3.5728,-3.7716,-3.8639,-3.81,-3.9953,-4.0995,-4.1087,-4.1621,-4.1895,-4.1961,-4.1961,-4.1937,-4.1835,-4.1014,-4.1031,-4.1707,-4.1768,-4.175,-4.1499,-4.0309,-3.8954,-3.7632,-3.6919,-3.6165,-3.5554,-3.6275,-3.6054,-3.5619,-3.6275,-3.6054,-3.5359,-3.4394,-3.4773,-3.5148,-3.3394,-3.3394,-3.3602,-3.1815,-3.0504,-2.9642,-2.9741,-2.9028,-2.8469,-2.9399,-3.1135,-3.3059,-3.472,-3.5824,-3.6706,-3.7408,-3.6732,-3.544,-3.3576,-3.2472,-3.1697,-3.1116,-3.2484,-3.3893,-3.4691,-3.2361,-2.9627,-2.7245,-2.4493,-2.1487,-1.7956,-1.7591,-1.7037,-1.5825,-1.5832,-1.4663,-1.2042,-1.1945,-1.0681,-0.8038,-0.8038,-0.8048,-0.7969,-0.8172,-0.6948,-0.4616,-0.4714,-0.4307,-1.2324,-1.4755,0.0,0.0,-2.0763,-2.1853,-2.0676,-1.7625,-1.2763,-0.4829,-0.2467,-0.3636,-0.9782,-1.3251,-1.5861,-1.815,-2.0555,-2.3526,-2.726,-2.7751,-2.857,-3.0887,-3.2278,-3.3486,-3.4479,-3.6197,-3.6976,-3.6239,-3.6316,-3.6191,-3.5643,-3.7144,-3.8142,-3.8517,-4.0552,-4.1835,-4.2302,-4.244,-4.2714,-4.3142,-4.3142,-4.2903,-4.248,-4.1349,-4.0943,-4.1133,-4.1578,-4.1198,-4.0212,-3.9917,-3.8652,-3.6843,-3.6676,-3.6165,-3.5504,-3.5668,-3.5619,-3.5504,-3.5668,-3.5604,-3.5439,-3.5213,-3.5344,-3.5439,-3.5001,-3.4476,-3.3739,-3.2593,-3.1583,-3.0644,-2.9985,-2.9624,-2.9651,-3.0631,-3.1715,-3.2848,-3.3907,-3.4851,-3.5495,-3.5518,-3.4149,-3.2665,-3.1473,-3.059,-3.0299,-3.104,-3.1483,-3.1807,-3.1915,-3.0634,-2.8558,-2.5349,-2.2955,-2.0462,-1.7956,-1.6763,-1.6109,-1.5825,-1.5832,-1.4663,-1.2042,-1.1945,-1.0681,-0.8038,-0.8038,-0.8041,-0.8045,-0.9359,-0.9756,-0.924,-0.9916,-1.0105,0.0,0.0,0.0,-2.5089,0.0,-2.5811,-2.4869,-2.2559,-1.8902,-1.2614,-0.9299,-0.9143,-1.4601,-1.7993,-2.0429,-2.1941,-2.4493,-2.7237,-2.9973,-3.0089,-3.0723,-3.3111,-3.3886,-3.4714,-3.6118,-3.7026,-3.736,-3.6843,-3.6435,-3.6027,-3.5548,-3.7177,-3.8326,-3.859,-4.0961,-4.2382,-4.2711,-4.2711,-4.2976,-4.3479,-4.294,-4.2386,-4.1853,-4.149,-4.1313,-4.1313,-4.1358,-4.0787,-3.9767,-3.9113,-3.7939,-3.6538,-3.6228,-3.5846,-3.5554,-3.5894,-3.6006,-3.6054,-3.6492,-3.66,-3.6538,-3.6117,-3.6006,-3.5943,-3.5619,-3.4773,-3.3808,-3.289,-3.1888,-3.097,-3.0075,-2.9792,-2.9934,-3.0419,-3.1267,-3.215,-3.3003,-3.3611,-3.3772,-3.3109,-3.1881,-3.0342,-2.8781,-2.8264,-2.8385,-2.9464,-2.9668,-2.9668,-2.9542,-2.8155,-2.6095,-2.3137,-2.1307,-1.9141,-1.6149,-1.5222,-1.4854,-1.4854,-1.4854,-1.4268,-1.2915,-1.2813,-1.1356,-0.8038,-0.8627,-0.892,-0.892,-1.0511,-1.1212,-1.1208,-1.2344,-1.2441,0.0,0.0,-2.5983,-2.9448,-2.9215,0.0,-2.7144,-2.5268,-2.2874,-2.005,-1.6076,-1.4387,-1.8647,-2.2065,-2.4734,-2.604,-2.8324,-3.06,-3.2425,-3.2075,-3.2376,-3.4203,-3.4449,-3.5105,-3.6716,-3.7155,-3.7248,-3.7058,-3.6689,-3.6205,-3.5596,-3.7482,-3.8667,-3.8804,-4.1321,-4.2643,-4.2711,-4.2711,-4.2864,-4.3196,-4.2144,-4.1402,-4.0903,-4.1313,-4.1508,-4.1464,-4.0839,-4.0116,-3.9358,-3.8084,-3.71,-3.6337,-3.5718,-3.5504,-3.5619,-3.6337,-3.6615,-3.6737,-3.7381,-3.7573,-3.7456,-3.6676,-3.6384,-3.6275,-3.5668,-3.4773,-3.3808,-3.289,-3.1888,-3.097,-3.0075,-2.9792,-2.9792,-2.9792,-3.0419,-3.1106,-3.1715,-3.192,-3.1734,-3.0475,-2.9414,-2.8076,-2.627,-2.6135,-2.6427,-2.7198,-2.7417,-2.7359,-2.7105,-2.5344,-2.3325,-2.1069,-1.9802,-1.7725,-1.4154,-1.407,-1.4166,-1.3878,-1.407,-1.4166,-1.3878,-1.4058,-1.2598,-0.9103,-0.9895,-1.0288,-1.0288,-1.1653,-1.2237,-1.2237,-1.3814,-1.3909,0.0,0.0,-2.5565,0.0,-2.7997,-2.7328,0.0,-2.3946,-2.1723,-2.061,-1.8532,-1.7502,-1.9477,-2.14,-2.4134,-2.8514,-3.055,-3.2162,-3.3795,-3.3625,-3.3403,-3.3689,-3.4618,-3.5368,-3.5606,-3.6953,-3.747,-3.6563,-3.6724,-3.665,-3.6298,-3.7474,-3.8762,-4.0001,-4.1558,-4.2485,-4.2693,-4.2711,-4.248,-4.2021,-4.134,-4.0995,-4.0903,-4.0497,-4.0353,-4.0286,-3.9492,-3.8783,-3.8003,-3.7128,-3.6337,-3.5619,-3.5569,-3.5504,-3.5619,-3.6337,-3.6615,-3.6615,-3.6722,-3.6737,-3.6615,-3.5894,-3.5668,-3.5619,-3.5504,-3.4773,-3.3808,-3.289,-3.1888,-3.097,-3.0075,-2.9792,-2.9792,-2.9792,-2.9856,-2.9741,-2.8863,-2.9334,-2.9374,-2.7463,-2.6168,-2.5335,-2.5009,-2.5031,-2.4999,-2.5029,-2.5018,-2.4703,-2.3811,-2.2476,-2.1078,-1.9827,-1.8672,-1.6821,-1.416,-1.4949,-1.5045,-1.3974,-1.4949,-1.5045,-1.3974,-1.4893,-1.4665,-1.3019,-1.2109,-1.1658,-1.1658,-1.3006,-1.3584,-1.368,-1.6055,-1.7102,-1.9438,-2.2424,-2.5292,0.0,-2.7122,-2.6342,-2.5116,-2.3612,-2.1932,-2.0246,-1.9965,-2.0425,-2.1776,-2.3867,-2.6769,-3.1056,-3.2857,-3.4008,-3.4793,-3.3759,-3.2882,-3.2882,-3.3029,-3.3512,-3.4575,-3.5788,-3.6601,-3.6825,-3.6988,-3.7122,-3.723,-3.8149,-3.9085,-4.0045,-4.0793,-4.1415,-4.1971,-4.1362,-4.0999,-4.0861,-4.0874,-4.0733,-4.0449,-4.0204,-3.9833,-3.9437,-3.9016,-3.823,-3.7084,-3.6737,-3.6165,-3.5504,-3.5504,-3.5504,-3.5619,-3.6337,-3.6615,-3.6661,-3.71,-3.7263,-3.716,-3.6337,-3.6117,-3.6054,-3.5619,-3.4409,-3.3101,-3.2749,-3.1549,-3.0355,-2.9934,-2.9792,-2.9792,-2.9792,-2.9792,-2.9287,-2.7545,-2.7968,-2.8104,-2.5942,-2.4628,-2.3867,-2.3806,-2.3786,-2.3295,-2.182,-2.2206,-2.1983,-2.0142,-2.0112,-1.9802,-1.8588,-1.736,-1.5853,-1.4064,-1.3686,-1.3962,-1.4893,-1.5475,-1.6135,-1.6965,-1.7517,-1.7594,-1.7008,-1.5685,-1.5018,-1.5018,-1.6383,-1.6699,-1.6062,-1.784,-1.7948,0.0,0.0,-2.4002,-2.5694,-2.563,-2.4854,0.0,-2.2649,-2.1419,-1.9976,-2.0655,-2.2054,-2.3747,-2.604,-2.8951,-3.2638,-3.4203,-3.4919,-3.4829,-3.3365,-3.2144,-3.186,-3.1513,-3.1925,-3.3517,-3.4793,-3.5975,-3.6943,-3.7377,-3.7667,-3.7911,-3.8608,-3.9283,-3.9882,-3.9979,-4.0383,-4.1184,-4.0307,-3.9949,-4.0121,-4.0497,-4.0497,-4.007,-4.007,-3.9558,-3.8635,-3.8635,-3.7742,-3.6245,-3.6011,-3.5627,-3.5133,-3.5133,-3.5279,-3.5619,-3.6337,-3.6615,-3.6676,-3.7279,-3.7515,-3.7338,-3.6569,-3.6337,-3.6228,-3.5668,-3.4124,-3.2593,-3.2593,-3.1267,-2.9792,-2.9792,-2.9792,-2.9792,-2.9792,-2.9792,-2.9209,-2.6976,-2.6707,-2.6262,-2.4245,-2.325,-2.2561,-2.2124,-2.1813,-2.0864,-1.8624,-1.9109,-1.906,-1.725,-1.7972,-1.8311,-1.7777,-1.6525,-1.5184,-1.3968,-1.3578,-1.4118,-1.6053,-1.67,-1.8003,-2.0236,-2.0596,-2.0775,-2.0775,-1.9808,-1.8886,-1.8011,-1.8999,-1.8864,-1.7692,-1.8956,-1.8488,0.0,-2.0224,0.0,-2.2541,-2.2817,-2.2585,-2.227,-2.0464,-1.9137,-2.0298,-2.059,-2.1549,-2.439,-2.6482,-2.8936,-3.2531,-3.3713,-3.3949,-3.3375,-3.2743,-3.186,-3.0585,-3.0954,-3.1611,-3.2292,-3.4635,-3.6149,-3.6399,-3.7791,-3.8433,-3.7946,-3.8419,-3.9061,-3.9863,-3.9434,-3.9641,-4.0642,-4.0277,-4.0087,-4.007,-4.0121,-4.0121,-4.007,-4.007,-3.9279,-3.7863,-3.7863,-3.6886,-3.519,-3.4441,-3.4081,-3.4095,-3.4095,-3.4691,-3.5619,-3.6337,-3.6615,-3.6615,-3.6676,-3.6661,-3.6554,-3.5782,-3.5554,-3.5554,-3.5504,-3.4124,-3.2593,-3.2593,-3.1267,-2.9792,-2.9792,-2.9792,-2.9792,-2.9792,-2.9792,-2.9209,-2.6976,-2.4808,-2.3018,-2.1738,-2.1471,-2.1025,-1.9852,-1.8676,-1.7342,-1.6074,-1.59,-1.59,-1.5812,-1.5873,-1.6386,-1.7598,-1.6567,-1.5235,-1.3974,-1.6062,-1.7416,-1.7323,-1.9552,-2.1368,-2.2553,-2.371,-2.4345,-2.4345,-2.4364,-2.2737,-1.9397,-1.9488,-1.8864,-1.7692,-1.8956,-1.9397,0.0,0.0,0.0,-2.1323,-2.108,-2.0478,-1.9861,-1.912,-1.8712,-1.919,-1.9984,-2.1487,-2.446,-2.6518,-2.8815,-3.2021,-3.2997,-3.3347,-3.3218,-3.1818,-3.0705,-3.036,-3.0029,-3.0469,-3.2144,-3.4197,-3.5953,-3.7072,-3.8277,-3.8868,-3.8685,-3.8839,-3.9013,-3.9129,-3.831,-3.8183,-3.8849,-3.9231,-3.9614,-4.007,-4.007,-4.007,-4.007,-4.007,-3.9279,-3.7748,-3.7168,-3.5966,-3.4359,-3.3504,-3.3101,-3.3101,-3.3101,-3.3671,-3.4595,-3.4817,-3.537,-3.5894,-3.5894,-3.5894,-3.5831,-3.5554,-3.5504,-3.5359,-3.4758,-3.3602,-3.2464,-3.1888,-3.0771,-2.9792,-2.9792,-2.9792,-2.9624,-2.8858,-2.8199,-2.7302,-2.5714,-2.4221,-2.2765,-2.1569,-2.1293,-2.0657,-1.8688,-1.7238,-1.5604,-1.3555,-1.3945,-1.4232,-1.3369,-1.4746,-1.6015,-1.6386,-1.5324,-1.5032,-1.6257,-1.7101,-1.8806,-2.1717,-2.3378,-2.4868,-2.6039,-2.6481,-2.6467,-2.5804,-2.5859,-2.4925,-2.293,-2.2189,-2.1221,-2.0034,-2.0486,-2.0215,-1.7737,0.0,0.0,0.0,-1.9163,-1.8033,-1.81,-1.7636,-1.7429,-1.8249,-1.9432,-2.1237,-2.415,-2.611,-2.8249,-3.1091,-3.2093,-3.2403,-3.2206,-3.0728,-2.9703,-2.9846,-2.9524,-3.0172,-3.2376,-3.4306,-3.6058,-3.7592,-3.8499,-3.8961,-3.8961,-3.8961,-3.8789,-3.8446,-3.7846,-3.7638,-3.7746,-3.8577,-3.9242,-3.9715,-3.9969,-4.007,-4.007,-3.9833,-3.8995,-3.7748,-3.6168,-3.4786,-3.3449,-3.2522,-3.2105,-3.2105,-3.2105,-3.2678,-3.3518,-3.3518,-3.3973,-3.4558,-3.4558,-3.4558,-3.4558,-3.4905,-3.4773,-3.4476,-3.4109,-3.3101,-3.2033,-3.1389,-3.0558,-2.9792,-2.9792,-2.9534,-2.8949,-2.7855,-2.6427,-2.5262,-2.4872,-2.3877,-2.2765,-2.1569,-2.0935,-2.0034,-1.8056,-1.6236,-1.4512,-1.2807,-1.3295,-1.359,-1.2716,-1.4465,-1.5832,-1.5832,-1.5419,-1.6048,-1.8087,-1.9175,-2.1429,-2.5239,-2.6886,-2.8234,-2.9465,-2.9478,-2.9052,-2.8128,-2.7716,-2.6989,-2.5859,-2.4372,-2.2814,-2.1293,-2.1719,-2.1831,0.0,0.0,0.0,0.0,-1.6928,-1.5302,-1.6991,-1.5816,-1.5062,-1.744,-1.8982,-2.0694,-2.356,-2.5286,-2.7125,-2.98,-3.0843,-3.1021,-3.0185,-2.9444,-2.8993,-2.9018,-2.9596,-3.0847,-3.2914,-3.4947,-3.658,-3.7841,-3.8415,-3.8689,-3.8689,-3.8707,-3.8465,-3.7911,-3.8144,-3.8006,-3.7439,-3.8414,-3.8971,-3.9005,-3.9732,-4.007,-4.007,-3.9262,-3.8469,-3.7616,-3.4937,-3.3322,-3.2464,-3.1536,-3.118,-3.118,-3.118,-3.1742,-3.2522,-3.2522,-3.2593,-3.2593,-3.2593,-3.2593,-3.2749,-3.3671,-3.331,-3.2749,-3.3671,-3.2664,-3.118,-3.118,-3.0482,-2.9792,-2.9792,-2.8858,-2.7763,-2.6637,-2.4639,-2.3248,-2.4426,-2.379,-2.2677,-2.1569,-2.0395,-1.9131,-1.7963,-1.5684,-1.3968,-1.3968,-1.3872,-1.3878,-1.3878,-1.5045,-1.5832,-1.5832,-1.703,-1.828,-1.9356,-2.2582,-2.5415,-2.7625,-2.9909,-3.1548,-3.2593,-3.2664,-3.2177,-3.1241,-3.0176,-2.909,-2.8164,-2.5942,-2.3654,-2.1462,-2.265,-2.424,-1.7803,0.0,0.0,0.0,0.0,0.0,-1.4084,-1.3859,-1.4138,-1.5984,-1.7722,-1.9877,-2.3011,-2.4741,-2.6356,-2.8654,-2.958,-2.9764,-2.897,-2.8554,-2.8531,-2.9209,-2.9688,-3.1019,-3.3697,-3.527,-3.67,-3.8164,-3.8715,-3.8999,-3.8999,-3.8803,-3.8285,-3.7433,-3.7461,-3.7085,-3.6229,-3.6954,-3.7668,-3.8284,-3.893,-3.9558,-4.007,-3.9262,-3.8109,-3.6687,-3.4661,-3.2975,-3.1536,-3.0558,-3.0216,-3.0216,-3.0216,-3.0771,-3.1609,-3.1609,-3.2033,-3.2593,-3.2593,-3.2593,-3.2664,-3.289,-3.282,-3.2522,-3.2105,-3.1609,-3.1044,-3.0343,-2.9998,-2.9624,-2.8767,-2.7117,-2.5311,-2.4183,-2.2766,-2.1706,-2.2142,-2.2003,-2.1658,-2.1382,-2.1025,-2.0395,-1.9222,-1.6865,-1.5164,-1.5164,-1.4429,-1.3878,-1.3878,-1.5792,-1.7131,-1.7131,-1.8975,-2.0632,-2.1891,-2.4962,-2.7703,-2.9909,-3.2014,-3.3268,-3.3602,-3.3602,-3.3171,-3.2249,-3.192,-3.1209,-3.0188,-2.7359,-2.5703,-2.5094,-2.6068,-2.7676,-1.8449,-1.816,0.0,-1.591,0.0,0.0,-1.2292,-1.221,-1.2615,-1.4278,-1.6311,-1.8667,-2.1642,-2.3546,-2.5344,-2.7382,-2.7773,-2.7814,-2.7859,-2.7227,-2.7201,-2.8333,-2.945,-3.1165,-3.3955,-3.5624,-3.7126,-3.8431,-3.877,-3.8933,-3.8933,-3.8773,-3.8318,-3.7506,-3.7285,-3.6702,-3.5585,-3.6075,-3.6684,-3.7529,-3.8203,-3.8927,-3.9542,-3.8388,-3.7148,-3.578,-3.3607,-3.1852,-3.0441,-2.9459,-2.9365,-2.9792,-2.9792,-3.0139,-3.0633,-3.0633,-3.0983,-3.1415,-3.1415,-3.1415,-3.1549,-3.2321,-3.2046,-3.1476,-3.1683,-3.1254,-3.0393,-2.9419,-2.8402,-2.7359,-2.6289,-2.4535,-2.2881,-2.1831,-2.0587,-1.9957,-2.1096,-2.0935,-2.0845,-2.1854,-2.1658,-2.1114,-2.0395,-1.8624,-1.7137,-1.6598,-1.631,-1.6035,-1.5589,-1.7602,-1.9157,-1.9157,-2.1139,-2.3196,-2.4787,-2.7502,-2.9971,-3.2113,-3.3779,-3.4624,-3.4624,-3.4624,-3.4177,-3.3171,-3.3171,-3.2707,-3.1635,-2.9426,-2.8361,-2.8361,-2.8938,-3.0286,-1.8768,-1.766,0.0,-1.4785,-1.2589,0.0,-1.105,-1.0715,-1.0756,-1.2436,-1.4825,-1.7289,-1.9788,-2.1914,-2.3935,-2.5897,-2.5745,-2.5767,-2.6769,-2.584,-2.5575,-2.6982,-2.8868,-3.1099,-3.37,-3.5859,-3.7471,-3.8499,-3.8652,-3.8707,-3.8707,-3.8627,-3.8382,-3.7825,-3.736,-3.6516,-3.5206,-3.551,-3.5992,-3.6584,-3.7423,-3.8163,-3.8739,-3.7042,-3.5843,-3.4901,-3.2154,-3.0353,-2.9232,-2.8287,-2.8597,-2.9624,-2.9624,-2.9702,-2.9792,-2.9792,-2.9792,-2.9792,-2.9792,-2.9869,-3.0216,-3.1901,-3.1415,-3.0432,-3.1974,-3.1267,-2.9677,-2.8426,-2.6337,-2.4196,-2.3229,-2.1882,-2.0454,-1.9563,-1.8503,-1.8319,-2.0576,-2.0395,-2.0395,-2.2843,-2.2296,-2.156,-2.164,-2.0567,-1.9314,-1.8234,-1.9031,-1.9298,-1.8218,-2.0103,-2.1553,-2.1623,-2.3785,-2.5946,-2.7873,-3.0059,-3.2126,-3.3876,-3.492,-3.5504,-3.5504,-3.5504,-3.5067,-3.4177,-3.4177,-3.3754,-3.289,-3.178,-3.1289,-3.1481,-3.1481,-3.2526,-1.9284,-1.8029,-1.6783,-1.3604,-1.152,0.0,-0.9001,-0.8937,-0.9384,-1.0694,-1.3058,-1.5697,-1.8121,-2.0145,-2.1913,-2.3385,-2.425,-2.4946,-2.5645,-2.536,-2.5488,-2.6461,-2.8199,-3.0348,-3.2874,-3.5,-3.6646,-3.7638,-3.8322,-3.8707,-3.8707,-3.83,-3.7843,-3.736,-3.6843,-3.5735,-3.3955,-3.5053,-3.546,-3.5126,-3.6361,-3.7329,-3.7962,-3.6242,-3.4951,-3.3879,-3.1056,-2.9257,-2.8299,-2.7279,-2.7452,-2.8426,-2.8426,-2.9015,-2.9792,-2.9792,-2.9792,-2.9792,-2.9792,-3.0279,-3.097,-3.1315,-3.1756,-3.1974,-3.1609,-3.1254,-3.0506,-2.8627,-2.5782,-2.3219,-2.3065,-2.0685,-1.8295,-1.8141,-1.787,-1.8141,-1.9588,-2.0395,-2.164,-2.4018,-2.3531,-2.3018,-2.3922,-2.2337,-2.0845,-2.0657,-2.0676,-2.0713,-2.0445,-2.2428,-2.4198,-2.5002,-2.715,-2.9068,-3.0248,-3.2256,-3.3559,-3.3959,-3.492,-3.5504,-3.5504,-3.5504,-3.5439,-3.5213,-3.5213,-3.5133,-3.492,-3.3157,-3.2989,-3.4413,-3.4413,-3.5353,-1.9504,-1.7259,-1.5257,-1.2054,-1.012,0.0,0.0,-0.7936,-0.8613,-1.008,-1.2326,-1.4849,-1.7509,-1.9608,-2.1412,-2.2996,-2.3673,-2.414,-2.4413,-2.4915,-2.557,-2.6356,-2.8121,-3.01,-3.2218,-3.4199,-3.5984,-3.7411,-3.7643,-3.7881,-3.8281,-3.7808,-3.7323,-3.6803,-3.6539,-3.5681,-3.4137,-3.4759,-3.4969,-3.4723,-3.5726,-3.6126,-3.598,-3.4973,-3.3443,-3.1527,-2.9592,-2.7945,-2.6438,-2.6472,-2.6801,-2.7371,-2.7936,-2.8767,-2.9792,-2.9792,-3.0075,-3.0482,-3.0482,-3.1119,-3.196,-3.2464,-3.2593,-3.2536,-3.2033,-3.0428,-2.8682,-2.7591,-2.4343,-2.1239,-2.1239,-1.9007,-1.6763,-1.6763,-1.7225,-1.8048,-1.9222,-2.0486,-2.2161,-2.5104,-2.4713,-2.4296,-2.5462,-2.4671,-2.369,-2.3046,-2.3815,-2.4251,-2.3693,-2.6032,-2.8011,-2.8521,-3.0035,-3.1416,-3.2425,-3.3407,-3.4245,-3.4691,-3.5213,-3.5504,-3.5504,-3.5504,-3.5668,-3.6054,-3.6415,-3.6662,-3.6662,-3.5649,-3.5413,-3.5902,-3.6307,-3.6946,-1.908,-1.6051,-1.3441,-1.0409,-0.8845,-0.7783,0.0,0.0,0.0,-0.9923,-1.1995,-1.4418,-1.7269,-1.9266,-2.1068,-2.2723,-2.326,-2.3397,-2.3281,-2.4426,-2.541,-2.5845,-2.7735,-2.9651,-3.1297,-3.3247,-3.5181,-3.7118,-3.6495,-3.6438,-3.7413,-3.6927,-3.6531,-3.6215,-3.6088,-3.5593,-3.4624,-3.4576,-3.4644,-3.4654,-3.5054,-3.4818,-3.417,-3.3537,-3.2,-2.977,-2.8366,-2.6942,-2.5452,-2.5964,-2.6389,-2.6883,-2.7763,-2.8912,-3.0075,-3.0075,-3.062,-3.1462,-3.1462,-3.2105,-3.2961,-3.3739,-3.338,-3.2593,-3.2593,-2.977,-2.6472,-2.6191,-2.2969,-1.9405,-1.9222,-1.7483,-1.5832,-1.5832,-1.6936,-1.8319,-1.9314,-2.0666,-2.261,-2.587,-2.5797,-2.5462,-2.6637,-2.6789,-2.6393,-2.5362,-2.7059,-2.8162,-2.7137,-2.9568,-3.1376,-3.1594,-3.2324,-3.3241,-3.4177,-3.4312,-3.4624,-3.5439,-3.5504,-3.5504,-3.5504,-3.5619,-3.6054,-3.6783,-3.7456,-3.7822,-3.7822,-3.7921,-3.7674,-3.7068,-3.7732,-3.8092,-1.726,-1.4811,-1.2789,-0.9065,-0.8236,-0.7877,-0.6089,0.0,-0.8205,-0.9436,0.0,-1.4449,-1.7008,0.0,0.0,-2.0661,-2.2228,-2.3096,-2.25,-2.3713,-2.4464,-2.3914,-2.6042,-2.8172,-2.98,-3.1711,-3.3845,-3.6266,-3.4673,-3.4307,-3.5847,-3.5106,-3.4899,-3.5518,-3.5044,-3.4719,-3.4576,-3.4576,-3.4594,-3.4585,-3.379,-3.3666,-3.4074,-3.2318,-3.1288,-3.0856,-2.7968,-2.7035,-2.7591,-2.5786,-2.6119,-2.7936,-2.8016,-2.9332,-3.1044,-3.1044,-3.1609,-3.2464,-3.2464,-3.3031,-3.3876,-3.3959,-3.338,-3.2593,-3.2593,-2.977,-2.6284,-2.5155,-2.2233,-1.9222,-1.8141,-1.685,-1.5832,-1.5832,-1.7576,-1.9314,-1.9488,-2.1311,-2.3627,-2.6058,-2.64,-2.6637,-2.7763,-2.7841,-2.769,-2.7587,-2.9287,-3.0598,-3.0485,-3.1621,-3.2721,-3.3573,-3.3794,-3.4259,-3.5213,-3.5359,-3.5359,-3.5504,-3.5504,-3.5504,-3.5504,-3.6117,-3.6859,-3.7632,-3.7748,-3.7822,-3.7822,-3.8469,-3.8745,-3.8619,-3.8745,-3.9156,-1.5649,-1.2586,-1.0053,-0.7968,-0.7017,-0.629,-0.4746,-0.6019,-0.799,-0.9604,0.0,0.0,0.0,0.0,0.0,0.0,-2.2421,-2.2801,-2.1827,-2.26,-2.3314,-2.354,-2.5044,-2.6932,-2.9122,-3.0476,-3.195,-3.3741,-3.2402,-3.2302,-3.4081,-3.365,-3.3815,-3.4918,-3.4703,-3.4783,-3.5207,-3.4783,-3.4329,-3.3725,-3.3275,-3.2649,-3.1847,-3.1374,-3.024,-2.8433,-2.7752,-2.6942,-2.6191,-2.6603,-2.7256,-2.8176,-2.8858,-2.9922,-3.118,-3.118,-3.2177,-3.338,-3.338,-3.4041,-3.4758,-3.4177,-3.338,-3.2365,-3.1135,-2.8778,-2.6119,-2.4248,-2.1655,-1.9222,-1.8048,-1.6763,-1.5832,-1.5832,-1.7662,-1.9497,-1.9497,-2.14,-2.38,-2.6058,-2.6907,-2.7829,-2.9616,-2.9821,-2.9783,-2.9783,-3.1476,-3.2722,-3.2722,-3.3642,-3.4409,-3.4839,-3.4839,-3.5052,-3.5439,-3.5504,-3.5504,-3.5504,-3.5894,-3.6165,-3.6165,-3.7306,-3.8101,-3.8414,-3.8887,-3.9119,-3.9119,-3.9454,-3.961,-3.961,-3.961,-3.9782,-1.4299,-1.097,-0.7986,-0.6244,-0.4854,-0.3847,-0.3568,-0.6058,-0.8816,-1.0483,-1.3641,0.0,0.0,0.0,-2.2048,-2.2603,0.0,-2.2854,-2.1412,-2.1683,-2.2202,-2.2739,-2.4163,-2.6095,-2.8535,-2.8959,-2.9715,-3.1319,-2.9962,-2.9997,-3.2118,-3.1913,-3.2465,-3.4006,-3.4235,-3.464,-3.5316,-3.464,-3.3822,-3.2894,-3.2537,-3.1636,-3.0276,-3.0647,-2.9576,-2.7464,-2.7936,-2.7348,-2.6284,-2.7602,-2.8255,-2.8688,-2.9456,-3.0343,-3.1254,-3.1462,-3.2749,-3.4394,-3.4394,-3.4691,-3.4986,-3.4245,-3.3003,-3.1429,-2.9529,-2.737,-2.5072,-2.2679,-2.0515,-1.868,-1.7498,-1.648,-1.5832,-1.5832,-1.7662,-1.9497,-1.9497,-2.1649,-2.4211,-2.6427,-2.7658,-2.904,-3.1201,-3.1815,-3.196,-3.196,-3.338,-3.4394,-3.4394,-3.5052,-3.5504,-3.5504,-3.5504,-3.5504,-3.5504,-3.5668,-3.591,-3.6148,-3.6631,-3.7024,-3.7247,-3.8342,-3.9016,-3.9193,-3.9782,-4.007,-4.007,-4.007,-4.007,-4.007,-4.007,-4.007,-1.3251,-1.0502,-0.7436,-0.3563,-0.1379,-0.0716,-0.2845,-0.7349,-1.132,-1.2171,-1.5228,-1.8499,-2.1151,-2.2286,-2.3022,-2.3571,-2.3979,0.0,0.0,-2.1211,-2.1182,-2.0835,-2.3247,-2.5693,-2.7741,-2.6892,-2.7188,-2.9511,-2.735,-2.7148,-2.9856,-2.9768,-3.0535,-3.2576,-3.3281,-3.3937,-3.4624,-3.3987,-3.3184,-3.2302,-3.1239,-3.0581,-3.0388,-3.0036,-2.9792,-2.9624,-2.8597,-2.8688,-2.9546,-2.8518,-2.8767,-2.9792,-2.9792,-3.0343,-3.1315,-3.2249,-3.3754,-3.5424,-3.5424,-3.4839,-3.4027,-3.4027,-3.1996,-2.9337,-2.8144,-2.5596,-2.2611,-2.0159,-1.8609,-1.7505,-1.6197,-1.5832,-1.5832,-1.5832,-1.7662,-1.9497,-1.9497,-2.223,-2.5335,-2.745,-2.8717,-3.0138,-3.2208,-3.331,-3.3876,-3.3876,-3.4773,-3.5424,-3.5424,-3.5504,-3.5504,-3.5504,-3.5504,-3.5504,-3.5504,-3.6165,-3.6919,-3.7706,-3.7764,-3.8092,-3.8799,-3.8854,-3.9262,-4.007,-4.007,-4.007,-4.007,-4.007,-4.007,-4.007,-4.007,-4.007,-1.0988,-0.7586,-0.472,-0.4921,-0.4939,-0.5365,-0.6822,-1.1472,-1.5275,-1.4467,-1.8279,-2.1811,-2.2216,-2.3528,-2.4365,-2.3803,-2.3938,-2.3379,0.0,-2.0787,-2.0705,-2.0858,-2.2411,-2.3927,-2.5185,-2.5108,-2.5628,-2.7236,-2.6214,-2.6459,-2.8619,-2.9252,-3.0516,-3.256,-3.3265,-3.3937,-3.4576,-3.3351,-3.2466,-3.1888,-3.0512,-2.9908,-3.0024,-2.9845,-2.9365,-2.8688,-2.9028,-2.9028,-2.8688,-2.9106,-2.9456,-2.9792,-2.9792,-3.0343,-3.1315,-3.2249,-3.3394,-3.461,-3.5279,-3.4839,-3.3876,-3.331,-3.1416,-2.9015,-2.6436,-2.3808,-2.1165,-1.8875,-1.7338,-1.6324,-1.5906,-1.5832,-1.5832,-1.5832,-1.7662,-1.9654,-2.039,-2.2805,-2.5659,-2.8415,-3.0183,-3.1881,-3.396,-3.5121,-3.5325,-3.4148,-3.4839,-3.5504,-3.5504,-3.5504,-3.5504,-3.5504,-3.5504,-3.5733,-3.6165,-3.6919,-3.7515,-3.7748,-3.8246,-3.8635,-3.8908,-3.9437,-3.9833,-4.007,-4.007,-4.007,-4.007,-4.007,-4.007,-4.007,-4.007,-4.007,-0.8837,-0.5867,-0.3801,-0.5591,-0.8394,-1.0467,-0.9766,-1.4716,-1.9168,-1.792,-2.077,-2.3806,-2.5082,-2.5553,-2.5627,0.0,0.0,-2.3602,0.0,-2.0748,-2.0649,-2.0959,-2.1773,-2.2614,-2.3475,-2.3675,-2.4349,-2.5687,-2.508,-2.5573,-2.7694,-2.8511,-2.98,-3.1845,-3.2796,-3.3308,-3.3435,-3.2423,-3.1249,-2.9772,-2.9135,-2.8753,-2.8706,-2.9012,-2.9028,-2.8688,-2.9028,-2.8767,-2.8176,-2.8858,-2.9197,-2.9197,-2.9624,-3.0139,-3.0846,-3.1756,-3.2678,-3.3602,-3.4259,-3.3837,-3.2876,-3.182,-2.9771,-2.7208,-2.4209,-2.1701,-1.9422,-1.7554,-1.6445,-1.5772,-1.5818,-1.5832,-1.5832,-1.5832,-1.7662,-1.9827,-2.0882,-2.3589,-2.6805,-2.9833,-3.1938,-3.3825,-3.5795,-3.6369,-3.6213,-3.5115,-3.5234,-3.5504,-3.5504,-3.5504,-3.5504,-3.5504,-3.5504,-3.5894,-3.6919,-3.7515,-3.8035,-3.8596,-3.9032,-3.9315,-3.9315,-3.9833,-4.007,-4.007,-4.007,-4.007,-4.007,-4.007,-4.007,-4.0121,-4.0286,-4.0368]},{"header":{"parameterUnit":"m.s-1","parameterCategory":1,"la1":30.6,"la2":29.2853,"lo1":-89.7004,"lo2":-87.6739,"dy":0.0162,"dx":0.0183,"nx":112,"ny":82,"refTime":"2024-07-19T06:00:00:Z","depth":0,"parameterNumber":3,"parameterNumberName":"V-component_of_WINDS"},"data":[0.0,0.0,0.0,0.0,0.0,0.0,0.0,0.0,0.0,0.0,0.0,0.0,0.0,0.0,0.0,0.0,0.0,0.0,0.0,0.0,0.0,0.0,0.0,0.0,0.0,0.0,0.0,0.0,0.0,0.0,0.0,0.0,0.0,0.0,0.0,0.0,0.0,0.0,0.0,0.0,0.0,0.0,0.0,0.0,0.0,0.0,0.0,0.0,0.0,0.0,0.0,0.0,0.0,0.0,0.0,0.0,0.0,0.0,0.0,0.0,0.0,0.0,0.0,0.0,0.0,0.0,0.0,0.0,0.0,0.0,0.0,0.0,0.0,0.0,0.0,0.0,0.0,0.0,0.0,0.0,0.0,0.0,0.0,0.0,0.0,0.0,0.0,0.0,0.0,0.0,0.0953,0.104,0.1505,0.2049,0.2664,0.3767,0.4867,0.5956,0.0,0.0,0.0,0.0,0.0,0.0,0.0,0.0,0.0,0.0,0.0,0.0,0.0,0.0,0.0,0.0,0.0,0.0,0.0,0.0,0.0,0.0,0.0,0.0,0.0,0.0,0.0,0.0,0.0,0.0,0.0,0.0,0.0,0.0,0.0,0.0,0.0,0.0,0.0,0.0,0.0,0.0,0.0,0.0,0.0,0.0,0.0,0.0,0.0,0.0,0.0,0.0,0.0,0.0,0.0,0.0,0.0,0.0,0.0,0.0,0.0,0.0,0.0,0.0,0.0,0.0,0.0,0.0,0.0,0.0,0.0,0.0,0.0,0.0,0.0,0.0,0.0,0.0,0.0,0.0,0.0,0.0,0.0,0.0,0.0,0.0,0.0,0.0,0.0,0.0,0.0,0.0,0.0,0.0,0.0,0.0,0.0,0.0,0.0,0.0,0.0,0.0,0.0,0.0,0.0895,0.094,0.1457,0.2051,0.2672,0.3727,0.504,0.6482,0.0,0.0,0.0,0.0,0.0,0.0,0.0,0.0,0.0,0.0,0.0,0.0,0.0,0.0,0.0,0.0,0.0,0.0,0.0,0.0,0.0,0.0,0.0,0.0,0.0,0.0,0.0,0.0,0.0,0.0,0.0,0.0,0.0,0.0,0.0,0.0,0.0,0.0,0.0,0.0,0.0,0.0,0.0,0.0,0.0,0.0,0.0,0.0,0.0,0.0,0.0,0.0,0.0,0.0,0.0,0.0,0.0,0.0,0.0,0.0,0.0,0.0,0.0,0.0,0.0,0.0,0.0,0.0,0.0,0.0,0.0,0.0,0.0,0.0,0.0,0.0,0.0,0.0,0.0,0.0,0.0,0.0,0.0,0.0,0.0,0.0,0.0,0.0,0.0,0.0,0.0,0.0,0.0,0.0,0.0,0.0,0.0,0.0,0.0,0.0,0.0,0.0,0.0,0.1203,0.1053,0.0486,0.1518,0.2273,0.2228,0.3551,0.4774,0.5631,0.5812,0.0,0.0,0.0,0.0,0.0,0.0,0.0,0.0,0.0,0.0,0.0,0.0,0.0,0.0,0.0,0.0,0.0,0.0,0.0,0.0,0.0,0.0,0.0,0.0,0.0,0.0,0.0,0.0,0.0,0.0,0.0,0.0,0.0,0.0,0.0,0.0,0.0,0.0,0.0,0.0,0.0,0.0,0.0,0.0,0.0,0.0,0.0,0.0,0.0,0.0,0.0,0.0,0.0,0.0,0.0,0.0,0.0,0.0,0.0,0.0,0.0,0.0,0.0,0.0,0.0,0.0,0.0,0.0,0.0,0.0,0.0,0.0,0.0,0.0,0.0,0.0,0.0,0.0,0.0,0.0,0.0,0.0,0.0,0.0,0.0,0.0,0.0,0.0,0.0,0.0,0.0,0.0,0.0,0.0,0.0,0.0,0.0,0.0,0.0,0.0,0.0,0.0,0.0838,0.113,0.031,0.1697,0.2495,0.2051,0.344,0.452,0.5031,0.5273,0.0,0.0,0.0,0.0,0.0,0.0,0.0,0.0,0.0,0.0,0.0,0.0,0.0,0.0,0.0,0.0,0.0,0.0,0.0,0.0,0.0,0.0,0.0,0.0,0.0,0.0,0.0,0.0,0.0,0.0,0.0,0.0,0.0,0.0,0.0,0.0,0.0,0.0,0.0,0.0,0.0,0.0,0.0,0.0,0.0,0.0,0.0,0.0,0.0,0.0,0.0,0.0,0.0,0.0,0.0,0.0,0.0,0.0,0.0,0.0,0.0,0.0,0.0,0.0,0.0,0.0,0.0,0.0,0.0,0.0,0.0,0.0,0.0,0.0,0.0,0.0,0.0,0.0,0.0,0.0,0.0,0.0,0.0,0.0,0.0,0.0,0.0,0.0,0.0,0.0,0.0,0.0,0.0,0.0,0.0,0.0,0.0,0.0,0.0,0.0,0.0,0.0,0.055,0.0926,0.0843,0.1962,0.2672,0.263,0.3493,0.4524,0.5738,0.5218,0.0,0.0,0.0,0.0,0.0,0.0,0.0,0.0,0.0,0.0,0.0,0.0,0.0,0.0,0.0,0.0,0.0,0.0,0.0,0.0,0.0,0.0,0.0,0.0,0.0,0.0,0.0,0.0,0.0,0.0,0.0,0.0,0.0,0.0,0.0,0.0,0.0,0.0,0.0,0.0,0.0,0.0,0.0,0.0,0.0,0.0,0.0,0.0,0.0,0.0,0.0,0.0,0.0,0.0,0.0,0.0,0.0,0.0,0.0,0.0,0.0,0.0,0.0,0.0,0.0,0.0,0.0,0.0,0.0,0.0,0.0,0.0,0.0,0.0,0.0,0.0,0.0,0.0,0.0,0.0,0.0,0.0,0.0,0.0,0.0,0.0,0.0,0.0,0.0,0.0,0.0,0.0,0.0,0.0,0.0,0.0,0.0,0.0,0.0,0.0,0.0,0.0,0.044,0.0768,0.04,0.1739,0.2541,0.2184,0.3101,0.4186,0.5337,0.0,0.0,0.0,0.0,0.0,0.0,0.0,0.0,0.0,0.0,0.0,0.0,0.0,0.0,0.0,0.0,0.0,0.0,0.0,0.0,0.0,0.0,0.0,0.0,0.0,0.0,0.0,0.0,0.0,0.0,0.0,0.0,0.0,0.0,0.0,0.0,0.0,0.0,0.0,0.0,0.0,0.0,0.0,0.0,0.0,0.0,0.0,0.0,0.0,0.0,0.0,0.0,0.0,0.0,0.0,0.0,0.0,0.0,0.0,0.0,0.0,0.0,0.0,0.0,0.0,0.0,0.0,0.0,0.0,0.0,0.0,0.0,0.0,0.0,0.0,0.0,0.0,0.0,0.0,0.0,0.0,0.0,0.0,0.0,0.0,0.0,0.0,0.0,0.0,0.0,0.0,0.0,0.0,0.0,0.0,0.0,0.0,0.0,0.0,0.0,0.0,0.0,-0.0664,0.0,0.0288,0.0045,0.1607,0.245,0.1828,0.2865,0.4,0.5028,0.0,0.0,0.0,0.0,0.0,0.0,0.0,0.0,0.0,0.0,0.0,0.0,0.0,0.0,0.0,0.0,0.0,0.0,0.0,0.0,0.0,0.0,0.0,0.0,0.0,0.0,0.0,0.0,0.0,0.0,0.0,0.0,0.0,0.0,0.0,0.0,0.0,0.0,0.0,0.0,0.0,0.0,0.0,0.0,0.0,0.0,0.0,0.0,0.0,0.0,0.0,0.0,0.0,0.0,0.0,0.0,0.0,0.0,0.0,0.0,0.0,0.0,0.0,0.0,0.0,0.0,0.0,0.0,0.0,0.0,0.0,0.0,0.0,0.0,0.0,0.0,0.0,0.0,0.0,0.0,0.0,0.0,0.0,0.0,0.0,0.0,0.0,0.0,0.0,0.0,0.0,0.0,0.0,0.0,0.0,0.0,0.0,0.0,0.0,0.0,0.0,0.0,-0.1035,-0.0767,-0.0511,-0.0045,0.1607,0.245,0.183,0.2946,0.4078,0.0,0.0,0.0,0.0,0.0,0.0,0.0,0.0,0.0,0.0,0.0,0.0,0.0,0.0,0.0,0.0,0.0,0.0,0.0,0.0,0.0,0.0,0.0,0.0,0.0,0.0,0.0,0.0,0.0,0.0,0.0,0.0,0.0,0.0,0.0,0.0,0.0,0.0,0.0,0.0,0.0,0.0,0.0,0.0,0.0,0.0,0.0,0.0,0.0,0.0,0.0,0.0,0.0,0.0,0.0,0.0,0.0,0.0,0.0,0.0,0.0,0.0,0.0,0.0,0.0,0.0,0.0,0.0,0.0,0.0,0.0,0.0,0.0,0.0,0.0,0.0,0.0,0.0,0.0,0.0,0.0,0.0,0.0,0.0,0.0,0.0,0.0,0.0,0.0,0.0,0.0,0.0,0.0,0.0,0.0,0.0,0.0,0.0,0.0,0.0,0.0,0.0,0.0,-0.104,-0.0868,-0.0614,-0.0045,0.0851,0.134,0.1163,0.1508,0.2269,0.3524,0.0,0.0,0.0,0.0,0.0,0.0,0.0,0.0,0.0,0.0,0.0,0.0,0.0,0.0,0.0,0.0,0.0,0.0,0.0,0.0,0.0,0.0,0.0,0.0,0.0,0.0,0.0,0.0,0.0,0.0,0.0,0.0,0.0,0.0,0.0,0.0,0.0,0.0,0.0,0.0,0.0,0.0,0.0,0.0,0.0,0.0,0.0,0.0,0.0,0.0,0.0,0.0,0.0,0.0,0.0,0.0,0.0,0.0,0.0,0.0,0.0,0.0,0.0,0.0,0.0,0.0,0.0,0.0,0.0,0.0,0.0,0.0,0.0,0.0,0.0,0.0,0.0,0.0,0.0,0.0,0.0,0.0,0.0,0.0,0.0,0.0,0.0,0.0,0.0,0.0,0.0,0.0,0.0,0.0,0.0,0.0,0.0,0.0,0.0,0.0,0.0,0.0,-0.1208,-0.1396,-0.129,-0.0448,0.0179,0.0626,0.0895,0.1075,0.1658,0.2747,0.0,0.0,0.0,0.0,0.0,0.0,0.0,0.0,0.0,0.0,0.0,0.0,0.0,0.0,0.0,0.0,0.0,0.0,0.0,0.0,0.0,0.0,0.0,0.0,0.0,0.0,0.0,0.0,0.0,0.0,0.0,0.0,0.0,0.0,0.0,0.0,0.0,0.0,0.0,0.0,0.0,0.0,0.0,0.0,0.0,0.0,0.0,0.0,0.0,0.0,0.0,0.0,0.0,0.0,0.0,0.0,0.0,0.0,0.0,0.0,0.0,0.0,0.0,0.0,0.0,0.0,0.0,0.0,0.0,0.0,0.0,0.0,0.0,0.0,0.0,0.0,0.0,0.0,0.0,0.0,0.0,0.0,0.0,0.0,0.0,0.0,0.0,0.0,0.0,0.0,0.0,0.0,0.0,0.0,0.0,0.0,0.0,0.0,0.0,0.0,0.0,0.0,-0.1426,-0.2136,-0.229,-0.1131,-0.0451,0.0135,0.0675,0.1169,0.1694,0.2259,0.0,0.0,0.0,0.0,0.0,0.0,0.0,0.0,0.0,0.0,0.0,0.0,0.0,0.0,0.0,0.0,0.0,0.0,0.0,0.0,0.0,0.0,0.0,0.0,0.0,0.0,0.0,0.0,0.0,0.0,0.0,0.0,0.0,0.0,0.0,0.0,0.0,0.0,0.0,0.0,0.0,0.0,0.0,0.0,0.0,0.0,0.0,0.0,0.0,0.0,0.0,0.0,0.0,0.0,0.0,0.0,0.0,0.0,0.0,0.0,0.946,1.0578,0.0,0.0,0.0,0.0,0.0,0.0,0.0,0.0,0.0,0.0,0.0,0.0,0.0,0.0,0.0,0.0,0.0,0.0,0.0,0.0,0.0,0.0,0.0,0.0,0.0,0.0,0.0,0.0,0.0,0.0,0.0,0.0,0.0,0.0,0.0,0.0,0.0,0.0,0.0,0.0,-0.1614,-0.2328,-0.2607,-0.2006,-0.1278,-0.0826,-0.0706,-0.0045,0.0469,0.0811,0.1473,0.0,0.0,0.0,0.0,0.0,0.0,0.0,0.0,0.0,0.0,0.0,0.0,0.0,0.0,0.0,0.0,0.0,0.0,0.0,0.0,0.0,0.0,0.0,0.0,0.0,0.0,0.0,0.0,0.0,0.0,0.0,0.0,0.0,0.0,0.0,0.0,0.0,0.0,0.0,0.0,0.0,0.0,0.0,0.0,0.0,0.0,0.0,0.0,0.0,0.0,0.0,0.0,0.0,0.0,0.0,0.0,0.0,0.0,0.0,0.9907,1.2378,0.0,0.0,0.0,0.0,0.0,0.0,0.0,0.0,0.0,0.0,0.0,0.0,0.0,0.0,0.0,0.0,0.0,0.0,0.0,0.0,0.0,0.0,0.0,0.0,0.0,0.0,0.0,0.0,0.0,0.0,0.0,0.0,0.0,0.0,0.0,0.0,0.0,0.0,0.0,0.0,-0.1813,-0.268,-0.3032,-0.2205,-0.1763,-0.125,-0.0639,-0.0237,-0.0045,-0.021,0.0189,0.0,0.0,0.0,0.0,0.0,0.0,0.0,0.0,0.0,0.0,0.0,0.0,0.0,0.0,0.0,0.0,0.0,0.0,0.0,0.0,0.0,0.0,0.0,0.0,0.0,0.0,0.0,0.0,0.0,0.0,0.0,0.0,0.0,0.0,0.0,0.0,0.0,0.0,0.0,0.0,0.0,0.0,0.0,0.0,0.0,0.0,0.0,0.0,0.0,0.0,0.0,0.0,0.0,-0.7852,-0.9007,-1.0974,-0.8291,-0.4127,0.1385,0.9219,1.3612,1.5218,1.4734,0.0,0.0,0.0,0.0,0.0,0.0,0.0,0.0,0.0,0.0,0.0,0.0,0.0,0.0,0.0,0.0,0.0,0.0,0.0,0.0,0.0,0.0,1.3445,1.2054,1.0374,0.8341,0.5536,0.0,0.0,0.0,0.0,0.0,0.0,0.0,0.0,0.0,0.0,0.0,-0.2076,-0.3108,-0.3383,-0.2192,-0.1896,-0.1331,-0.0102,0.0,-0.0239,-0.0862,-0.0798,-0.0575,0.0,0.0,0.0,0.0,0.0,0.0,0.0,0.0,0.0,0.0,0.0,0.0,0.0,0.0,0.0,0.0,0.0,0.0,0.0,0.0,0.0,0.0,0.0,0.0,0.0,0.0,0.0,0.0,0.0,0.0,0.0,0.0,0.3084,0.1509,0.0,0.0,0.0,0.0,0.0,0.0,0.0,0.0,0.0,0.0,0.0,0.0,0.0,-1.2121,-1.3861,-1.5578,-1.5932,-1.4908,-1.4259,-1.4425,-1.5273,-1.4444,-1.1132,-0.547,0.519,0.0,1.6337,1.6881,0.0,0.0,0.0,0.0,0.0,0.0,0.0,0.0,0.0,0.0,0.0,0.0,0.0,0.0,0.0,0.0,0.0,0.0,0.0,0.0,0.0,0.0,1.6991,1.5353,1.262,0.9667,0.7121,0.4096,0.0963,-0.1961,-0.2859,-0.3169,0.0,0.0,0.0,0.0,0.0,0.0,-0.2236,-0.3326,-0.3632,-0.2288,-0.1593,-0.087,-0.0053,0.0,-0.0255,-0.0853,-0.0408,-0.0297,-0.0769,0.0,0.0,0.0,0.0,0.0,0.0,0.0,0.0,0.0,0.0,0.0,0.0,0.0,0.0,0.0,0.0,0.0,0.0,0.0,0.0,0.0,0.0,0.0,0.0,0.0,0.0,0.0,0.0,0.0,0.0,0.359,0.3402,0.0677,0.1836,0.1501,0.0,0.0,0.0,0.0,0.0,0.0,0.0,0.0,0.0,-1.1324,-1.3217,-1.5052,-1.6905,-1.6673,-1.6686,-1.6937,-1.369,-1.3608,-1.6312,-1.6065,-1.302,-0.743,0.0798,0.8019,1.4255,1.7972,1.9572,1.9565,0.0,0.0,0.0,0.0,1.7851,1.7021,1.6712,1.2744,0.714,0.311,0.0,0.0,0.0,0.0,0.0,0.0,0.0,1.2944,1.4243,1.6627,1.83,1.6907,1.4618,1.185,0.8523,0.5176,0.1674,-0.208,-0.397,-0.4826,-0.4488,-0.3803,0.0,0.0,0.0,-0.3014,-0.2858,-0.3284,-0.305,-0.1711,-0.0945,-0.0166,0.0546,0.0644,0.021,-0.0814,-0.0637,-0.0601,-0.0891,-0.0119,0.061,0.0,0.0,0.0,0.0,0.0,0.0,0.0,0.0,0.0,0.0,0.0,0.0,0.0,0.0,0.0,0.0,0.0,0.0,0.0,0.0,0.0,0.0,0.0,0.0,0.0,0.0,0.0,0.0,0.4516,0.4064,0.0156,0.076,-0.0054,0.0,0.0,0.0,0.0,0.0,0.0,-0.9824,-1.1849,-1.3868,-1.5811,-1.6392,-1.7666,-1.9737,-1.7383,-1.6644,-1.7457,-1.3626,-1.3501,-1.6678,-1.6486,-1.4168,-0.9896,-0.2739,0.4167,1.0884,1.7995,2.1292,2.1769,2.0817,2.0245,2.0099,2.1053,2.047,1.9167,1.8808,1.3691,0.6523,0.1706,-0.5827,-1.3793,-1.8143,0.0,0.0,0.0,0.0,1.1621,1.5593,1.812,1.9264,1.7914,1.5868,1.3279,0.9815,0.609,0.2159,-0.204,-0.4575,-0.5891,-0.5467,-0.4699,0.0,-0.328,-0.3333,-0.3398,-0.3335,-0.3206,-0.2651,-0.1272,-0.0278,0.0502,0.1062,0.1092,0.0536,-0.0799,-0.0779,-0.0744,-0.0881,-0.0044,0.0774,0.1423,0.0,0.0,0.0,0.0,0.0,0.0,0.0,0.0,0.0,0.0,0.0,0.0,0.0,0.0,0.0,0.0,0.0,0.0,0.0,0.0,0.0,0.0,0.0,0.0,0.0,0.0,0.0,0.0,0.0,0.1318,-0.2464,0.0,0.0,0.0,0.0,-1.2801,-1.2504,-1.3137,-1.591,-1.7303,-1.8179,-1.8495,-1.8842,-2.0344,-2.3111,-1.9874,-1.8033,-1.7594,-1.7304,-1.7169,-1.7131,-1.6653,-1.6156,-1.5115,-0.4543,0.2241,0.6589,1.6597,2.1661,2.3037,2.2219,2.1887,2.1882,2.2138,2.245,2.2582,2.1496,1.747,1.1496,0.3609,-0.7526,-1.8354,-2.1013,-1.4037,0.0,0.0,0.4156,1.5993,1.5524,1.816,2.0578,1.8841,1.5957,1.3,1.1045,0.6733,0.2085,-0.2012,-0.3989,-0.511,-0.5611,0.0,-0.3744,-0.3053,-0.3733,-0.4082,-0.3412,-0.3304,-0.2705,-0.1274,0.0167,0.1062,0.1118,0.1116,0.055,-0.0801,-0.0372,-0.0313,-0.0854,0.0771,0.1588,0.1331,0.2039,0.0,0.0,0.0,0.0,0.0,0.0,0.0,0.0,0.0,0.0,0.0,0.0,0.0,0.0,0.0,0.0,0.0,0.0,0.0,0.0,0.0,0.0,0.0,0.0,0.0,0.0,0.0,0.0,0.2427,0.2575,0.0,-0.309,-0.099,-0.2491,-1.0047,-1.4709,-1.7335,-1.7587,-1.7302,-1.8186,-2.055,-1.7831,-1.7171,-1.9022,-1.3207,-1.172,-1.451,-1.4377,-1.4989,-1.6198,-1.7076,-1.6889,-1.5413,-0.9065,-0.2138,0.5186,1.2787,1.9002,2.3704,2.3642,2.3601,2.3627,2.3825,2.3798,2.3419,2.1797,1.6672,0.8849,-0.3084,-1.2419,-1.9241,-2.0778,-1.9792,-1.7141,-1.2197,-0.0419,1.1964,1.7483,1.9987,2.0761,1.9395,1.6546,1.3356,1.0615,0.6785,0.2848,-0.0963,-0.3623,-0.5423,-0.5942,-0.5448,-0.4668,-0.3767,-0.3247,-0.2911,-0.2621,-0.2156,-0.1502,-0.05,0.0502,0.1118,0.1118,0.0669,0.0167,-0.0275,-0.0988,-0.1081,-0.0366,0.0602,0.1371,0.2002,0.2742,0.2333,0.0,0.0,0.0,0.0,0.0,0.0,0.0,0.0,0.0,0.0,0.0,0.0,0.0,0.0,0.0,0.0,0.0,0.0,0.0,0.0,0.0,0.0,0.0,0.0,0.0,0.7876,0.6528,0.3282,0.3591,0.2422,-0.1686,-0.1798,-0.398,-0.9659,-1.5298,-1.845,-1.8402,-1.7743,-1.8237,-2.0102,-1.7157,-1.5832,-1.6338,-1.0907,-0.9546,-1.2391,-1.3037,-1.4041,-1.5365,-1.7396,-1.7652,-1.63,-1.3053,-0.7479,-0.0227,0.6293,1.2472,1.8313,2.3269,2.5262,2.5314,2.5308,2.4912,2.3611,1.8127,1.0228,0.0981,-0.8749,-1.4108,-1.6603,-1.5847,-1.6341,-1.6044,-1.0697,-0.1652,0.8278,1.6396,1.9127,1.9466,1.851,1.5869,1.2949,1.0806,0.6998,0.3179,0.0484,-0.2174,-0.4426,-0.5733,-0.5103,-0.4267,-0.3821,-0.3071,-0.2508,-0.2232,-0.1563,-0.0894,-0.0446,0.0279,0.0614,0.0391,-0.0111,-0.0501,-0.0727,-0.1675,-0.1658,-0.0433,0.0364,0.1335,0.2498,0.2197,0.1032,-0.1001,0.0,0.0,0.0,0.0,0.0,0.0,0.0,0.0,0.0,0.0,0.0,0.0,0.0,0.0,0.0,0.0,0.0,0.0,0.0,0.0,0.0,0.0,0.0,0.8685,0.7541,0.5878,0.3893,-0.0181,-0.2173,-0.0447,-0.4528,-0.8721,-1.2111,-1.4334,-1.6473,-1.8618,-1.9065,-1.8518,-1.7035,-1.7093,-1.6724,-1.573,-1.3731,-1.2346,-1.1584,-1.3772,-1.4829,-1.4915,-1.7545,-1.863,-1.8244,-1.6258,-1.3418,-0.964,-0.256,0.2494,0.712,2.0743,2.6172,2.6262,2.5817,2.5095,2.2599,1.0257,-0.1536,-1.1311,-1.256,-1.2158,-1.0392,-0.6364,-0.2895,-0.0531,-0.1551,0.1498,0.6431,1.2537,1.5604,1.6898,1.6258,1.3782,1.1621,1.1607,0.7194,0.2981,0.2118,0.0217,-0.2163,-0.5039,-0.3759,-0.2548,-0.3174,-0.3287,0.0,-0.2232,-0.1507,-0.1062,-0.1118,-0.0446,-0.0334,-0.1117,-0.1223,-0.1554,-0.2228,-0.2339,-0.2007,-0.1228,0.0054,0.1348,0.2593,0.033,-0.2285,-0.5136,0.0,0.0,0.0,0.0,0.0,0.0,0.0,0.0,0.0,0.0,0.0,0.0,0.0,0.0,0.0,0.0,0.0,0.0,0.0,0.0,0.0,0.838,0.9834,0.9261,0.801,0.6117,0.3189,0.0051,-0.1394,-0.0213,-0.3111,-0.564,-0.7054,-1.3099,-1.699,-1.7633,-1.7549,-1.6515,-1.4398,-1.5719,-1.5007,-1.1855,-1.2736,-1.2997,-1.2672,-1.1678,-1.3244,-1.7045,-1.7705,-1.9263,-2.1431,-2.0564,-1.6288,-0.9543,-0.4737,0.1243,0.7827,1.2365,1.3888,1.3401,1.2023,0.8987,0.4667,-0.1587,-0.7993,-1.3555,-1.453,-0.9561,-0.2431,0.1503,0.625,1.011,0.9303,1.4795,2.105,2.1616,1.99,1.7716,1.6543,1.2827,0.9131,0.7514,0.4216,0.0987,-0.0929,-0.2898,-0.4649,-0.6069,-0.535,-0.4297,-0.3432,-0.2391,-0.1452,-0.0727,-0.0448,-0.0504,-0.1062,-0.0894,-0.1336,-0.2605,-0.3632,-0.4328,-0.4483,-0.5528,-0.5317,-0.3515,-0.2715,-0.1366,0.0565,-0.1372,-0.3536,0.0,0.0,0.0,0.0,0.0,0.0,0.0,0.0,0.0,0.0,0.0,0.0,0.0,0.0,0.0,0.0,0.0,0.0,0.0,0.0,0.0,0.0,0.806,1.0648,1.0765,0.9374,0.723,0.4203,0.0701,-0.2038,-0.3415,-0.5668,-0.7499,-0.8663,-1.4372,-1.8131,-1.8995,-1.8405,-1.6534,-1.3156,-1.2771,-1.1705,-0.9768,-1.2875,-1.4593,-1.4748,-1.4164,-1.5842,-1.9486,-2.0274,-2.1866,-2.3942,-2.4073,-2.0683,-1.4801,-1.0804,-0.5551,0.0653,0.0,0.0,0.0,0.0,0.0109,-0.6329,-0.9487,-1.4475,-1.9525,-2.0004,-1.3921,-0.5951,-0.3462,0.3498,0.9686,0.5715,0.9487,1.4684,1.4519,1.3385,1.2155,1.1574,0.9096,0.6435,0.5008,0.2164,-0.0772,-0.289,-0.5155,0.0,-0.8213,-0.6699,-0.4974,-0.4113,-0.2577,-0.1396,-0.095,-0.0671,-0.0727,-0.1507,-0.1842,-0.2504,-0.3652,-0.5058,0.0,0.0,0.0,-0.6516,-0.4078,-0.2844,0.0,0.0,0.0,0.0,0.0,-1.1567,0.0,0.0,-1.5274,-1.5406,0.0,0.0,0.0,0.0,0.0,0.0,0.0,0.0,0.0,0.0,0.0,0.0,0.0,0.0,0.0,0.0,0.6088,0.9247,1.0664,0.915,0.726,0.5492,0.1198,-0.3509,-0.8285,-1.0306,-1.2271,-1.4693,-1.7421,-1.9841,-2.1744,-2.0779,0.0,0.0,0.0,-0.92,-0.9508,-1.4143,-1.6862,-1.7589,-1.8879,-2.0404,-2.215,-2.3854,-2.5134,-2.6075,-2.6624,-2.5123,-2.201,-1.7909,-1.4222,-0.9772,0.3865,0.8048,0.5869,0.1362,-0.5715,-1.3402,-1.5592,0.0,0.0,-2.67,-2.1758,-1.5727,-1.4906,-0.5905,0.2521,-0.4757,-0.4262,-0.1224,0.0428,0.2264,0.3778,0.4376,0.3952,0.3377,0.3098,0.0355,-0.2511,-0.4137,-0.6798,-0.9219,-1.0372,-0.7591,-0.5144,-0.4919,-0.3354,-0.2184,-0.2065,-0.1513,-0.1402,-0.2232,-0.3065,0.0,-0.459,-0.6044,-0.7228,-0.7917,-0.7864,-0.6681,-0.4049,-0.22,-0.2,-0.3772,-0.5651,-0.831,-1.1692,-1.4972,-1.6792,-1.7174,-1.5925,-1.5919,0.0,0.0,0.0,0.0,0.0,0.0,0.0,0.0,0.0,0.0,0.0,0.0,0.0,0.0,0.0,0.0043,0.0731,0.0108,-0.0783,-0.2271,-0.1776,0.2331,-0.0375,-0.4609,-0.9903,-1.2342,-1.5765,-2.1141,-2.1524,-2.2045,-2.329,-2.2655,-2.0057,-1.5355,-1.7015,-1.6269,-1.2558,-1.7219,-1.9877,-2.0488,-1.9819,0.0,-2.5063,-2.4366,-2.5539,-2.8064,-2.7042,-2.4531,-2.0906,-1.7242,-1.3663,-1.0228,-0.7891,-0.8827,-1.198,-1.647,-2.0383,-2.3727,-2.5887,-2.7719,-2.8917,-2.7899,-2.3858,-1.8955,-1.6414,-0.9223,0.0,-0.181,0.1295,0.4624,0.489,0.3859,0.2868,0.3232,0.1429,-0.062,-0.1426,-0.316,-0.4887,-0.5915,-0.8299,-0.9824,-0.8771,-0.7504,-0.6246,-0.503,-0.3302,-0.2013,-0.1401,-0.1201,-0.1611,-0.3019,-0.3776,-0.4761,-0.6086,-0.7964,-0.9423,-1.0128,-0.9636,-0.8553,-0.6881,-0.5931,-0.5729,-0.6468,-0.8672,-1.0841,-1.2905,-1.5253,-1.6924,-1.7912,-1.8483,-1.8583,0.0,0.0,0.0,0.0,0.0,0.0,0.0,0.0,0.0,0.0,0.0,-0.8134,-0.7775,0.0,-0.7105,-0.3625,-0.0886,-0.0464,-0.4091,-0.685,-0.6673,-0.1792,-0.5079,-1.0136,-1.6158,-1.7255,-1.9322,-2.3413,-2.4372,-2.497,-2.5331,-2.4992,-2.263,-1.7854,-2.0387,-1.9758,-1.5521,-1.9988,-2.2828,-2.3971,-2.399,-2.5311,-2.7725,-2.6995,-2.7342,-2.8443,-2.667,-2.3759,-2.0062,-1.6665,-1.456,-1.3735,-1.6036,-1.7419,-1.8635,-2.3026,-2.6082,-2.8229,-2.9546,-2.9982,-2.9776,-2.8594,-2.6111,-2.3148,-2.09,-1.6555,-1.1875,-0.9507,-0.6338,-0.3545,-0.2938,-0.3375,-0.3826,-0.3248,-0.392,-0.4804,-0.5357,-0.5739,-0.631,-0.7629,-0.8281,-0.8409,-0.7955,-0.6551,-0.5348,-0.4984,-0.3075,-0.1791,-0.2291,-0.2022,-0.2387,-0.3993,-0.484,-0.5718,-0.6643,-0.9197,-1.1006,-1.1738,-1.113,-1.0086,-0.8657,-0.7653,-0.7506,-0.8433,-1.0218,-1.2082,-1.3936,-1.5899,-1.7162,-1.7747,-1.8817,-1.9265,0.0,0.0,0.0,0.0,0.0,0.0,0.0,1.6001,1.2519,0.7031,-0.0295,-0.6929,-1.095,-0.9843,-0.8385,-0.8582,-0.4177,-0.2582,-0.7889,-1.1435,-1.2355,-0.9271,-1.2362,-1.6835,-2.2247,-2.2217,-2.2658,-2.4645,-2.6578,-2.7589,-2.7414,-2.7246,-2.5397,-2.1504,-2.3138,-2.2662,-1.9765,-2.3396,-2.5932,-2.7299,-2.8522,-2.9323,-2.9701,-2.9547,-2.9066,-2.8272,-2.5733,-2.2801,-1.9581,-1.6842,-1.6616,-1.8326,-2.1722,-2.2555,-2.227,-2.5738,-2.8444,-3.0461,-3.0866,-3.0825,-3.043,-2.9393,-2.8157,-2.6781,-2.5273,-2.3248,-2.0926,-1.8669,-1.6277,-1.4223,-1.3219,-1.2089,-1.1044,-1.0053,-0.9047,-0.8324,-0.827,-0.7543,-0.7261,-0.8676,-0.7579,-0.6469,-0.6948,-0.4983,-0.3589,-0.446,-0.2632,-0.1672,-0.3197,-0.2841,-0.3094,-0.4735,-0.5812,-0.6856,-0.7971,-1.0467,-1.2386,-1.3409,-1.2792,-1.1778,-1.0344,-0.9246,-0.9169,-1.0127,-1.156,-1.3172,-1.4989,-1.6642,-1.7529,-1.7655,-1.8651,-1.931,1.146,1.2111,1.3041,1.4372,1.5232,1.6582,0.0,1.7184,1.221,0.4897,-0.0715,-0.6332,-1.2894,-1.4332,-1.4629,-1.5008,-1.5519,-1.721,-2.1059,-2.2881,-2.4037,-2.4591,-2.3059,-2.2315,-2.3308,-2.4263,-2.5584,-2.7402,-2.8245,-2.8781,-2.9095,-2.8722,-2.8276,-2.7792,-2.7612,-2.7495,-2.7388,-2.8728,-2.9533,-2.9725,-3.0758,-3.0858,-3.0132,-2.9868,-2.9265,-2.8176,-2.4104,-2.1577,-2.0159,-1.893,-2.0092,-2.2855,-2.4896,-2.7095,-2.9193,-2.9737,-3.103,-3.2577,-3.2752,-3.2468,-3.19,-3.0946,-2.9597,-2.7998,-2.6459,-2.421,-2.1977,-2.1094,-1.9169,-1.7389,-1.7378,-1.5892,-1.403,-1.2405,-1.1108,-1.004,-0.932,-0.8479,-0.7892,-0.8081,-0.6702,-0.5256,-0.4532,-0.2863,-0.1846,-0.275,-0.1852,-0.1459,-0.2467,-0.258,-0.3103,-0.4748,-0.6284,-0.8579,-1.202,-1.2654,-1.3762,-1.5859,-1.5318,-1.4255,-1.2742,-1.2636,-1.2303,-1.1759,-1.3733,-1.5177,-1.602,-1.7411,-1.8362,-1.8837,-1.9492,-1.9809,1.5433,1.6259,1.7053,1.8397,1.9332,2.0192,2.1267,1.8272,1.3757,0.8565,0.0493,-0.7097,-1.1962,-1.364,-1.4904,-1.6831,-1.6886,-1.867,-2.4404,-2.5812,-2.6621,-2.7607,-2.6573,-2.5865,-2.6107,-2.6964,-2.7724,-2.8258,-2.9101,-2.9671,-2.9804,-3.025,-3.0548,-3.0669,-3.0462,-3.0392,-3.0399,-3.1017,-3.1411,-3.162,-3.2086,-3.2057,-3.1552,-3.0342,-2.8647,-2.6503,-2.4009,-2.2814,-2.2549,-2.2485,-2.3926,-2.6389,-2.8679,-3.0671,-3.222,-3.2251,-3.2942,-3.3837,-3.391,-3.3669,-3.3214,-3.2337,-3.1056,-2.9575,-2.8178,-2.6225,-2.4212,-2.2878,-2.148,-2.0229,-1.961,-1.8412,-1.693,-1.5337,-1.3605,-1.2097,-1.1297,-0.9479,-0.8027,-0.8027,-0.5716,-0.3673,-0.3278,-0.1338,0.0067,-0.0263,-0.0395,-0.0789,-0.1685,-0.2287,-0.3658,-0.6434,-0.7542,-0.9505,-1.2987,-1.3873,-1.5018,-1.6837,-1.6642,-1.6014,-1.4975,-1.4195,-1.3835,-1.3902,-1.4738,-1.5767,-1.6825,-1.775,-1.8508,-1.9054,-1.9653,-2.0316,1.8484,1.9503,2.038,2.1562,2.2282,2.2592,2.2081,1.8967,1.4951,1.052,0.1574,-0.7106,-1.2553,-1.4515,-1.6234,-1.9175,-1.8878,-2.0333,-2.6197,-2.6963,-2.7342,-2.8501,-2.8259,-2.8151,-2.8578,-2.9117,-2.9369,-2.9178,-3.0152,-3.0722,-3.0631,-3.161,-3.2338,-3.268,-3.2642,-3.2688,-3.2789,-3.3071,-3.3179,-3.3131,-3.3218,-3.2993,-3.2447,-3.0873,-2.8898,-2.6726,-2.5565,-2.5341,-2.5842,-2.6258,-2.7628,-2.9738,-3.1947,-3.3376,-3.4177,-3.4213,-3.4517,-3.4882,-3.4843,-3.4679,-3.4356,-3.3595,-3.2422,-3.1055,-2.9501,-2.7735,-2.5986,-2.4382,-2.3349,-2.2528,-2.1661,-2.074,-1.9561,-1.7729,-1.5675,-1.3797,-1.2733,-1.024,-0.8144,-0.8144,-0.5238,-0.2671,-0.2393,-0.0272,0.1423,0.1694,0.0945,0.0067,-0.0804,-0.2406,-0.4596,-0.7697,-0.8726,-1.0516,-1.3711,-1.4914,-1.6243,-1.7908,-1.8007,-1.7673,-1.6973,-1.5973,-1.5606,-1.591,-1.6088,-1.6689,-1.7709,-1.8521,-1.9145,-1.9608,-2.0323,-2.1107,1.919,2.0535,2.216,2.3186,2.3359,2.2973,2.1861,1.9196,1.5062,0.8294,0.1997,-0.5571,-1.6226,-1.9221,-2.0933,-2.3581,-2.4733,-2.6116,-2.8489,-2.7879,-2.7862,-2.9723,-2.9249,-2.9127,-3.0038,-3.0277,-3.0486,-3.0786,-3.1648,-3.2069,-3.1955,-3.2703,-3.3536,-3.4395,-3.4288,-3.4666,-3.5556,-3.5724,-3.5272,-3.4258,-3.439,-3.3658,-3.2204,-3.1428,-3.076,-3.0195,-2.9172,-2.9153,-2.9842,-2.9993,-3.1219,-3.3129,-3.4202,-3.504,-3.566,-3.5788,-3.583,-3.584,-3.5715,-3.5566,-3.5341,-3.4676,-3.3674,-3.2314,-2.9981,-2.8097,-2.6559,-2.5614,-2.4716,-2.4037,-2.4142,-2.3167,-2.1575,-1.923,-1.6943,-1.4901,-1.3212,-1.061,-0.8604,-0.8604,-0.5467,-0.2531,-0.1511,0.0141,0.1674,0.2719,0.1977,0.0938,0.0067,-0.3058,-0.5917,-0.7827,-0.947,-1.1714,-1.4879,-1.5899,-1.7335,-1.9581,-1.9697,-1.9374,-1.8667,-1.8614,-1.8228,-1.7522,-1.8228,-1.8614,-1.8667,-2.0067,-2.0743,-2.0792,-2.2025,-2.2303,2.2466,2.3121,2.3259,2.3508,2.3014,2.1935,1.9765,1.6346,1.2124,0.6848,-0.0,-0.738,-1.4964,-1.8149,-2.0517,-2.3159,-2.465,-2.6265,-2.8519,-2.8536,-2.8605,-2.9371,-2.911,-2.9109,-2.9687,-2.9785,-3.008,-3.0769,-3.1191,-3.1809,-3.2751,-3.3608,-3.4398,-3.5136,-3.5115,-3.524,-3.5563,-3.5706,-3.5549,-3.5165,-3.5039,-3.4198,-3.2789,-3.2537,-3.1954,-3.1089,-3.058,-3.0833,-3.1597,-3.1792,-3.2705,-3.4078,-3.4775,-3.5251,-3.5585,-3.5712,-3.6125,-3.656,-3.6027,-3.5802,-3.568,-3.5184,-3.4232,-3.2919,-3.1046,-2.9551,-2.8279,-2.7151,-2.6663,-2.6197,-2.5273,-2.383,-2.2196,-2.038,-1.737,-1.4807,-1.4234,-1.122,-0.8624,-0.8624,-0.548,-0.2537,-0.1514,0.0718,0.2722,0.3792,0.2412,0.0536,-0.1537,-0.2804,-0.4725,-0.7692,-0.9452,-1.1522,-1.4245,-1.6141,-1.7709,-1.898,-1.9527,-1.9695,-1.9423,-1.898,-1.902,-1.9684,-1.9465,-1.9813,-2.0703,-2.117,-2.1629,-2.2081,-2.2512,-2.277,2.4038,2.4091,2.3507,2.3289,2.23,2.0615,1.7834,1.4174,1.0407,0.7133,0.0,-0.7573,-1.3946,-1.7049,-1.958,-2.2432,-2.4364,-2.6245,-2.8484,-2.869,-2.8795,-2.9321,-2.935,-2.955,-3.0117,-3.0318,-3.0628,-3.1191,-3.1745,-3.2532,-3.3601,-3.4461,-3.5143,-3.5563,-3.5568,-3.5561,-3.5573,-3.5652,-3.5676,-3.564,-3.5345,-3.4795,-3.3992,-3.3647,-3.3372,-3.3177,-3.2549,-3.2894,-3.3917,-3.3913,-3.4415,-3.5315,-3.5883,-3.6195,-3.6357,-3.6573,-3.7012,-3.7381,-3.6632,-3.6356,-3.6309,-3.6015,-3.4904,-3.3407,-3.1735,-3.047,-2.9326,-2.7963,-2.7625,-2.724,-2.5783,-2.4363,-2.273,-2.0617,-1.7637,-1.5043,-1.4011,-1.123,-0.8722,-0.836,-0.5414,-0.253,-0.1111,0.1841,0.4106,0.4426,0.303,0.0896,-0.1856,-0.2818,-0.4504,-0.7753,-0.9532,-1.1476,-1.3877,-1.5753,-1.7313,-1.8608,-1.915,-1.9527,-1.9798,-1.9554,-1.9863,-2.0795,-2.0544,-2.0851,-2.1697,-2.1946,-2.2377,-2.298,-2.3201,-2.3522,2.3908,2.3495,2.2991,2.2579,2.1181,1.9146,1.6166,1.2861,1.0095,0.8857,0.1886,-0.6146,-1.3234,-1.604,-1.8389,-2.1666,-2.4045,-2.6244,-2.8507,-2.845,-2.8577,-2.9658,-3.0015,-3.0521,-3.1405,-3.1854,-3.2098,-3.2124,-3.328,-3.4128,-3.4457,-3.5268,-3.5708,-3.5702,-3.5703,-3.5704,-3.5699,-3.5718,-3.5718,-3.5699,-3.5438,-3.5438,-3.5647,-3.4788,-3.5117,-3.6293,-3.5054,-3.5326,-3.6638,-3.6187,-3.6313,-3.6831,-3.7387,-3.7689,-3.782,-3.8204,-3.8419,-3.8351,-3.7591,-3.73,-3.7237,-3.7111,-3.5758,-3.3863,-3.2112,-3.0859,-2.9686,-2.803,-2.756,-2.7188,-2.5591,-2.4547,-2.3098,-1.9813,-1.7649,-1.5539,-1.286,-1.0691,-0.8998,-0.8084,-0.5212,-0.2259,-0.0233,0.3429,0.5693,0.4745,0.364,0.1888,-0.0937,-0.295,-0.5197,-0.7923,-0.9699,-1.1575,-1.3897,-1.4885,-1.6337,-1.8572,-1.8744,-1.9129,-1.9886,-2.0537,-2.0888,-2.0938,-2.152,-2.1827,-2.1846,-2.2569,-2.3142,-2.3636,-2.4245,-2.4564,2.3606,2.3324,2.2611,2.1222,1.9797,1.791,1.474,1.2262,0.9942,0.7604,0.178,-0.4751,-1.0809,-1.3587,-1.6507,-2.1227,-2.2845,-2.4862,-2.871,-2.9148,-2.9514,-3.0763,-3.1011,-3.1463,-3.25,-3.3102,-3.3494,-3.3695,-3.3601,-3.3736,-3.4167,-3.5164,-3.5693,-3.5699,-3.5695,-3.5704,-3.5699,-3.5795,-3.5795,-3.5699,-3.6372,-3.6669,-3.6656,-3.6767,-3.7003,-3.7307,-3.6452,-3.6229,-3.6389,-3.6057,-3.6104,-3.6435,-3.6597,-3.7046,-3.7613,-3.7794,-3.8491,-3.9278,-3.9112,-3.8634,-3.807,-3.8003,-3.6793,-3.5006,-3.308,-3.1513,-2.989,-2.7467,-2.6774,-2.6144,-2.3257,-2.1898,-2.0591,-1.7744,-1.5704,-1.4212,-1.3506,-1.1224,-0.9221,-0.8993,-0.4481,-0.0155,0.1946,0.4501,0.611,0.5917,0.4218,0.1962,-0.0941,-0.2456,-0.4607,-0.812,-0.9405,-1.1109,-1.3841,-1.5348,-1.6941,-1.8894,-1.9482,-2.0173,-2.1054,-2.1771,-2.2402,-2.2879,-2.3604,-2.3908,-2.3877,-2.4957,-2.5326,-2.5022,-2.6109,-2.6652,2.3262,2.2826,2.1891,2.0226,1.8729,1.6851,1.364,1.1619,0.9264,0.5211,0.0869,-0.4206,-1.0811,-1.362,-1.6179,-1.9996,-2.2375,-2.4833,-2.784,-2.9218,-3.0244,-3.1075,-3.1835,-3.2607,-3.3461,-3.3965,-3.4357,-3.4671,-3.4375,-3.4375,-3.4783,-3.542,-3.5755,-3.5696,-3.5759,-3.5753,-3.5706,-3.5779,-3.5968,-3.6281,-3.6839,-3.7277,-3.756,-3.7529,-3.7597,-3.766,-3.6989,-3.6498,-3.6212,-3.6052,-3.6067,-3.6258,-3.6632,-3.7238,-3.7981,-3.8567,-3.9283,-3.9976,-4.0199,-3.9908,-3.9384,-3.9007,-3.7635,-3.5827,-3.4163,-3.229,-3.018,-2.7748,-2.626,-2.4635,-2.1493,-1.9724,-1.8018,-1.5242,-1.3827,-1.2843,-1.199,-1.0783,-0.9427,-0.758,-0.3317,0.0698,0.273,0.4844,0.6338,0.6338,0.4453,0.2315,0.0224,-0.1794,-0.4461,-0.8265,-0.9095,-1.0641,-1.3818,-1.4906,-1.6476,-1.8922,-1.9467,-2.0226,-2.1425,-2.2159,-2.2844,-2.3602,-2.4284,-2.489,-2.5423,-2.6176,-2.6565,-2.6702,-2.7429,-2.7872,2.2799,2.2073,2.0925,1.9356,1.781,1.5928,1.2892,1.1195,0.8587,0.2467,-0.0768,-0.4863,-1.2404,-1.5051,-1.678,-1.8922,-2.2347,-2.525,-2.6712,-2.8947,-3.0572,-3.1054,-3.2429,-3.3601,-3.4265,-3.4561,-3.4907,-3.5396,-3.5408,-3.5474,-3.5668,-3.583,-3.5898,-3.5912,-3.6133,-3.6187,-3.6053,-3.606,-3.6435,-3.7171,-3.7291,-3.7742,-3.8444,-3.7718,-3.7521,-3.768,-3.685,-3.6247,-3.588,-3.598,-3.6022,-3.6209,-3.7077,-3.7895,-3.8682,-3.9776,-4.03,-4.0496,-4.0847,-4.0909,-4.0714,-4.0002,-3.8495,-3.6701,-3.5392,-3.3141,-3.0511,-2.8108,-2.5481,-2.261,-1.943,-1.7252,-1.5184,-1.2339,-1.1859,-1.1554,-0.991,-1.0212,-0.9627,-0.5567,-0.2397,0.031,0.2493,0.4686,0.6103,0.6261,0.4608,0.2885,0.171,-0.1168,-0.455,-0.8254,-0.8763,-1.0254,-1.3779,-1.4164,-1.5559,-1.8725,-1.9061,-1.9851,-2.1468,-2.2159,-2.291,-2.3837,-2.4439,-2.5353,-2.653,-2.6756,-2.7349,-2.8227,-2.8483,-2.8829,2.1844,2.1126,1.994,1.8043,1.6632,1.5128,1.268,1.1675,0.0,0.1422,-0.3507,-0.8488,-1.5292,-1.6564,-1.7468,-2.0301,-2.2207,-2.4356,-2.7222,-2.8572,-2.9884,-3.147,-3.2499,-3.3554,-3.4816,-3.4794,-3.523,-3.6507,-3.645,-3.6125,-3.5552,-3.5775,-3.624,-3.6993,-3.773,-3.8064,-3.7926,-3.7936,-3.7978,-3.8084,-3.8815,-3.9239,-3.9345,-3.8346,-3.7899,-3.7839,-3.6115,-3.5091,-3.4642,-3.5273,-3.5737,-3.6209,-3.7167,-3.8309,-3.9467,-3.9945,-4.0379,-4.0737,-4.0807,-4.0882,-4.0938,-4.0798,-3.9876,-3.8457,-3.6546,-3.3679,-3.0286,-2.6594,-2.3062,-1.9292,-1.4821,-1.2669,-1.1229,-0.9119,-0.9397,-1.0243,-1.0612,-1.079,-0.9863,-0.6579,-0.4092,-0.162,0.132,0.3585,0.5315,0.618,0.5237,0.3742,0.1865,-0.1168,-0.4346,-0.7522,-0.8684,-1.0473,-1.3494,-1.4552,-1.5912,-1.7969,-1.882,-2.0015,-2.1738,-2.2511,-2.361,-2.508,-2.5795,-2.6265,-2.66,-2.8122,-2.869,-2.8404,-2.9952,-3.0887,2.1329,2.0166,1.8757,1.7518,1.5825,1.416,1.287,0.0,0.0,0.0652,-0.5246,-1.0355,-1.5139,-1.687,0.0,-1.987,-2.1842,-2.4045,-2.6545,-2.8484,-3.0162,-3.1629,-3.2757,-3.3859,-3.4996,-3.5112,-3.5637,-3.6856,-3.7154,-3.7186,-3.7013,-3.7123,-3.7436,-3.7968,-3.8305,-3.8493,-3.8496,-3.8393,-3.8469,-3.8709,-3.9088,-3.9108,-3.8727,-3.8036,-3.7264,-3.6382,-3.561,-3.4873,-3.4362,-3.5305,-3.5977,-3.6517,-3.7469,-3.8468,-3.9447,-3.9968,-4.0328,-4.0615,-4.0703,-4.0795,-4.0851,-4.0876,-4.0382,-3.9287,-3.6768,-3.3412,-2.9506,-2.5045,-2.0232,-1.5557,-1.1491,-0.9683,-0.8621,-0.7594,-0.9548,-1.2,-1.3453,-1.2939,-1.1318,-0.8607,-0.547,-0.2267,0.1011,0.335,0.5079,0.6103,0.5392,0.4137,0.2571,-0.0389,-0.3494,-0.6576,-0.8358,-1.026,-1.2691,-1.4291,-1.5974,-1.7794,-1.8793,-1.9879,-2.1175,-2.2015,-2.3132,-2.4687,-2.5536,-2.648,-2.7618,-2.8793,-2.9408,-2.943,-3.063,-3.1411,1.9861,1.8892,1.7757,1.699,1.5222,1.3555,1.3121,1.2172,0.0,0.0328,-0.6633,-1.2104,-1.5108,-1.7164,-1.8728,0.0,-2.1704,-2.3898,-2.5914,-2.8346,-3.0383,-3.1648,-3.2964,-3.4216,-3.5264,-3.5442,-3.6039,-3.7332,-3.8075,-3.8459,-3.8429,-3.8612,-3.8766,-3.8837,-3.8928,-3.902,-3.9074,-3.8857,-3.8893,-3.919,-3.8886,-3.8421,-3.7809,-3.7175,-3.6263,-3.5132,-3.5276,-3.5036,-3.4667,-3.5793,-3.6537,-3.7046,-3.7969,-3.8793,-3.9483,-4.0081,-4.0387,-4.0496,-4.0679,-4.0655,-4.0571,-4.0547,-4.0377,-3.9592,-3.6473,-3.2568,-2.8184,-2.3246,-1.732,-1.1862,-0.8734,-0.7145,-0.6695,-0.7981,-1.1399,-1.4834,-1.6707,-1.5433,-1.3212,-1.0678,-0.6931,-0.3034,0.0631,0.3003,0.4841,0.6195,0.5635,0.4678,0.3329,0.0552,-0.2441,-0.5665,-0.7949,-1.0034,-1.1717,-1.37,-1.5562,-1.725,-1.818,-1.9278,-2.0526,-2.1239,-2.2433,-2.4076,-2.4953,-2.6279,-2.8061,-2.8996,-2.9629,-3.0123,-3.0878,-3.1411,1.5924,1.6855,1.7435,1.5849,1.462,1.3669,1.3199,0.0,1.1035,0.0812,-0.8093,-1.4865,-1.7661,-1.8358,-1.9139,-2.1067,0.0,-2.3714,-2.6216,-2.804,-2.9775,-3.1592,-3.2964,-3.442,-3.6043,-3.5762,-3.6419,-3.8648,-3.9719,-3.9761,-3.8648,-3.9335,-3.9715,-3.9604,-4.0465,-4.0835,-4.059,-4.0339,-3.9965,-3.9452,-3.8405,-3.7644,-3.7115,-3.5711,-3.5249,-3.5555,-3.5186,-3.5227,-3.5554,-3.6646,-3.7337,-3.78,-3.88,-3.9561,-4.015,-4.0521,-4.0701,-4.0765,-4.0789,-4.0552,-4.0179,-3.9767,-3.9837,-3.9419,-3.5764,-3.1054,-2.5967,-2.1038,-1.4619,-0.857,-0.6268,-0.4796,-0.537,-1.1204,-1.5242,-1.7995,-1.9075,-1.7543,-1.511,-1.2066,-0.8676,-0.4925,-0.0576,0.1988,0.4244,0.6325,0.6575,0.5741,0.3663,0.1324,-0.1482,-0.4864,-0.7696,-0.9744,-1.0858,-1.2705,-1.4307,-1.5367,-1.6349,-1.7978,-2.0526,-2.0655,-2.1818,-2.4208,-2.5007,-2.5837,-2.6707,-2.8497,-2.9406,-2.9496,-3.0658,-3.1411,1.1119,1.1036,1.0721,1.3678,1.3178,1.2111,1.2614,1.05,0.671,0.0706,-0.8883,-1.6549,-1.7654,-1.8465,-1.9609,-2.1524,-2.2211,-2.3327,-2.5726,-2.6917,-2.8433,-3.0791,-3.2437,-3.4154,-3.6118,-3.7053,-3.8241,-3.9946,-4.0343,-4.0167,-3.9376,-3.9911,-4.0133,-3.9819,-4.0198,-4.0467,-4.056,-3.9891,-3.9227,-3.8572,-3.7561,-3.6482,-3.5385,-3.5111,-3.5016,-3.5138,-3.57,-3.5824,-3.576,-3.7757,-3.8317,-3.8064,-3.9602,-4.0357,-4.0589,-4.0703,-4.0749,-4.0673,-4.0177,-3.9597,-3.895,-3.8259,-3.7757,-3.676,-3.3303,-2.9496,-2.5023,-1.8693,-1.2978,-0.8194,-0.5951,-0.7669,-1.1445,-1.7389,-2.075,-2.2542,-2.2451,-2.0383,-1.7423,-1.3518,-1.0198,-0.6456,-0.1914,0.0167,0.2256,0.5191,0.5022,0.4268,0.3519,0.075,-0.2077,-0.4811,-0.7825,-1.0021,-1.0965,-1.2839,-1.4321,-1.518,-1.607,-1.758,-1.9748,-2.0333,-2.1732,-2.4116,-2.4966,-2.6,-2.7152,-2.8654,-2.9406,-2.9467,-3.1091,-3.2115,0.4865,0.484,0.4896,0.9691,0.9361,0.8323,0.9857,0.6712,0.2486,-0.0852,-0.9433,-1.6576,-1.7343,-1.8284,-1.9554,0.0,-2.212,-2.3101,-2.5036,-2.6299,-2.7835,-2.9992,-3.1712,-3.3644,-3.5951,-3.7984,-3.9556,-4.0552,-4.0443,-4.0127,-3.9688,-4.0068,-4.0098,-3.9641,-3.9908,-4.01,-4.0159,-3.94,-3.8624,-3.7895,-3.6556,-3.5386,-3.4394,-3.4701,-3.503,-3.5425,-3.6739,-3.6899,-3.6442,-3.8863,-3.9164,-3.8297,-4.0067,-4.077,-4.0801,-4.0801,-4.0699,-4.0455,-3.974,-3.8856,-3.79,-3.6998,-3.6032,-3.4617,-3.1437,-2.8228,-2.4316,-1.8006,-1.2895,-0.9044,-0.7955,-1.1906,-1.7394,-2.2502,-2.5095,-2.6204,-2.5333,-2.2495,-1.8997,-1.4955,-1.1521,-0.797,-0.3562,-0.1949,0.0,0.3491,0.324,0.2729,0.2905,0.017,-0.2799,-0.5404,-0.8351,-1.0432,-1.1257,-1.2936,-1.4359,-1.5421,-1.6117,-1.7596,-2.0023,-2.0688,-2.2171,-2.4662,-2.5306,-2.6353,-2.7854,-2.9092,-2.9822,-3.0076,-3.196,-3.3279,-0.3204,-0.1052,0.152,0.3501,0.2541,0.1764,0.4302,0.2837,-0.0221,-0.4303,-0.9786,-1.4642,-1.7216,-1.7912,-1.8745,-2.0693,-2.1958,-2.3103,-2.4251,-2.6526,-2.8406,-2.9304,-3.0831,-3.2876,-3.5637,-3.8249,-3.9914,-4.0186,-4.0023,-3.9735,-3.9335,-3.9619,-3.9546,-3.9013,-3.9914,-4.0136,-3.9603,-3.9212,-3.8515,-3.7571,-3.5394,-3.4411,-3.4576,-3.4394,-3.5125,-3.668,-3.8301,-3.8518,-3.793,-3.9881,-3.9783,-3.8543,-4.0101,-4.0742,-4.0801,-4.0801,-4.0546,-4.0148,-3.965,-3.8578,-3.7232,-3.6169,-3.5152,-3.3746,-3.0741,-2.7305,-2.3663,-1.9435,-1.4522,-1.09,-1.2694,-1.6833,-2.1625,-2.5537,-2.7664,-2.8461,-2.7298,-2.3509,-1.9329,-1.6199,-1.2884,-0.947,-0.5886,-0.4308,-0.2288,0.133,0.1864,0.1779,0.1788,-0.0267,-0.3096,-0.6595,-0.9165,-1.0852,-1.1617,-1.2638,-1.4038,-1.6059,-1.6211,-1.7954,-2.1807,-2.1956,-2.3273,-2.6043,-2.6131,-2.6917,-2.8367,-2.9785,-3.0829,-3.1502,-3.3337,-3.4818,-1.1629,-0.894,-0.5641,-0.2811,-0.0786,-0.0094,-0.2462,-0.4238,-0.6816,-1.1812,-1.4479,-1.6319,-1.7598,-1.8389,-1.9703,-2.2291,-2.3018,0.0,-2.6019,-2.7232,-2.8771,-3.1092,-3.4694,-3.7575,-3.9042,-4.0041,-4.0672,-4.0741,-4.0424,-4.0024,-3.9528,-3.9618,-3.9489,-3.9073,-3.9577,-3.9773,-3.9599,-3.8934,-3.8031,-3.6916,-3.5983,-3.5416,-3.5194,-3.5813,-3.6726,-3.7867,-3.8726,-3.8586,-3.7936,-3.9605,-3.9513,-3.8474,-3.9777,-4.0292,-4.0265,-3.9757,-3.9427,-3.9034,-3.7577,-3.6457,-3.5418,-3.4022,-3.3077,-3.2281,-3.1825,-2.9077,-2.4934,-1.9127,-1.5675,-1.4565,-1.7961,-2.0761,-2.3948,-2.8661,-2.9631,-2.8828,-2.6531,-2.2958,-1.9031,-1.524,-1.3043,-1.0904,-0.819,-0.6705,-0.5029,-0.2203,-0.1154,-0.0357,0.0446,-0.1514,-0.3733,-0.5659,-0.8657,-1.1261,-1.287,-1.3257,-1.4266,-1.6084,-1.6856,-1.8667,-2.1887,-2.3207,-2.4823,-2.6835,-2.7409,-2.8222,-2.9208,-3.0514,-3.2174,-3.4126,-3.5236,-3.6443,0.0,-1.3273,-1.0527,-0.749,-0.5674,-0.5167,-0.7323,-0.9204,-1.1587,-1.5303,-1.6429,-1.7052,-1.8095,-1.8902,-2.0076,-2.2204,-2.2906,-2.3855,-2.5855,-2.7252,-2.9288,-3.2555,-3.6288,-3.8917,-3.9727,-4.0419,-4.0864,-4.0989,-4.0622,-4.0239,-3.9928,-3.9821,-3.969,-3.9486,-3.9668,-3.9709,-3.95,-3.8868,-3.8063,-3.7077,-3.6431,-3.6271,-3.6567,-3.7097,-3.7936,-3.8998,-3.9738,-3.9191,0.0,-3.9441,-3.9154,-3.7822,-3.8941,-3.958,-3.9783,-3.9321,-3.8982,-3.8534,-3.6898,-3.5736,-3.4748,-3.3398,-3.2654,-3.2214,-3.1962,-2.975,-2.6289,-2.121,-1.9031,-1.8914,-2.1889,-2.4044,-2.6516,-3.0382,-3.0294,-2.8622,-2.6037,-2.2424,-1.8608,-1.5292,-1.4085,-1.2977,-1.1059,-1.0191,-0.8694,-0.5874,-0.4511,-0.3028,-0.0981,-0.2764,-0.4543,-0.5232,-0.8055,-1.0813,-1.2964,-1.387,-1.4992,-1.6501,-1.7966,-2.0002,-2.2936,-2.4572,-2.6282,-2.8306,-2.8597,-2.9413,-3.0721,-3.2222,-3.4007,-3.6046,-3.6838,-3.7729,0.0,-1.4359,-1.307,-1.0586,-1.1284,-1.216,-1.0488,-1.2257,0.0,-1.5487,-1.6214,-1.7118,-1.8669,-1.9445,-2.013,-2.0951,-2.2076,-2.3288,-2.4545,-2.718,-3.03,-3.3846,-3.6217,-3.7787,-3.8416,-3.9719,-4.0669,-4.0964,-4.0644,-4.041,-4.0392,-4.0212,-4.012,-4.0157,-4.0157,-3.9911,-3.9395,-3.9111,-3.8652,-3.8074,-3.6932,-3.7141,-3.8546,-3.8389,-3.8919,-4.0041,-4.1114,-4.017,-3.8017,-3.9431,-3.8767,-3.695,-3.7758,-3.8558,-3.9258,-3.922,-3.8919,-3.8381,-3.7141,-3.6047,-3.4929,-3.3699,-3.3364,-3.3158,-3.1467,-2.9751,-2.7812,-2.5134,-2.3998,-2.3798,-2.4588,-2.658,-2.8912,-3.0793,-2.9817,-2.7886,-2.5866,-2.191,-1.8179,-1.6085,-1.5696,-1.5357,-1.4323,-1.4142,-1.2999,-0.9619,-0.8099,-0.6116,-0.259,-0.4107,-0.5435,-0.5323,-0.7544,-0.9923,-1.2145,-1.4343,-1.6101,-1.7326,-1.9418,-2.188,-2.479,-2.5965,-2.7801,-3.0315,-2.9856,-3.0636,-3.2749,-3.4556,-3.601,-3.721,-3.8016,-3.8736,-1.4078,0.0,-1.2453,-1.156,-1.1373,-1.1709,0.0,-1.4007,-1.5302,0.0,0.0,-1.8488,-1.9286,-2.0546,-2.1533,-2.1726,-2.3784,-2.5912,-2.7542,-3.1194,-3.448,-3.6575,-3.8703,-4.0047,-4.0207,-4.0523,-4.0762,-4.0848,-4.0713,-4.0523,-4.0253,-4.0158,-4.0309,-4.0777,-4.0681,-4.0585,-4.0465,-4.0408,-4.0198,-3.9734,-3.9259,-3.9298,-3.9877,-4.0218,-4.0534,-4.0836,-4.1089,-4.0766,-3.9946,-3.9258,-3.8813,-3.8512,-3.7348,-3.7323,-3.7879,-3.7242,-3.6959,-3.6697,-3.5485,-3.4444,-3.3379,-3.1795,-3.2133,-3.3115,-3.2691,-3.1952,-3.0695,-2.8179,-2.7344,-2.7152,-2.6863,-2.7289,-2.8184,-3.0107,-2.8661,-2.6426,-2.4937,-2.1586,-1.8179,-1.6085,-1.5696,-1.5613,-1.535,-1.5216,-1.4677,-1.2999,-1.1001,-0.8677,-0.6201,-0.6389,-0.6398,-0.5437,-0.8245,-1.0763,-1.2088,-1.3542,-1.5539,-1.8267,-2.1024,-2.3557,-2.5827,-2.8112,-2.9925,-3.1056,-3.209,-3.3117,-3.4137,-3.4994,-3.601,-3.721,-3.8224,-3.9328,-1.3909,-1.3653,-1.344,-1.3342,-1.3365,-1.377,-1.5257,0.0,0.0,0.0,0.0,-1.9178,-1.9807,-2.1454,-2.292,-2.3433,-2.4766,-2.6892,-3.0219,-3.3713,-3.66,-3.8354,-3.9899,-4.0791,-4.0805,-4.0791,-4.0804,-4.0804,-4.06,-4.0559,-4.0739,-4.0318,-4.0363,-4.108,-4.1128,-4.1175,-4.1203,-4.121,-4.1025,-4.0684,-4.0537,-4.0705,-4.123,-4.1701,-4.1856,-4.1866,-4.2271,-4.1562,-4.0017,-3.8866,-3.793,-3.7085,-3.5396,-3.5459,-3.6416,-3.5975,-3.6098,-3.6287,-3.4852,-3.3538,-3.2319,-3.1721,-3.2412,-3.3537,-3.3537,-3.3587,-3.3296,-3.1264,-3.045,-3.0041,-2.9318,-2.9367,-2.99,-3.0917,-2.9513,-2.752,-2.6206,-2.3423,-2.0528,-1.8266,-1.8169,-1.8351,-1.7888,-1.7771,-1.7314,-1.6209,-1.4031,-1.175,-0.938,-0.8625,-0.7757,-0.6587,-0.8665,-1.0952,-1.3207,-1.5365,-1.7627,-1.9976,-2.3255,-2.595,-2.7795,-3.0009,-3.1708,-3.2682,-3.3841,-3.4698,-3.5262,-3.6513,-3.7425,-3.8115,-3.9608,-4.0735,-1.4398,-1.4856,-1.5327,-1.48,-1.5409,-1.6355,-1.7155,0.0,0.0,0.0,0.0,0.0,0.0,-2.2474,0.0,-2.5876,-2.6136,-2.785,-3.2635,-3.5278,-3.7436,-3.9335,-4.024,-4.0708,-4.0716,-4.0655,-4.0619,-4.0619,-4.0406,-4.058,-4.1215,-4.06,-4.0587,-4.1327,-4.1493,-4.164,-4.1855,-4.1612,-4.1446,-4.1327,-4.1199,-4.1647,-4.2551,-4.2798,-4.2908,-4.2922,-4.3553,-4.214,-3.9261,-3.8046,-3.6356,-3.4348,-3.2852,-3.3235,-3.4607,-3.4713,-3.5351,-3.5817,-3.4118,-3.2514,-3.1398,-3.1973,-3.2862,-3.3808,-3.3959,-3.4691,-3.524,-3.3952,-3.3064,-3.2335,-3.1425,-3.1673,-3.2205,-3.2205,-3.1162,-2.9835,-2.8612,-2.6478,-2.4052,-2.1648,-2.1673,-2.1771,-2.068,-2.0457,-2.0093,-1.8905,-1.6934,-1.4708,-1.2383,-1.0928,-0.9599,-0.847,-0.9587,-1.1812,-1.5287,-1.8662,-2.1302,-2.3116,-2.616,-2.8581,-3.0309,-3.202,-3.3486,-3.4653,-3.5577,-3.626,-3.665,-3.8417,-3.9299,-3.9404,-4.125,-4.2189,-1.601,-1.7005,-1.7043,-1.359,-1.4319,-1.6334,-1.8143,0.0,0.0,0.0,0.0,0.0,0.0,-2.4149,-2.7759,-2.9357,-3.0225,-3.1724,-3.4693,-3.6124,-3.7516,-3.9237,-3.9934,-4.0289,-4.0291,-3.9975,-3.9772,-3.9772,-4.0367,-4.0653,-4.0483,-4.1045,-4.1605,-4.211,-4.1668,-4.1776,-4.2537,-4.1651,-4.1596,-4.2464,-4.1722,-4.2189,-4.3708,-4.3509,-4.3531,-4.3781,-4.3159,-4.1487,-3.9005,-3.6254,-3.4137,-3.2368,-3.1005,-3.0899,-3.1738,-3.2695,-3.3099,-3.2946,-3.0923,-3.0046,-2.9871,-2.9948,-3.1282,-3.2961,-3.3739,-3.4691,-3.5474,-3.5225,-3.4639,-3.3843,-3.2413,-3.2076,-3.2205,-3.2205,-3.1939,-3.166,-3.1333,-2.9642,-2.7652,-2.5583,-2.4073,-2.2822,-2.1771,-2.1642,-2.1256,-2.0102,-1.8734,-1.7067,-1.4816,-1.3435,-1.2193,-1.1079,-1.296,-1.5507,-1.8737,-2.2137,-2.586,-3.01,-3.027,-3.1117,-3.2966,-3.489,-3.6051,-3.6253,-3.8042,-3.8982,-3.9045,-3.9766,-4.0271,-4.0634,-4.1622,-4.2654,-1.5748,-1.7328,-1.7931,-1.3899,-1.602,-1.9525,-2.1123,0.0,0.0,0.0,0.0,0.0,0.0,-2.5447,-2.8086,-3.012,-3.2377,-3.4431,-3.6071,-3.7332,-3.8524,-3.9685,-3.9928,-3.9943,-3.9886,-3.9449,-3.9189,-3.9189,-3.9482,-3.9774,-4.0061,-4.0702,-4.1343,-4.2003,-4.1751,-4.1629,-4.1707,-4.1248,-4.1558,-4.2711,-4.2296,-4.2668,-4.3726,-4.3758,-4.359,-4.3281,-4.2594,-4.0411,-3.7083,-3.4682,-3.2196,-2.9718,-2.8553,-2.8959,-3.0338,-3.1329,-3.1416,-3.0751,-2.9183,-2.8687,-2.8959,-2.9961,-3.1343,-3.289,-3.4327,-3.5133,-3.5504,-3.5504,-3.528,-3.4887,-3.4174,-3.3956,-3.3956,-3.3956,-3.4017,-3.3967,-3.3706,-3.2687,-3.1184,-2.8983,-2.7048,-2.5303,-2.3753,-2.2934,-2.2378,-2.1835,-2.0761,-1.9331,-1.7702,-1.5796,-1.4328,-1.3851,-1.5349,-1.7873,-2.1807,-2.5558,-2.9359,-3.3021,-3.3748,-3.475,-3.6293,-3.7234,-3.8104,-3.891,-3.9824,-4.0518,-4.0941,-4.1588,-4.201,-4.2212,-4.3322,-4.4136,-1.5226,-1.6742,-1.7957,-1.6336,0.0,-2.2518,-2.4429,-2.4889,0.0,0.0,0.0,0.0,0.0,-2.7082,-2.9076,-3.1003,-3.3883,-3.6164,-3.6993,-3.8155,-3.9211,-3.9973,-3.9806,-3.9544,-3.9339,-3.8885,-3.8543,-3.8409,-3.8375,-3.8795,-3.9748,-4.0017,-4.0551,-4.1472,-4.1208,-4.0828,-4.0374,-4.0214,-4.088,-4.2302,-4.244,-4.2828,-4.3458,-4.3605,-4.3261,-4.2474,-4.1569,-3.8819,-3.4851,-3.2872,-3.0103,-2.7071,-2.6345,-2.7383,-2.9232,-3.0049,-2.9656,-2.8687,-2.7873,-2.7761,-2.8342,-3.0325,-3.1852,-3.3241,-3.4986,-3.5504,-3.5504,-3.5504,-3.5504,-3.5504,-3.5504,-3.5504,-3.5504,-3.5504,-3.5658,-3.5767,-3.5561,-3.4928,-3.3768,-3.1477,-2.9315,-2.7221,-2.5189,-2.3887,-2.3135,-2.3135,-2.2031,-2.0845,-1.967,-1.7524,-1.6209,-1.6209,-1.7629,-2.0674,-2.5825,-2.9816,-3.3042,-3.5341,-3.6633,-3.7713,-3.8651,-3.9101,-3.9875,-4.1158,-4.1564,-4.208,-4.268,-4.3303,-4.3649,-4.378,-4.4789,-4.5304,-1.5249,-1.5338,-1.6778,-2.2092,-2.2901,0.0,-2.7116,-2.5495,0.0,-2.6622,0.0,0.0,-2.563,-2.9555,-3.2966,-3.3631,-3.5215,-3.6609,-3.7349,-3.7997,-3.8671,-3.9547,-3.9352,-3.8971,-3.8534,-3.8186,-3.7789,-3.7361,-3.7356,-3.8029,-3.9461,-3.8977,-3.9281,-4.062,-3.9463,-3.8825,-3.8772,-3.8261,-3.904,-4.1041,-4.1578,-4.2336,-4.3222,-4.2923,-4.2535,-4.1911,-3.9665,-3.6594,-3.2953,-3.0388,-2.7589,-2.5031,-2.4946,-2.6273,-2.8231,-2.8311,-2.7671,-2.6707,-2.6625,-2.7209,-2.8246,-3.0299,-3.2354,-3.4095,-3.5133,-3.5504,-3.5504,-3.5504,-3.5504,-3.5504,-3.5504,-3.5504,-3.5504,-3.5504,-3.6024,-3.6538,-3.6523,-3.5778,-3.4507,-3.2403,-2.9806,-2.7221,-2.5189,-2.3887,-2.3135,-2.3135,-2.2031,-2.0845,-1.967,-1.8403,-1.7591,-1.7591,-2.0323,-2.5087,-3.2222,-3.552,-3.7646,-3.851,-3.8756,-3.8772,-3.8712,-4.021,-4.1325,-4.2004,-4.3539,-4.4365,-4.4436,-4.4492,-4.4707,-4.5057,-4.5098,-4.5337,-1.5349,-1.5262,-1.6256,-2.0678,-2.2226,0.0,0.0,-2.7266,-2.8015,-2.8408,-2.86,-2.873,-2.8732,-3.0224,-3.1916,-3.3278,-3.525,-3.6669,-3.6911,-3.7753,-3.8349,-3.8368,-3.8095,-3.7855,-3.7683,-3.6879,-3.6266,-3.6094,-3.569,-3.5668,-3.6219,-3.661,-3.7044,-3.7578,-3.742,-3.6878,-3.5801,-3.6307,-3.6428,-3.6182,-3.8662,-4.0165,-4.0885,-4.0767,-4.0105,-3.8925,-3.6821,-3.3454,-2.9218,-2.705,-2.4723,-2.2863,-2.502,-2.6378,-2.7128,-2.7128,-2.6883,-2.64,-2.5714,-2.6546,-2.8222,-3.0299,-3.2354,-3.4177,-3.5213,-3.5504,-3.5504,-3.5504,-3.5831,-3.6054,-3.5619,-3.5504,-3.5504,-3.5504,-3.6054,-3.6461,-3.5887,-3.4877,-3.3581,-3.1629,-2.887,-2.6374,-2.502,-2.4457,-2.4125,-2.4125,-2.376,-2.3027,-2.1859,-2.0639,-2.0198,-2.0873,-2.5473,-3.0316,-3.4921,-3.725,-3.8983,-4.0051,-4.0189,-4.0388,-4.0918,-4.1922,-4.2936,-4.3943,-4.4592,-4.5011,-4.5222,-4.5222,-4.5339,-4.5573,-4.5551,-4.564,-1.5914,-1.5271,-1.6282,-2.0752,0.0,0.0,-2.6769,-2.873,-3.039,-3.0691,-3.1197,-3.1727,-3.2144,-3.1733,-3.1914,-3.3658,-3.5231,-3.631,-3.6565,-3.7418,-3.7848,-3.7362,-3.7053,-3.6702,-3.6238,-3.5009,-3.4003,-3.3616,-3.2716,-3.2421,-3.2901,-3.3273,-3.3657,-3.409,-3.4244,-3.376,-3.263,-3.3383,-3.3168,-3.2111,-3.448,-3.6416,-3.7785,-3.7785,-3.6878,-3.5217,-3.3078,-2.9922,-2.6223,-2.4576,-2.3332,-2.2688,-2.5441,-2.6719,-2.6964,-2.6637,-2.6719,-2.6883,-2.5714,-2.6699,-2.8782,-3.0861,-3.2453,-3.3808,-3.5133,-3.5279,-3.5067,-3.5424,-3.6054,-3.6446,-3.5668,-3.5668,-3.5831,-3.5831,-3.5834,-3.5537,-3.4559,-3.3246,-3.1656,-2.9655,-2.7366,-2.5511,-2.4935,-2.4787,-2.4957,-2.5294,-2.5378,-2.4756,-2.3162,-2.2309,-2.2582,-2.4555,-2.9451,-3.3864,-3.7197,-3.8543,-3.9784,-4.1115,-4.1358,-4.1813,-4.2558,-4.3059,-4.3901,-4.5074,-4.5201,-4.5381,-4.5643,-4.5643,-4.5738,-4.589,-4.585,-4.5859,-1.7091,-1.5296,-1.6909,0.0,0.0,0.0,-3.0389,-2.9707,-3.0016,-3.3415,-3.3743,-3.3897,-3.5408,-3.445,-3.3891,-3.5276,-3.5343,-3.5563,-3.6456,-3.6934,-3.7029,-3.6688,-3.6277,-3.554,-3.4192,-3.2514,-3.098,-2.9695,-2.837,-2.8319,-2.9807,-2.8847,-2.8946,-3.0421,-2.9717,-2.9289,-2.9213,-2.9213,-2.9213,-2.9201,-2.9213,-3.0931,-3.4035,-3.4035,-3.3006,-3.1075,-2.8363,-2.6063,-2.4284,-2.3342,-2.37,-2.4872,-2.6058,-2.7128,-2.7936,-2.6883,-2.7197,-2.7924,-2.6883,-2.7853,-2.9821,-3.1906,-3.2593,-3.2961,-3.492,-3.4758,-3.4177,-3.5213,-3.5991,-3.6446,-3.5733,-3.6054,-3.6615,-3.66,-3.5245,-3.3696,-3.2597,-3.0869,-2.886,-2.6644,-2.5438,-2.4787,-2.4787,-2.4872,-2.5199,-2.6389,-2.6554,-2.5681,-2.3335,-2.3075,-2.4514,-2.82,-3.1597,-3.526,-3.9429,-3.98,-4.0405,-4.1707,-4.2382,-4.2848,-4.3204,-4.3521,-4.4148,-4.5096,-4.5419,-4.568,-4.5796,-4.5796,-4.5892,-4.6082,-4.5953,-4.5897,-2.156,-2.2308,0.0,-2.4807,0.0,0.0,0.0,-3.1638,0.0,0.0,-3.5218,-3.4969,-3.4639,-3.5361,-3.5889,-3.5549,-3.674,-3.7243,-3.605,-3.5904,-3.5372,-3.4007,-3.2937,-3.1971,-3.1036,-2.876,-2.748,-2.7827,-2.6164,-2.5648,-2.6781,-2.6661,-2.6761,-2.7155,-2.7263,-2.6549,-2.4892,-2.5617,-2.515,-2.3503,-2.4336,-2.6872,-3.0698,-3.0698,-2.9609,-2.7538,-2.5901,-2.3507,-2.0802,-2.0578,-2.1682,-2.37,-2.5692,-2.7128,-2.8084,-2.7763,-2.7844,-2.8084,-2.7763,-2.8421,-2.9758,-3.1127,-3.2033,-3.2678,-3.3255,-3.3739,-3.4095,-3.4394,-3.5484,-3.6554,-3.6337,-3.6446,-3.6291,-3.505,-3.4418,-3.3338,-3.0908,-2.9312,-2.777,-2.5626,-2.5009,-2.5009,-2.5655,-2.7036,-2.8494,-2.949,-2.9052,-2.7817,-2.5742,-2.6723,-2.8443,-3.077,-3.4115,-3.7116,-3.9615,-4.0659,-4.1542,-4.2382,-4.2616,-4.296,-4.3521,-4.4055,-4.4681,-4.5438,-4.555,-4.5605,-4.5643,-4.5757,-4.5847,-4.5964,-4.593,-4.5945,-1.9737,-2.105,0.0,-2.1679,-2.1834,-2.3241,-2.8457,0.0,0.0,-3.5456,-3.5505,-3.5151,-3.4659,-3.5284,-3.5676,-3.5036,-3.636,-3.7035,-3.5786,-3.4478,-3.2748,-3.0313,-2.9552,-2.8764,-2.7566,-2.4976,-2.363,-2.4376,-2.3108,-2.2894,-2.4356,-2.444,-2.4691,-2.5098,-2.4692,-2.3796,-2.2309,-2.2505,-2.1864,-2.0471,-2.1148,-2.2879,-2.5393,-2.5872,-2.5063,-2.3458,-2.2726,-2.1289,-1.9496,-2.0433,-2.229,-2.4544,-2.6438,-2.7787,-2.8688,-2.8255,-2.8426,-2.8688,-2.8255,-2.8785,-2.9782,-3.0869,-3.1328,-3.1623,-3.2393,-3.2749,-3.3031,-3.3808,-3.497,-3.6058,-3.6134,-3.6384,-3.6213,-3.4824,-3.3969,-3.2693,-3.0049,-2.8675,-2.7509,-2.5775,-2.5753,-2.6479,-2.7739,-2.9378,-3.0877,-3.1959,-3.0969,-2.9503,-2.7921,-2.9707,-3.1728,-3.3316,-3.6319,-3.8987,-4.0793,-4.1715,-4.2422,-4.2976,-4.3014,-4.3332,-4.4036,-4.4417,-4.4919,-4.5586,-4.5586,-4.5624,-4.568,-4.5757,-4.5829,-4.5899,-4.5899,-4.5923,-1.3828,0.0,0.0,-1.5228,-1.6757,0.0,-2.6121,-3.0337,-3.3365,-3.4956,-3.4884,-3.4663,-3.5109,-3.4614,-3.4078,-3.397,-3.4688,-3.5155,-3.4771,-3.2446,-2.9498,-2.6188,-2.6185,-2.5772,-2.4048,-2.1302,-1.9851,-2.0265,-1.9808,-2.0434,-2.2434,-2.2439,-2.276,-2.3577,-2.2032,-2.1114,-2.0935,-1.9852,-1.9314,-1.9123,-1.9123,-1.9222,-1.9397,-2.0561,-2.0569,-1.967,-1.9588,-1.9579,-2.0017,-2.2114,-2.4459,-2.6719,-2.7695,-2.8767,-2.9702,-2.8597,-2.8937,-2.9624,-2.8597,-2.8937,-2.9934,-3.0833,-3.0495,-3.0152,-3.1829,-3.1829,-3.1609,-3.338,-3.4478,-3.517,-3.5444,-3.6006,-3.6276,-3.5349,-3.383,-3.2064,-3.0049,-2.888,-2.7912,-2.693,-2.7554,-2.8827,-3.0632,-3.1771,-3.268,-3.3661,-3.2343,-3.0921,-3.0024,-3.2079,-3.4233,-3.5667,-3.8262,-4.0625,-4.2559,-4.2732,-4.2976,-4.3479,-4.3497,-4.3823,-4.4553,-4.458,-4.4919,-4.5586,-4.5586,-4.5643,-4.5776,-4.576,-4.5804,-4.5842,-4.5813,-4.5774,-1.1953,-0.9042,0.0,0.0,-1.3678,-2.0468,-2.4208,-2.807,-3.1391,-3.3304,-3.4208,-3.4595,-3.4398,-3.4746,-3.4604,-3.3083,-3.2895,-3.1793,-2.8601,-2.763,-2.6294,-2.3593,-2.3024,-2.2375,-2.1336,-1.8443,-1.734,-1.9167,-1.9107,-1.9548,-2.0995,-2.1445,-2.147,-2.0913,-2.0218,-1.9397,-1.8503,-1.8234,-1.7584,-1.656,-1.656,-1.7117,-1.8141,-2.0279,-2.1087,-2.0845,-1.9943,-2.0541,-2.229,-2.2814,-2.4862,-2.7763,-2.8016,-2.8767,-2.9792,-2.9534,-2.9624,-2.9792,-2.9534,-2.9611,-2.9869,-3.0075,-2.9921,-2.9869,-3.0292,-3.0771,-3.1462,-3.2593,-3.3573,-3.4485,-3.5264,-3.5619,-3.5494,-3.447,-3.3421,-3.228,-3.0935,-2.9897,-2.913,-2.8762,-3.008,-3.1544,-3.2734,-3.3825,-3.4398,-3.4023,-3.3614,-3.3226,-3.2905,-3.4022,-3.5582,-3.7582,-3.9362,-4.1041,-4.2559,-4.3105,-4.3375,-4.3479,-4.3497,-4.3823,-4.4553,-4.458,-4.4919,-4.5586,-4.5586,-4.5605,-4.5624,-4.5492,-4.5409,-4.5417,-4.5194,-4.5113,0.0,0.0,0.0,-0.7851,0.0,-1.9362,-2.2788,-2.6066,-2.8968,-3.122,-3.2972,-3.3825,-3.2795,-3.2968,-3.2536,-3.0339,-2.9977,-2.908,-2.6518,-2.5699,-2.4439,-2.1916,-2.1692,-2.1065,-1.9104,-1.7463,-1.6927,-1.8069,-1.8665,-1.9358,-2.042,-2.0714,-2.0485,-1.9982,-1.91,-1.8319,-1.7692,-1.7692,-1.7037,-1.5825,-1.7023,-1.8211,-1.9405,-2.0124,-2.0486,-2.0486,-2.0395,-2.1346,-2.3075,-2.4204,-2.6075,-2.8164,-2.8688,-2.9287,-2.9702,-2.9197,-2.9028,-2.8937,-2.8383,-2.8211,-2.8291,-2.8858,-2.9028,-2.9106,-2.9624,-3.0495,-3.1389,-3.2321,-3.331,-3.4245,-3.5213,-3.5504,-3.5359,-3.4839,-3.3973,-3.3003,-3.201,-3.1343,-3.1082,-3.142,-3.2584,-3.3995,-3.5226,-3.6014,-3.6168,-3.5269,-3.52,-3.52,-3.5051,-3.6199,-3.7616,-3.9278,-4.0498,-4.176,-4.3193,-4.359,-4.3758,-4.3758,-4.3758,-4.3912,-4.4308,-4.4318,-4.4713,-4.5586,-4.5438,-4.5362,-4.5362,-4.508,-4.4971,-4.4952,-4.4511,-4.4484,0.0,0.0,-0.6058,-1.0573,-1.4328,0.0,-2.1785,-2.4723,-2.726,-2.9447,-3.1551,-3.2505,-3.0881,-3.037,-2.9346,-2.6848,-2.6644,-2.6483,-2.5562,-2.4835,-2.3523,-2.1373,-2.1422,-2.0678,-1.8106,-1.7326,-1.7172,-1.7577,-1.8292,-1.9149,-2.0139,-1.9825,-1.949,-1.9347,-1.7967,-1.7446,-1.7692,-1.7692,-1.7318,-1.6473,-1.8764,-2.0305,-2.1293,-2.0486,-2.0133,-2.0223,-2.1373,-2.2581,-2.3766,-2.5931,-2.7452,-2.8518,-2.9443,-2.9792,-2.9624,-2.8518,-2.8096,-2.7936,-2.7035,-2.6801,-2.6964,-2.8016,-2.8426,-2.8597,-2.9534,-3.0495,-3.1389,-3.2321,-3.331,-3.4245,-3.5213,-3.5504,-3.5504,-3.5504,-3.4839,-3.4095,-3.3421,-3.3199,-3.3295,-3.4295,-3.5209,-3.626,-3.7518,-3.785,-3.7742,-3.6924,-3.6883,-3.6974,-3.6967,-3.829,-3.9598,-4.0689,-4.1515,-4.2528,-4.3887,-4.3955,-4.3924,-4.4016,-4.3955,-4.3924,-4.4016,-4.3918,-4.4298,-4.5246,-4.5099,-4.5011,-4.5011,-4.4657,-4.4501,-4.4501,-4.3811,-4.3781,0.0,0.0,-0.6612,0.0,-1.4188,-1.7662,0.0,-2.5123,-2.831,-2.9297,-3.0242,-3.0467,-2.915,-2.8015,-2.6337,-2.3505,-2.323,-2.3153,-2.2581,-2.311,-2.3498,-2.3154,-2.1631,-2.042,-2.0042,-1.7527,-1.6683,-1.863,-1.7912,-1.7974,-1.9097,-1.8379,-1.7665,-1.7083,-1.6161,-1.6309,-1.7684,-1.7692,-1.8141,-1.9039,-2.0387,-2.1114,-2.1293,-2.2217,-2.2599,-2.2677,-2.3846,-2.4946,-2.6119,-2.7348,-2.8518,-2.9624,-2.9714,-2.9792,-2.9624,-2.8518,-2.8096,-2.8096,-2.7924,-2.7936,-2.8096,-2.9197,-2.9534,-2.9624,-2.9792,-3.0495,-3.1389,-3.2321,-3.331,-3.4245,-3.5213,-3.5504,-3.5504,-3.5504,-3.5424,-3.5444,-3.5963,-3.5428,-3.5319,-3.6946,-3.7898,-3.846,-3.8696,-3.8728,-3.8679,-3.8357,-3.8341,-3.8591,-3.9239,-3.9929,-4.0706,-4.1568,-4.2185,-4.2978,-4.3906,-4.3726,-4.3693,-4.3986,-4.3726,-4.3693,-4.3986,-4.356,-4.3513,-4.3952,-4.4414,-4.4676,-4.4676,-4.4261,-4.4087,-4.4058,-4.3228,-4.2867,-0.4622,-0.5487,-0.7312,0.0,-1.4803,-1.8189,-2.2221,-2.5543,-2.8198,-2.9597,-2.9599,-2.8901,-2.7376,-2.5707,-2.3683,-2.0948,-2.0432,-2.0535,-2.1009,-2.2878,-2.4221,-2.4221,-2.3887,-2.3032,-2.1292,-1.9431,-1.8249,-1.806,-1.7543,-1.7212,-1.7163,-1.6885,-1.639,-1.5472,-1.5864,-1.6523,-1.7385,-1.8741,-2.0107,-2.1498,-2.1391,-2.1658,-2.2306,-2.2862,-2.3464,-2.4049,-2.4617,-2.5786,-2.7441,-2.7936,-2.8767,-2.9792,-2.9792,-2.9792,-2.9624,-2.8518,-2.8096,-2.8004,-2.7452,-2.7197,-2.7371,-2.8518,-2.8858,-2.8937,-2.9624,-3.0846,-3.2105,-3.2464,-3.3685,-3.492,-3.5359,-3.5504,-3.5504,-3.5504,-3.5504,-3.5846,-3.7055,-3.6614,-3.6461,-3.8101,-3.9032,-3.9525,-3.9425,-3.9391,-3.9547,-3.998,-3.9856,-4.0069,-4.1069,-4.1236,-4.1515,-4.2244,-4.27,-4.3261,-4.3937,-4.4076,-4.3949,-4.356,-4.3398,-4.3156,-4.2795,-4.2551,-4.2477,-4.2631,-4.3094,-4.331,-4.331,-4.2959,-4.2941,-4.3246,-4.2544,-4.2541,0.0,0.0,-0.7915,-1.2187,-1.5629,-1.9071,0.0,-2.6169,-2.8295,-2.9756,-2.9361,-2.8102,-2.6029,-2.3966,-2.1619,-1.8938,-1.8378,-1.8861,-2.0414,-2.3039,-2.5001,-2.5456,-2.5977,-2.5281,-2.2714,-2.1009,-1.933,-1.7819,-1.6935,-1.6281,-1.5703,-1.5599,-1.5276,-1.4516,-1.5748,-1.6831,-1.7694,-2.0096,-2.1917,-2.3047,-2.2217,-2.2217,-2.3135,-2.3135,-2.3887,-2.521,-2.521,-2.6427,-2.8445,-2.8773,-2.9369,-3.0139,-3.0139,-2.9998,-2.9624,-2.8518,-2.8096,-2.8016,-2.7209,-2.6883,-2.7128,-2.8187,-2.8518,-2.8688,-2.9534,-3.1132,-3.2593,-3.2593,-3.3973,-3.5504,-3.5504,-3.5504,-3.5504,-3.5504,-3.5504,-3.591,-3.7472,-3.7616,-3.7857,-3.9179,-3.9868,-4.0285,-4.0326,-4.0384,-4.0728,-4.1586,-4.1452,-4.1582,-4.2428,-4.234,-4.2364,-4.2655,-4.305,-4.348,-4.3967,-4.4069,-4.3776,-4.2937,-4.2668,-4.2157,-4.1262,-4.1084,-4.0993,-4.0993,-4.1296,-4.1683,-4.2174,-4.1932,-4.2121,-4.2711,-4.208,-4.2266,0.0,-0.6328,0.0,-1.2753,-1.6577,-2.0247,-2.3778,-2.6912,-2.9188,-2.9396,-2.9406,-2.8467,-2.559,-2.3122,-2.0545,-1.7571,-1.755,-1.8722,-2.0855,-2.3247,-2.5456,-2.7298,-2.679,-2.5827,-2.4778,-2.112,-1.8919,-1.8948,-1.6041,-1.4657,-1.5621,-1.4748,-1.4314,-1.4509,-1.5533,-1.7031,-1.8952,-2.1641,-2.3028,-2.3135,-2.3047,-2.3047,-2.3135,-2.3135,-2.4307,-2.6389,-2.6389,-2.7544,-2.9528,-3.0605,-3.1093,-3.1106,-3.1106,-3.0558,-2.9624,-2.8518,-2.8096,-2.8096,-2.8016,-2.8004,-2.8176,-2.9365,-2.9702,-2.9702,-2.9792,-3.1132,-3.2593,-3.2593,-3.3973,-3.5504,-3.5504,-3.5504,-3.5504,-3.5504,-3.5504,-3.591,-3.7472,-3.8941,-4.007,-4.0668,-4.081,-4.1041,-4.1621,-4.1948,-4.239,-4.2992,-4.3098,-4.3098,-4.3151,-4.3316,-4.325,-4.275,-4.316,-4.3627,-4.3986,-4.3246,-4.2571,-4.2082,-4.1223,-4.04,-3.9661,-3.9072,-3.8772,-3.8772,-3.899,-3.9983,-4.1835,-4.1793,-4.2121,-4.2711,-4.208,-4.1835,0.0,0.0,0.0,-1.2749,-1.6544,-2.0124,-2.367,-2.693,-2.9231,-2.927,-2.935,-2.8514,-2.5551,-2.3052,-2.0648,-1.8209,-1.8385,-1.935,-2.0959,-2.4305,-2.6809,-2.7577,-2.788,-2.7194,-2.5001,-2.1786,-1.8916,-1.6993,-1.4406,-1.3099,-1.351,-1.3184,-1.3338,-1.4242,-1.5966,-1.8213,-2.0874,-2.2083,-2.2871,-2.3135,-2.3135,-2.3135,-2.3135,-2.3135,-2.4307,-2.6554,-2.7128,-2.8609,-3.0667,-3.1656,-3.2105,-3.2105,-3.2105,-3.1536,-3.0607,-3.0266,-2.9679,-2.9197,-2.9197,-2.9197,-2.9275,-2.9702,-2.9792,-2.9934,-3.0482,-3.1609,-3.2749,-3.331,-3.4476,-3.5504,-3.5504,-3.5504,-3.5619,-3.6117,-3.6585,-3.7235,-3.8302,-3.9332,-4.0237,-4.078,-4.0903,-4.1206,-4.2221,-4.2665,-4.3164,-4.3994,-4.3893,-4.3801,-4.4071,-4.3754,-4.341,-4.325,-4.3575,-4.3656,-4.3194,-4.2594,-4.1505,-3.9791,-3.8907,-3.8112,-3.7536,-3.7297,-3.7451,-3.8076,-3.8157,-3.875,-3.9918,-4.0446,-4.0984,-4.1534,-4.1313,-4.1446,-0.538,0.0,0.0,0.0,-1.6954,-2.0294,-2.3802,-2.6645,-2.8581,-2.8784,-2.8945,-2.8311,-2.5897,-2.3717,-2.1481,-1.9053,-1.9094,-2.0052,-2.1723,-2.4994,-2.7457,-2.8076,-2.8387,-2.7407,-2.4508,-2.1541,-1.8671,-1.586,-1.3917,-1.2942,-1.2942,-1.2942,-1.3451,-1.4566,-1.6554,-1.8663,-2.1139,-2.2049,-2.2656,-2.293,-2.3076,-2.3135,-2.3135,-2.3464,-2.4723,-2.6554,-2.8258,-2.9973,-3.1742,-3.2664,-3.3101,-3.3101,-3.3101,-3.2536,-3.1669,-3.1669,-3.1267,-3.0709,-3.0709,-3.0709,-3.0709,-3.0343,-3.0495,-3.0771,-3.1119,-3.2105,-3.3171,-3.3808,-3.4691,-3.5504,-3.5504,-3.5668,-3.607,-3.6798,-3.7742,-3.8531,-3.8854,-3.9542,-4.0237,-4.078,-4.1087,-4.1534,-4.2537,-4.3139,-4.3688,-4.4299,-4.4175,-4.4106,-4.4346,-4.3868,-4.3497,-4.3497,-4.3542,-4.321,-4.2354,-4.1357,-3.9881,-3.7773,-3.6668,-3.5815,-3.5115,-3.513,-3.5558,-3.6492,-3.6781,-3.7318,-3.8157,-3.9193,-4.0119,-4.0903,-4.0634,-4.0418,0.0,0.0,0.0,0.0,-1.7916,-2.0774,-2.4154,-2.6065,-2.7313,-2.7909,-2.8142,-2.7839,-2.6513,-2.5067,-2.3065,-1.9912,-1.9744,-2.0826,-2.3161,-2.5371,-2.7273,-2.8766,-2.8085,-2.6346,-2.3478,-2.0483,-1.794,-1.5771,-1.465,-1.4082,-1.4082,-1.4088,-1.4573,-1.5703,-1.7183,-1.8537,-1.9698,-2.1623,-2.25,-2.2519,-2.2939,-2.3135,-2.3135,-2.4296,-2.5462,-2.6707,-2.9707,-3.1621,-3.2749,-3.3671,-3.4027,-3.4027,-3.4027,-3.3449,-3.2664,-3.2664,-3.2593,-3.2593,-3.2593,-3.2593,-3.2464,-3.1536,-3.1888,-3.2464,-3.1536,-3.2522,-3.4027,-3.4027,-3.4758,-3.5504,-3.5504,-3.6117,-3.6843,-3.769,-3.8863,-3.9665,-3.909,-3.9594,-4.0286,-4.078,-4.1358,-4.1979,-4.2577,-4.3385,-4.3967,-4.3967,-4.3998,-4.4016,-4.4016,-4.3693,-4.3497,-4.3497,-4.2958,-4.2293,-4.151,-3.951,-3.7679,-3.6164,-3.4558,-3.3391,-3.2593,-3.2522,-3.3031,-3.3945,-3.4714,-3.5604,-3.6538,-3.8101,-3.9562,-4.0792,-4.0033,-3.8791,-0.6305,0.0,0.0,0.0,0.0,0.0,-2.2429,-2.4248,-2.5771,-2.6602,-2.6775,-2.6498,-2.5668,-2.4313,-2.2911,-2.1397,-2.159,-2.2327,-2.3564,-2.6051,-2.7672,-2.7357,-2.7444,-2.6143,-2.2622,-2.0159,-1.7603,-1.465,-1.3425,-1.2766,-1.2766,-1.3646,-1.4985,-1.6764,-1.727,-1.8896,-2.1768,-2.2756,-2.331,-2.3576,-2.4091,-2.3887,-2.3135,-2.4296,-2.5826,-2.7646,-2.9998,-3.1983,-3.3671,-3.4691,-3.5067,-3.5067,-3.5067,-3.4476,-3.3602,-3.3602,-3.3171,-3.2593,-3.2593,-3.2593,-3.2522,-3.2321,-3.2393,-3.2664,-3.3101,-3.3602,-3.4177,-3.4905,-3.5279,-3.5619,-3.6165,-3.7152,-3.8241,-3.908,-3.9832,-4.0397,-4.036,-4.0525,-4.0733,-4.0856,-4.1041,-4.1358,-4.1937,-4.2814,-4.3424,-4.3424,-4.3757,-4.4016,-4.4016,-4.3387,-4.2939,-4.2939,-4.1878,-4.0934,-4.0319,-3.8074,-3.6104,-3.4558,-3.2863,-3.1847,-3.1609,-3.1609,-3.2033,-3.2961,-3.3199,-3.3762,-3.4574,-3.6974,-3.8286,-3.8641,-3.7753,-3.6395,-0.807,-1.0538,0.0,-1.5772,0.0,0.0,-2.264,-2.3963,-2.5028,-2.5627,-2.5851,-2.5693,-2.4897,-2.3961,-2.3021,-2.2174,-2.2591,-2.3339,-2.4218,-2.6408,-2.768,-2.7004,-2.6633,-2.5012,-2.1217,-1.9242,-1.7017,-1.4273,-1.3444,-1.3027,-1.3027,-1.373,-1.4901,-1.6601,-1.709,-1.87,-2.17,-2.2652,-2.337,-2.3679,-2.4221,-2.4206,-2.3877,-2.5408,-2.699,-2.8717,-3.1203,-3.3128,-3.4559,-3.5578,-3.5782,-3.5504,-3.5504,-3.5133,-3.4624,-3.4624,-3.4259,-3.3837,-3.3837,-3.3837,-3.3685,-3.289,-3.3185,-3.3754,-3.3533,-3.3959,-3.481,-3.5688,-3.6353,-3.6974,-3.7719,-3.8698,-3.9631,-4.0418,-4.1066,-4.1376,-4.0961,-4.1087,-4.1133,-4.0672,-4.0733,-4.0995,-4.1358,-4.2078,-4.2684,-4.296,-4.3049,-4.3173,-4.3419,-4.2495,-4.1795,-4.1795,-4.0608,-3.9379,-3.8351,-3.6331,-3.4478,-3.2821,-3.1362,-3.0633,-3.0633,-3.0633,-3.1044,-3.2033,-3.2033,-3.2423,-3.3336,-3.5224,-3.6137,-3.6137,-3.5576,-3.4383,-1.0457,-1.3008,0.0,-1.9182,-2.1055,0.0,-2.3832,-2.4497,-2.4884,-2.4943,-2.5042,-2.4922,-2.4111,-2.3603,-2.3013,-2.2216,-2.2778,-2.3715,-2.4962,-2.6525,-2.7426,-2.71,-2.5879,-2.3541,-1.9752,-1.8074,-1.639,-1.4203,-1.4068,-1.4088,-1.4088,-1.425,-1.4734,-1.5861,-1.6927,-1.8506,-2.0738,-2.2082,-2.293,-2.3419,-2.3956,-2.443,-2.4798,-2.7036,-2.8638,-2.9809,-3.2863,-3.4611,-3.5461,-3.6369,-3.6275,-3.5619,-3.5619,-3.5554,-3.5504,-3.5504,-3.5504,-3.5504,-3.5504,-3.5439,-3.5067,-3.3325,-3.3837,-3.4854,-3.3255,-3.3973,-3.5524,-3.6384,-3.7614,-3.8911,-3.9632,-4.0302,-4.1024,-4.1715,-4.2302,-4.2382,-4.1268,-4.1358,-4.1358,-4.017,-4.0431,-4.0763,-4.0698,-4.1251,-4.1895,-4.244,-4.2003,-4.186,-4.2404,-4.1218,-4.0324,-4.0242,-3.9004,-3.7576,-3.5998,-3.4427,-3.2835,-3.1315,-3.0355,-2.9792,-2.9792,-2.9792,-3.0216,-3.1044,-3.1044,-3.1476,-3.2321,-3.3198,-3.3554,-3.332,-3.332,-3.2384,-1.1246,-1.473,-1.7919,-1.8724,-2.2012,0.0,-2.3449,-2.4224,-2.51,-2.4741,-2.3802,-2.3054,-2.3194,-2.2178,-2.1254,-2.0964,-2.193,-2.3365,-2.5092,-2.6608,-2.7213,-2.6461,-2.5279,-2.3077,-1.9461,-1.7737,-1.5934,-1.3885,-1.3948,-1.4088,-1.4088,-1.4894,-1.5869,-1.6927,-1.8069,-2.0012,-2.2903,-2.2873,-2.3249,-2.4029,-2.499,-2.506,-2.4418,-2.7684,-2.972,-3.0908,-3.3743,-3.5492,-3.6384,-3.7203,-3.71,-3.6384,-3.6384,-3.5991,-3.5504,-3.5504,-3.5504,-3.5504,-3.5504,-3.4986,-3.4245,-3.3876,-3.3463,-3.3255,-3.3602,-3.3959,-3.4633,-3.6151,-3.8044,-3.9615,-3.975,-4.1039,-4.2329,-4.248,-4.2616,-4.248,-4.1768,-4.1358,-4.0698,-3.9387,-3.9749,-4.007,-3.9423,-4.0297,-4.1133,-4.1206,-4.1021,-4.0871,-4.1006,-3.9844,-3.8725,-3.7954,-3.6692,-3.5419,-3.4339,-3.2681,-3.1569,-3.1254,-3.0355,-2.9792,-2.9792,-2.9792,-2.9869,-3.0075,-3.0075,-3.0139,-3.0355,-3.2019,-3.1996,-3.0312,-3.0312,-2.9272,-1.3032,-1.6739,-2.0247,-2.1858,-2.3988,0.0,0.0,-2.4981,-2.4838,-2.4639,-2.3552,-2.2541,-2.221,-2.1398,-2.0677,-2.0256,-2.1315,-2.2511,-2.3473,-2.5244,-2.6134,-2.5341,-2.4124,-2.207,-1.8883,-1.7331,-1.5646,-1.3709,-1.4262,-1.4731,-1.4887,-1.5951,-1.7009,-1.8149,-1.8718,-2.0187,-2.2702,-2.2573,-2.3036,-2.42,-2.5015,-2.5769,-2.6503,-2.9087,-3.1322,-3.3223,-3.5111,-3.6583,-3.7758,-3.7806,-3.7573,-3.716,-3.6737,-3.6165,-3.5504,-3.5504,-3.5213,-3.4758,-3.4758,-3.4109,-3.3241,-3.2749,-3.2593,-3.2678,-3.3171,-3.4545,-3.6058,-3.6948,-3.8957,-4.0799,-4.0799,-4.1949,-4.3105,-4.3105,-4.2902,-4.2519,-4.1937,-4.1313,-4.0394,-3.8657,-3.8978,-3.9262,-3.8469,-3.8912,-3.9426,-3.9716,-3.9054,-3.8623,-3.8853,-3.7351,-3.6014,-3.5536,-3.4551,-3.3542,-3.2567,-3.1702,-3.097,-3.0558,-3.0075,-2.9792,-2.9792,-2.9792,-2.9534,-2.8937,-2.845,-2.8131,-2.8131,-2.9127,-2.9322,-2.8814,-2.8239,-2.7463,-1.5728,-1.9471,-2.3047,-2.5285,-2.6245,-2.6701,0.0,0.0,0.0,-2.4407,-2.3415,-2.2309,-2.1326,-2.057,-1.9906,-1.9407,-2.0309,-2.1067,-2.0963,-2.2978,-2.4324,-2.3891,-2.2761,-2.0955,-1.8252,-1.6396,-1.4843,-1.3601,-1.4468,-1.528,-1.5881,-1.7121,-1.8214,-1.9256,-1.9492,-2.0343,-2.1952,-2.2027,-2.2713,-2.4265,-2.5119,-2.6716,-2.8799,-3.0731,-3.2849,-3.5011,-3.6307,-3.7424,-3.8453,-3.8133,-3.7863,-3.7515,-3.6843,-3.6024,-3.5213,-3.5213,-3.461,-3.3739,-3.3739,-3.3101,-3.2249,-3.1462,-3.1815,-3.2593,-3.2593,-3.5011,-3.7806,-3.793,-3.9783,-4.1853,-4.1937,-4.2734,-4.3497,-4.3497,-4.2995,-4.2382,-4.1895,-4.1223,-4.0167,-3.8173,-3.8246,-3.8469,-3.769,-3.7557,-3.7694,-3.8137,-3.6904,-3.6045,-3.6507,-3.4773,-3.35,-3.3293,-3.275,-3.196,-3.1044,-3.0895,-3.0633,-2.9869,-2.9792,-2.9792,-2.9792,-2.9624,-2.8937,-2.7844,-2.6964,-2.6483,-2.6483,-2.6307,-2.6625,-2.7429,-2.6543,-2.6058,-1.9855,-2.3702,-2.6662,-2.5777,-2.8258,-2.9918,-2.6116,0.0,-2.6022,-2.3803,0.0,-2.1422,-2.0632,0.0,0.0,-1.7491,-1.808,-1.8371,-1.7897,-1.9809,-2.1454,-2.2009,-2.1468,-2.0002,-1.7292,-1.4202,-1.2654,-1.32,-1.3658,-1.4651,-1.6526,-1.847,-1.9745,-2.0198,-2.1161,-2.18,-2.2027,-2.2027,-2.2789,-2.4329,-2.6638,-2.8124,-2.8973,-3.2177,-3.3848,-3.4269,-3.6614,-3.7381,-3.6948,-3.823,-3.8003,-3.6737,-3.6676,-3.5582,-3.4177,-3.4177,-3.3602,-3.2749,-3.2749,-3.2177,-3.1315,-3.1254,-3.1815,-3.2593,-3.2593,-3.5011,-3.7889,-3.8368,-4.0109,-4.1937,-4.248,-4.305,-4.3497,-4.3497,-4.2696,-4.1895,-4.1793,-4.0938,-3.9714,-3.8092,-3.7879,-3.769,-3.6843,-3.6613,-3.658,-3.6609,-3.5213,-3.4132,-3.4155,-3.3322,-3.2437,-3.1583,-3.1375,-3.0983,-3.0075,-2.9934,-2.9934,-2.9792,-2.9792,-2.9792,-2.9792,-2.8858,-2.7775,-2.6719,-2.6554,-2.6483,-2.6483,-2.5462,-2.5041,-2.5199,-2.5041,-2.4467,-2.2041,-2.5522,-2.839,-2.8253,-2.9228,-2.9593,-2.7266,-2.6072,-2.5148,-2.4073,0.0,0.0,0.0,0.0,0.0,0.0,-1.7205,-1.7027,-1.6824,-1.7897,-1.9219,-2.0463,-1.9655,-1.791,-1.516,-1.278,-1.1866,-1.3036,-1.4426,-1.6017,-1.8026,-2.0219,-2.1439,-2.1293,-2.179,-2.1735,-2.1155,-2.1735,-2.3046,-2.5183,-2.7186,-2.9269,-3.1432,-3.3206,-3.4787,-3.623,-3.6828,-3.7424,-3.793,-3.7642,-3.7172,-3.6554,-3.6117,-3.519,-3.4027,-3.4027,-3.3031,-3.1815,-3.1815,-3.1193,-3.0482,-3.1044,-3.1815,-3.2792,-3.383,-3.5856,-3.8003,-3.8994,-4.0513,-4.1937,-4.2519,-4.3105,-4.3497,-4.3497,-4.2639,-4.181,-4.181,-4.0891,-3.961,-3.8092,-3.7377,-3.6597,-3.5295,-3.507,-3.5026,-3.5026,-3.3459,-3.2297,-3.2297,-3.1509,-3.0846,-3.0419,-3.0419,-3.0203,-2.9869,-2.9792,-2.9792,-2.9792,-2.9197,-2.8767,-2.8767,-2.7105,-2.5942,-2.5546,-2.4893,-2.4563,-2.4563,-2.4059,-2.38,-2.38,-2.38,-2.3551,-2.5145,-2.8027,-3.0333,-3.0021,-2.9803,-2.922,-2.7563,-2.5983,-2.4725,-2.4109,-2.2929,0.0,0.0,0.0,-1.7303,-1.6802,0.0,-1.5781,-1.5916,-1.6563,-1.7581,-1.8995,-1.7879,-1.5991,-1.3534,-1.1848,-1.1481,-1.2733,-1.4533,-1.6627,-1.9014,-2.1424,-2.2522,-2.219,-2.2339,-2.1962,-2.1011,-2.1962,-2.3682,-2.6165,-2.8035,-3.0417,-3.3186,-3.4037,-3.5404,-3.7115,-3.6737,-3.7128,-3.7889,-3.6964,-3.6492,-3.6228,-3.5733,-3.4905,-3.3959,-3.3739,-3.2464,-3.0833,-3.0833,-3.0558,-3.0279,-3.097,-3.215,-3.3557,-3.5036,-3.682,-3.8608,-3.9881,-4.1146,-4.2203,-4.277,-4.3214,-4.3497,-4.3497,-4.2639,-4.181,-4.181,-4.0716,-3.9315,-3.7742,-3.6703,-3.5543,-3.3901,-3.338,-3.3241,-3.3241,-3.1815,-3.0833,-3.0833,-3.0203,-2.9792,-2.9792,-2.9792,-2.9792,-2.9792,-2.9534,-2.9209,-2.8882,-2.8108,-2.7522,-2.7186,-2.5619,-2.4617,-2.4372,-2.3551,-2.3135,-2.3135,-2.3135,-2.3135,-2.3135,-2.3135,-2.3135,-3.0295,-3.2321,-3.3201,-3.0102,-3.0086,-2.9835,-2.5977,-2.5627,-2.5575,-2.3632,-2.3226,-2.2541,-2.0159,-1.7569,-1.5675,-1.5307,-1.4623,0.0,0.0,-1.5695,-1.6699,-1.7405,-1.6277,-1.4834,-1.3158,-1.1623,-1.1123,-1.2149,-1.3339,-1.5516,-1.9112,-2.143,-2.2698,-2.2704,-2.3195,-2.2999,-2.1952,-2.2925,-2.4667,-2.7105,-2.9645,-3.1668,-3.3163,-3.4706,-3.5504,-3.5619,-3.6275,-3.6228,-3.5683,-3.6337,-3.6165,-3.5504,-3.5504,-3.4905,-3.3876,-3.2961,-3.1476,-2.9856,-2.9856,-3.0419,-3.118,-3.118,-3.2989,-3.5274,-3.5861,-3.7769,-3.9965,-4.1104,-4.2042,-4.2788,-4.3321,-4.3497,-4.3497,-4.3497,-4.2639,-4.181,-4.181,-4.0312,-3.846,-3.6761,-3.578,-3.4669,-3.2919,-3.1888,-3.1315,-3.1315,-3.0495,-2.9856,-2.9856,-2.9792,-2.9792,-2.9792,-2.9792,-2.9792,-2.9792,-2.8767,-2.7695,-2.6648,-2.6565,-2.6058,-2.4957,-2.4872,-2.4296,-2.3135,-2.3135,-2.3135,-2.3135,-2.3135,-2.3135,-2.3135,-2.3135,-2.3135,-3.2138,-3.3868,-3.468,-3.2441,-3.1628,-3.0429,-2.6862,-2.5615,-2.4564,-2.2277,-2.1784,-2.1247,-1.9397,-1.686,-1.5077,-1.5164,-1.389,-1.3295,0.0,-1.5382,-1.5816,-1.5646,-1.4974,-1.4024,-1.2694,-1.1642,-1.1679,-1.2991,-1.4907,-1.7101,-1.9669,-2.2548,-2.3628,-2.2693,-2.3184,-2.2999,-2.2027,-2.357,-2.5825,-2.8712,-3.0779,-3.2782,-3.4691,-3.5255,-3.5782,-3.6228,-3.6006,-3.6006,-3.6228,-3.5943,-3.5733,-3.5504,-3.5504,-3.4905,-3.3876,-3.2961,-3.1829,-3.062,-2.9998,-3.0419,-3.1315,-3.1888,-3.3542,-3.5513,-3.7233,-3.8852,-4.0441,-4.1902,-4.2645,-4.3086,-4.3408,-4.3497,-4.3497,-4.3497,-4.2639,-4.1672,-4.1121,-3.99,-3.8221,-3.6045,-3.4266,-3.2584,-3.0847,-2.9732,-2.9641,-3.1018,-3.0419,-2.9792,-2.9792,-2.9792,-2.9792,-2.9792,-2.9792,-2.9456,-2.8767,-2.7695,-2.6883,-2.6554,-2.5797,-2.521,-2.4787,-2.4049,-2.3464,-2.3135,-2.3135,-2.3135,-2.3135,-2.3135,-2.3135,-2.3135,-2.3135,-2.3135,-3.4169,-3.5534,-3.6168,-3.4333,-3.3052,-3.1283,-2.758,-2.6143,-2.4755,-2.2031,-2.1321,-2.0694,-1.8901,-1.6594,-1.487,0.0,0.0,-1.3016,0.0,-1.5005,-1.5141,-1.4744,-1.4275,-1.3521,-1.222,-1.1739,-1.2007,-1.33,-1.5294,-1.7412,-1.9663,-2.2577,-2.3811,-2.2925,-2.361,-2.3868,-2.352,-2.4767,-2.6926,-3.0165,-3.1795,-3.3517,-3.5135,-3.5667,-3.6006,-3.6228,-3.6006,-3.6165,-3.6554,-3.6117,-3.5894,-3.5894,-3.5619,-3.5133,-3.4409,-3.3463,-3.2536,-3.1609,-3.0983,-3.1415,-3.2307,-3.324,-3.4857,-3.677,-3.8742,-4.0178,-4.1414,-4.2641,-4.3123,-4.3332,-4.3461,-4.3497,-4.3497,-4.3497,-4.2639,-4.1568,-4.0763,-3.9259,-3.7234,-3.4623,-3.25,-3.059,-2.8729,-2.8287,-2.8548,-2.9859,-2.996,-2.9792,-2.9792,-2.9792,-2.9792,-2.9792,-2.9792,-2.9197,-2.7695,-2.6883,-2.6141,-2.5305,-2.4628,-2.4211,-2.4211,-2.3464,-2.3135,-2.3135,-2.3135,-2.3135,-2.3135,-2.3135,-2.3135,-2.3047,-2.2677,-2.2492]}]]